[[{"header":{"parameterUnit":"m.s-1","parameterCategory":1,"la1":30.6,"la2":29.2853,"lo1":-89.7004,"lo2":-87.6739,"dx":0.0162,"dy":0.0183,"nx":112,"ny":82,"refTime":"2022-11-05T18:00:00:Z","depth":0,"parameterNumber":2,"parameterNumberName":"U-component_of_WINDS"},"data":[0.0,0.0,0.0,0.0,0.0,0.0,0.0,0.0,0.0,0.0,0.0,0.0,0.0,0.0,0.0,0.0,0.0,0.0,0.0,0.0,0.0,0.0,0.0,0.0,0.0,0.0,0.0,0.0,0.0,0.0,0.0,0.0,0.0,0.0,0.0,0.0,0.0,0.0,0.0,0.0,0.0,0.0,0.0,0.0,0.0,0.0,0.0,0.0,0.0,0.0,0.0,0.0,0.0,0.0,0.0,0.0,0.0,0.0,0.0,0.0,0.0,0.0,0.0,0.0,0.0,0.0,0.0,0.0,0.0,0.0,0.0,0.0,0.0,0.0,0.0,0.0,0.0,0.0,0.0,0.0,0.0,0.0,0.0,0.0,0.0,0.0,0.0,0.0,0.0,0.0,-3.2903,-3.5823,-3.7892,-3.8718,-3.7918,-3.6656,-3.4504,-3.1232,0.0,0.0,0.0,0.0,0.0,0.0,0.0,0.0,0.0,0.0,0.0,0.0,0.0,0.0,0.0,0.0,0.0,0.0,0.0,0.0,0.0,0.0,0.0,0.0,0.0,0.0,0.0,0.0,0.0,0.0,0.0,0.0,0.0,0.0,0.0,0.0,0.0,0.0,0.0,0.0,0.0,0.0,0.0,0.0,0.0,0.0,0.0,0.0,0.0,0.0,0.0,0.0,0.0,0.0,0.0,0.0,0.0,0.0,0.0,0.0,0.0,0.0,0.0,0.0,0.0,0.0,0.0,0.0,0.0,0.0,0.0,0.0,0.0,0.0,0.0,0.0,0.0,0.0,0.0,0.0,0.0,0.0,0.0,0.0,0.0,0.0,0.0,0.0,0.0,0.0,0.0,0.0,0.0,0.0,0.0,0.0,0.0,0.0,0.0,0.0,0.0,0.0,0.0,0.0,-3.4324,-3.9866,-4.0299,-3.9738,-3.8633,-3.6924,-3.4423,-3.0988,0.0,0.0,0.0,0.0,0.0,0.0,0.0,0.0,0.0,0.0,0.0,0.0,0.0,0.0,0.0,0.0,0.0,0.0,0.0,0.0,0.0,0.0,0.0,0.0,0.0,0.0,0.0,0.0,0.0,0.0,0.0,0.0,0.0,0.0,0.0,0.0,0.0,0.0,0.0,0.0,0.0,0.0,0.0,0.0,0.0,0.0,0.0,0.0,0.0,0.0,0.0,0.0,0.0,0.0,0.0,0.0,0.0,0.0,0.0,0.0,0.0,0.0,0.0,0.0,0.0,0.0,0.0,0.0,0.0,0.0,0.0,0.0,0.0,0.0,0.0,0.0,0.0,0.0,0.0,0.0,0.0,0.0,0.0,0.0,0.0,0.0,0.0,0.0,0.0,0.0,0.0,0.0,0.0,0.0,0.0,0.0,0.0,0.0,0.0,0.0,0.0,0.0,0.0,-3.347,-3.652,-4.0928,-4.0844,-3.9995,-3.8794,-3.7663,-3.5093,-3.0553,-2.8444,0.0,0.0,0.0,0.0,0.0,0.0,0.0,0.0,0.0,0.0,0.0,0.0,0.0,0.0,0.0,0.0,0.0,0.0,0.0,0.0,0.0,0.0,0.0,0.0,0.0,0.0,0.0,0.0,0.0,0.0,0.0,0.0,0.0,0.0,0.0,0.0,0.0,0.0,0.0,0.0,0.0,0.0,0.0,0.0,0.0,0.0,0.0,0.0,0.0,0.0,0.0,0.0,0.0,0.0,0.0,0.0,0.0,0.0,0.0,0.0,0.0,0.0,0.0,0.0,0.0,0.0,0.0,0.0,0.0,0.0,0.0,0.0,0.0,0.0,0.0,0.0,0.0,0.0,0.0,0.0,0.0,0.0,0.0,0.0,0.0,0.0,0.0,0.0,0.0,0.0,0.0,0.0,0.0,0.0,0.0,0.0,0.0,0.0,0.0,0.0,0.0,0.0,-3.7243,-3.9325,-4.1674,-4.1282,-4.0469,-3.9455,-3.8679,-3.6048,-3.0839,-2.896,0.0,0.0,0.0,0.0,0.0,0.0,0.0,0.0,0.0,0.0,0.0,0.0,0.0,0.0,0.0,0.0,0.0,0.0,0.0,0.0,0.0,0.0,0.0,0.0,0.0,0.0,0.0,0.0,0.0,0.0,0.0,0.0,0.0,0.0,0.0,0.0,0.0,0.0,0.0,0.0,0.0,0.0,0.0,0.0,0.0,0.0,0.0,0.0,0.0,0.0,0.0,0.0,0.0,0.0,0.0,0.0,0.0,0.0,0.0,0.0,0.0,0.0,0.0,0.0,0.0,0.0,0.0,0.0,0.0,0.0,0.0,0.0,0.0,0.0,0.0,0.0,0.0,0.0,0.0,0.0,0.0,0.0,0.0,0.0,0.0,0.0,0.0,0.0,0.0,0.0,0.0,0.0,0.0,0.0,0.0,0.0,0.0,0.0,0.0,0.0,0.0,0.0,-3.9672,-4.2784,-4.3389,-4.2555,-4.1833,-4.1419,-3.9932,-3.7111,-3.2594,-3.0119,0.0,0.0,0.0,0.0,0.0,0.0,0.0,0.0,0.0,0.0,0.0,0.0,0.0,0.0,0.0,0.0,0.0,0.0,0.0,0.0,0.0,0.0,0.0,0.0,0.0,0.0,0.0,0.0,0.0,0.0,0.0,0.0,0.0,0.0,0.0,0.0,0.0,0.0,0.0,0.0,0.0,0.0,0.0,0.0,0.0,0.0,0.0,0.0,0.0,0.0,0.0,0.0,0.0,0.0,0.0,0.0,0.0,0.0,0.0,0.0,0.0,0.0,0.0,0.0,0.0,0.0,0.0,0.0,0.0,0.0,0.0,0.0,0.0,0.0,0.0,0.0,0.0,0.0,0.0,0.0,0.0,0.0,0.0,0.0,0.0,0.0,0.0,0.0,0.0,0.0,0.0,0.0,0.0,0.0,0.0,0.0,0.0,0.0,0.0,0.0,0.0,0.0,-3.9689,-4.2267,-4.4102,-4.3753,-4.2923,-4.1707,-4.0401,-3.7594,-3.2794,0.0,0.0,0.0,0.0,0.0,0.0,0.0,0.0,0.0,0.0,0.0,0.0,0.0,0.0,0.0,0.0,0.0,0.0,0.0,0.0,0.0,0.0,0.0,0.0,0.0,0.0,0.0,0.0,0.0,0.0,0.0,0.0,0.0,0.0,0.0,0.0,0.0,0.0,0.0,0.0,0.0,0.0,0.0,0.0,0.0,0.0,0.0,0.0,0.0,0.0,0.0,0.0,0.0,0.0,0.0,0.0,0.0,0.0,0.0,0.0,0.0,0.0,0.0,0.0,0.0,0.0,0.0,0.0,0.0,0.0,0.0,0.0,0.0,0.0,0.0,0.0,0.0,0.0,0.0,0.0,0.0,0.0,0.0,0.0,0.0,0.0,0.0,0.0,0.0,0.0,0.0,0.0,0.0,0.0,0.0,0.0,0.0,0.0,0.0,0.0,0.0,0.0,-3.7266,-4.0579,-4.318,-4.5003,-4.4803,-4.3968,-4.2543,-4.139,-3.849,-3.3182,0.0,0.0,0.0,0.0,0.0,0.0,0.0,0.0,0.0,0.0,0.0,0.0,0.0,0.0,0.0,0.0,0.0,0.0,0.0,0.0,0.0,0.0,0.0,0.0,0.0,0.0,0.0,0.0,0.0,0.0,0.0,0.0,0.0,0.0,0.0,0.0,0.0,0.0,0.0,0.0,0.0,0.0,0.0,0.0,0.0,0.0,0.0,0.0,0.0,0.0,0.0,0.0,0.0,0.0,0.0,0.0,0.0,0.0,0.0,0.0,0.0,0.0,0.0,0.0,0.0,0.0,0.0,0.0,0.0,0.0,0.0,0.0,0.0,0.0,0.0,0.0,0.0,0.0,0.0,0.0,0.0,0.0,0.0,0.0,0.0,0.0,0.0,0.0,0.0,0.0,0.0,0.0,0.0,0.0,0.0,0.0,0.0,0.0,0.0,0.0,0.0,0.0,-3.7635,-4.2841,-4.6307,-4.6307,-4.5704,-4.5028,-4.4289,-4.3054,-3.9839,0.0,0.0,0.0,0.0,0.0,0.0,0.0,0.0,0.0,0.0,0.0,0.0,0.0,0.0,0.0,0.0,0.0,0.0,0.0,0.0,0.0,0.0,0.0,0.0,0.0,0.0,0.0,0.0,0.0,0.0,0.0,0.0,0.0,0.0,0.0,0.0,0.0,0.0,0.0,0.0,0.0,0.0,0.0,0.0,0.0,0.0,0.0,0.0,0.0,0.0,0.0,0.0,0.0,0.0,0.0,0.0,0.0,0.0,0.0,0.0,0.0,0.0,0.0,0.0,0.0,0.0,0.0,0.0,0.0,0.0,0.0,0.0,0.0,0.0,0.0,0.0,0.0,0.0,0.0,0.0,0.0,0.0,0.0,0.0,0.0,0.0,0.0,0.0,0.0,0.0,0.0,0.0,0.0,0.0,0.0,0.0,0.0,0.0,0.0,0.0,0.0,0.0,0.0,-3.9309,-4.4253,-4.7322,-4.7105,-4.6889,-4.6308,-4.5077,-4.3799,-4.0458,-3.4282,0.0,0.0,0.0,0.0,0.0,0.0,0.0,0.0,0.0,0.0,0.0,0.0,0.0,0.0,0.0,0.0,0.0,0.0,0.0,0.0,0.0,0.0,0.0,0.0,0.0,0.0,0.0,0.0,0.0,0.0,0.0,0.0,0.0,0.0,0.0,0.0,0.0,0.0,0.0,0.0,0.0,0.0,0.0,0.0,0.0,0.0,0.0,0.0,0.0,0.0,0.0,0.0,0.0,0.0,0.0,0.0,0.0,0.0,0.0,0.0,0.0,0.0,0.0,0.0,0.0,0.0,0.0,0.0,0.0,0.0,0.0,0.0,0.0,0.0,0.0,0.0,0.0,0.0,0.0,0.0,0.0,0.0,0.0,0.0,0.0,0.0,0.0,0.0,0.0,0.0,0.0,0.0,0.0,0.0,0.0,0.0,0.0,0.0,0.0,0.0,0.0,0.0,-4.0036,-4.5105,-4.825,-4.8063,-4.7908,-4.7387,-4.6247,-4.4724,-4.1508,-3.6066,0.0,0.0,0.0,0.0,0.0,0.0,0.0,0.0,0.0,0.0,0.0,0.0,0.0,0.0,0.0,0.0,0.0,0.0,0.0,0.0,0.0,0.0,0.0,0.0,0.0,0.0,0.0,0.0,0.0,0.0,0.0,0.0,0.0,0.0,0.0,0.0,0.0,0.0,0.0,0.0,0.0,0.0,0.0,0.0,0.0,0.0,0.0,0.0,0.0,0.0,0.0,0.0,0.0,0.0,0.0,0.0,0.0,0.0,0.0,0.0,0.0,0.0,0.0,0.0,0.0,0.0,0.0,0.0,0.0,0.0,0.0,0.0,0.0,0.0,0.0,0.0,0.0,0.0,0.0,0.0,0.0,0.0,0.0,0.0,0.0,0.0,0.0,0.0,0.0,0.0,0.0,0.0,0.0,0.0,0.0,0.0,0.0,0.0,0.0,0.0,0.0,0.0,-4.0144,-4.5478,-4.9001,-4.9001,-4.8721,-4.8262,-4.756,-4.5782,-4.291,-3.8675,0.0,0.0,0.0,0.0,0.0,0.0,0.0,0.0,0.0,0.0,0.0,0.0,0.0,0.0,0.0,0.0,0.0,0.0,0.0,0.0,0.0,0.0,0.0,0.0,0.0,0.0,0.0,0.0,0.0,0.0,0.0,0.0,0.0,0.0,0.0,0.0,0.0,0.0,0.0,0.0,0.0,0.0,0.0,0.0,0.0,0.0,0.0,0.0,0.0,0.0,0.0,0.0,0.0,0.0,0.0,0.0,0.0,0.0,0.0,0.0,-3.2431,-2.9352,0.0,0.0,0.0,0.0,0.0,0.0,0.0,0.0,0.0,0.0,0.0,0.0,0.0,0.0,0.0,0.0,0.0,0.0,0.0,0.0,0.0,0.0,0.0,0.0,0.0,0.0,0.0,0.0,0.0,0.0,0.0,0.0,0.0,0.0,0.0,0.0,0.0,0.0,0.0,0.0,-4.0483,-4.5636,-4.9001,-4.9001,-4.894,-4.8717,-4.8281,-4.7121,-4.4384,-3.963,-3.6649,0.0,0.0,0.0,0.0,0.0,0.0,0.0,0.0,0.0,0.0,0.0,0.0,0.0,0.0,0.0,0.0,0.0,0.0,0.0,0.0,0.0,0.0,0.0,0.0,0.0,0.0,0.0,0.0,0.0,0.0,0.0,0.0,0.0,0.0,0.0,0.0,0.0,0.0,0.0,0.0,0.0,0.0,0.0,0.0,0.0,0.0,0.0,0.0,0.0,0.0,0.0,0.0,0.0,0.0,0.0,0.0,0.0,0.0,0.0,-3.5765,-3.3598,0.0,0.0,0.0,0.0,0.0,0.0,0.0,0.0,0.0,0.0,0.0,0.0,0.0,0.0,0.0,0.0,0.0,0.0,0.0,0.0,0.0,0.0,0.0,0.0,0.0,0.0,0.0,0.0,0.0,0.0,0.0,0.0,0.0,0.0,0.0,0.0,0.0,0.0,0.0,0.0,-4.0625,-4.5691,-4.9001,-4.9001,-4.9001,-4.894,-4.8753,-4.7751,-4.5881,-4.2896,-3.9185,0.0,0.0,0.0,0.0,0.0,0.0,0.0,0.0,0.0,0.0,0.0,0.0,0.0,0.0,0.0,0.0,0.0,0.0,0.0,0.0,0.0,0.0,0.0,0.0,0.0,0.0,0.0,0.0,0.0,0.0,0.0,0.0,0.0,0.0,0.0,0.0,0.0,0.0,0.0,0.0,0.0,0.0,0.0,0.0,0.0,0.0,0.0,0.0,0.0,0.0,0.0,0.0,0.0,-4.0709,-4.098,-4.076,-4.076,-4.1744,-4.3284,-3.9705,-3.8916,-3.9743,-3.4556,0.0,0.0,0.0,0.0,0.0,0.0,0.0,0.0,0.0,0.0,0.0,0.0,0.0,0.0,0.0,0.0,0.0,0.0,0.0,0.0,0.0,0.0,-3.9924,-4.005,-4.1826,-4.2439,-3.858,0.0,0.0,0.0,0.0,0.0,0.0,0.0,0.0,0.0,0.0,0.0,-4.1462,-4.6015,-4.9001,-4.9001,-4.9001,-4.9001,-4.9001,-4.8133,-4.7228,-4.6389,-4.1656,-3.7923,0.0,0.0,0.0,0.0,0.0,0.0,0.0,0.0,0.0,0.0,0.0,0.0,0.0,0.0,0.0,0.0,0.0,0.0,0.0,0.0,0.0,0.0,0.0,0.0,0.0,0.0,0.0,0.0,0.0,0.0,0.0,0.0,-3.075,-2.9813,0.0,0.0,0.0,0.0,0.0,0.0,0.0,0.0,0.0,0.0,0.0,0.0,0.0,-3.8218,-3.9935,-4.1569,-4.2955,-4.4039,-4.6035,-4.6959,-4.6924,-4.6924,-4.7099,-4.7309,-4.6393,0.0,-4.1475,-4.0518,0.0,0.0,0.0,0.0,0.0,0.0,0.0,0.0,0.0,0.0,0.0,0.0,0.0,0.0,0.0,0.0,0.0,0.0,0.0,0.0,0.0,0.0,-4.6767,-4.7421,-4.7833,-4.777,-4.6532,-4.1234,-3.6495,-3.592,-3.5422,-3.4206,0.0,0.0,0.0,0.0,0.0,0.0,-4.4522,-4.7369,-4.9001,-4.9001,-4.9001,-4.9001,-4.9001,-4.862,-4.8017,-4.7271,-4.5538,-4.2831,-3.9034,-3.5485,0.0,0.0,0.0,0.0,0.0,0.0,0.0,0.0,0.0,0.0,0.0,0.0,0.0,0.0,0.0,0.0,0.0,0.0,0.0,0.0,0.0,0.0,0.0,0.0,0.0,0.0,0.0,0.0,0.0,-2.9859,-3.1741,-3.1779,-3.0853,-2.9817,0.0,0.0,0.0,0.0,0.0,0.0,0.0,0.0,0.0,-4.1261,-4.1716,-4.2981,-4.5236,-4.6337,-4.7365,-4.8291,-4.9527,-5.0362,-5.0793,-5.0793,-5.0793,-5.0785,-5.0379,-4.9085,-4.6972,-4.3465,-4.0558,-3.8278,0.0,0.0,0.0,0.0,-3.7794,-3.7678,-4.1233,-4.1738,-4.0742,-4.0065,0.0,0.0,0.0,0.0,0.0,0.0,0.0,-4.1207,-4.3889,-4.5303,-4.6538,-4.8523,-4.9001,-4.8903,-4.8605,-4.6286,-4.3406,-4.0456,-3.8998,-3.7017,-3.3046,-3.4161,0.0,0.0,0.0,-4.2447,-4.4991,-4.7464,-4.9001,-4.9001,-4.9001,-4.9001,-4.9001,-4.8877,-4.857,-4.8046,-4.7137,-4.5504,-4.3039,-3.8624,-3.4563,0.0,0.0,0.0,0.0,0.0,0.0,0.0,0.0,0.0,0.0,0.0,0.0,0.0,0.0,0.0,0.0,0.0,0.0,0.0,0.0,0.0,0.0,0.0,0.0,0.0,0.0,0.0,0.0,-3.18,-3.3318,-3.388,-3.3367,-3.2399,0.0,0.0,0.0,0.0,0.0,0.0,-3.9723,-4.0726,-4.2638,-4.5603,-4.6055,-4.735,-4.9639,-5.0004,-5.0618,-5.1489,-5.1843,-5.2423,-5.3193,-5.3264,-5.3286,-5.3253,-5.2857,-5.2329,-5.1391,-4.6498,-4.4075,-4.3256,-4.1322,-4.0092,-3.9691,-4.2028,-4.2296,-4.1997,-4.5583,-4.6145,-4.509,-4.42,-4.2947,-4.149,-4.0103,0.0,0.0,0.0,0.0,-4.2849,-4.5495,-4.5951,-4.6277,-4.8489,-4.9001,-4.9001,-4.9001,-4.926,-4.8483,-4.4987,-4.3569,-4.1452,-3.6847,-3.8356,0.0,-3.7629,-4.1366,-4.4978,-4.6554,-4.8231,-4.9272,-4.9272,-4.912,-4.9001,-4.9001,-4.9001,-4.8909,-4.8642,-4.8027,-4.72,-4.6109,-4.1978,-3.8704,-3.6497,0.0,0.0,0.0,0.0,0.0,0.0,0.0,0.0,0.0,0.0,0.0,0.0,0.0,0.0,0.0,0.0,0.0,0.0,0.0,0.0,0.0,0.0,0.0,0.0,0.0,0.0,0.0,0.0,0.0,-3.6329,-3.7638,0.0,0.0,0.0,0.0,-3.7912,-3.9801,-4.1821,-4.3709,-4.4921,-4.6629,-4.8903,-4.9701,-5.0373,-5.0882,-5.0928,-5.1576,-5.2781,-5.2831,-5.3229,-5.3957,-5.4269,-5.4387,-5.4304,-5.3911,-5.3281,-5.2439,-5.105,-4.8934,-4.6567,-4.6424,-4.4616,-4.2348,-4.4314,-4.5009,-4.5326,-4.8086,-4.8751,-4.8374,-4.8293,-4.5998,-4.3279,-4.3182,-4.2584,0.0,0.0,-4.5222,-4.6522,-4.8326,-4.8787,-4.8804,-4.8968,-4.9001,-4.9001,-4.9001,-4.8494,-4.8359,-4.9475,-5.0202,-4.9517,-4.6026,0.0,-4.5819,-4.6118,-4.6075,-4.7324,-5.1089,-5.0655,-5.0033,-5.0033,-4.9424,-4.9001,-4.9001,-4.9001,-4.9001,-4.897,-4.8639,-4.8098,-4.7333,-4.5947,-4.3088,-3.8623,-3.5615,0.0,0.0,0.0,0.0,0.0,0.0,0.0,0.0,0.0,0.0,0.0,0.0,0.0,0.0,0.0,0.0,0.0,0.0,0.0,0.0,0.0,0.0,0.0,0.0,0.0,0.0,0.0,0.0,-3.8542,-3.9514,0.0,-3.7426,-3.9423,-4.0875,-4.0832,-4.3744,-4.5956,-4.6938,-4.8137,-4.9272,-5.0329,-5.1432,-5.2085,-5.2235,-5.2687,-5.3175,-5.3602,-5.3609,-5.4029,-5.4777,-5.4901,-5.4927,-5.4924,-5.4774,-5.4082,-5.3021,-5.2619,-5.0956,-4.8647,-4.8318,-4.7569,-4.6767,-4.8063,-4.8563,-4.872,-4.993,-5.0258,-5.0045,-4.9479,-4.8489,-4.7421,-4.7094,-4.6767,-4.6636,-4.7242,-4.7718,-4.8326,-4.9416,-4.9729,-4.9851,-5.0319,-5.0439,-5.0289,-4.9818,-5.0255,-5.0745,-5.0816,-5.024,-4.91,-4.6915,-4.8103,-4.8774,-4.7056,-4.8256,-4.9882,-5.1255,-5.0653,-5.0084,-5.0084,-4.9441,-4.9001,-4.9001,-4.9001,-4.9001,-4.9001,-4.8877,-4.8618,-4.813,-4.6912,-4.5391,-4.3492,-4.1662,-3.7221,0.0,0.0,0.0,0.0,0.0,0.0,0.0,0.0,0.0,0.0,0.0,0.0,0.0,0.0,0.0,0.0,0.0,0.0,0.0,0.0,0.0,0.0,0.0,0.0,0.0,-3.7632,-3.9761,-3.9709,-4.1168,-4.1311,-3.9216,-4.1931,-4.3809,-4.3809,-4.6873,-4.8985,-4.9556,-5.0624,-5.1465,-5.2006,-5.2824,-5.3271,-5.3274,-5.3757,-5.4148,-5.4407,-5.4496,-5.495,-5.5744,-5.5658,-5.5613,-5.5577,-5.5209,-5.4436,-5.338,-5.3051,-5.1833,-5.0133,-4.9995,-4.9808,-4.9686,-5.0543,-5.0863,-5.0905,-5.1073,-5.1002,-5.0693,-4.9955,-4.9894,-5.0011,-4.9514,-4.9664,-4.9977,-4.978,-4.9746,-4.9862,-5.0359,-5.0461,-5.0578,-5.1089,-5.1208,-5.1056,-5.058,-5.1656,-5.2467,-5.1727,-5.1127,-5.032,-4.8897,-5.0444,-5.0934,-4.8304,-4.9999,-5.1403,-5.0896,-5.0625,-5.0371,-5.0118,-4.9441,-4.9103,-4.9357,-4.8697,-4.8578,-4.9323,-4.8663,-4.8385,-4.8656,-4.6762,-4.5525,-4.5096,-4.362,-3.971,-3.3315,0.0,0.0,0.0,0.0,0.0,0.0,0.0,0.0,0.0,0.0,0.0,0.0,0.0,0.0,0.0,0.0,0.0,0.0,0.0,0.0,0.0,0.0,0.0,-3.7007,-3.9121,-4.0535,-3.9934,-4.2645,-4.3724,-4.1525,-4.4637,-4.6802,-4.6819,-4.9028,-5.0735,-5.1476,-5.2351,-5.3191,-5.3939,-5.3991,-5.4026,-5.4038,-5.4072,-5.4471,-5.5229,-5.5504,-5.604,-5.6772,-5.6551,-5.6421,-5.6318,-5.5287,-5.4382,-5.355,-5.2651,-5.1802,-5.1141,-5.1572,-5.1307,-5.0779,-5.1509,-5.1797,-5.1758,-5.1504,-5.1019,-5.0396,-4.9933,-5.0314,-5.0875,-5.0356,-5.1042,-5.1898,-5.1412,-5.1278,-5.1295,-5.1295,-5.1285,-5.1279,-5.1296,-5.1279,-5.1263,-5.1238,-5.2445,-5.3257,-5.2483,-5.3352,-5.3821,-5.2568,-5.2774,-5.2438,-5.05,-5.142,0.0,-5.0355,-5.0777,-5.093,-5.0135,-4.9407,-4.9255,-4.9999,-4.8088,-4.78,-4.9982,-4.8088,-4.753,-4.8984,-4.5904,-4.3872,-4.3295,-4.1262,-3.9564,-3.8217,0.0,0.0,0.0,0.0,0.0,0.0,0.0,0.0,0.0,0.0,0.0,0.0,0.0,0.0,0.0,0.0,0.0,0.0,0.0,0.0,0.0,-3.7871,-4.0014,-3.9531,-4.1289,-4.2794,-4.3204,-4.4037,-4.4361,-4.3735,-4.5551,-4.7022,-4.7564,-4.9195,-5.0642,-5.1731,-5.2035,-5.2578,-5.3464,-5.4065,-5.4527,-5.4866,-5.5445,-5.5855,-5.606,-5.6353,-5.6594,-5.6813,-5.6939,-5.6672,-5.6098,-5.5807,-5.511,-5.4179,-5.4147,-5.377,-5.3007,-5.1402,-5.0646,-5.053,-5.1034,-5.1451,-5.1737,-5.1866,-5.2026,-5.2167,-5.1891,-5.1968,-5.2114,-5.2027,-5.2127,-5.2317,-5.2535,-5.272,-5.2956,-5.3276,-5.3128,-5.296,-5.3281,-5.3112,-5.2708,-5.2101,-5.2774,-5.3433,-5.3196,-5.4175,-5.4593,-5.3398,-5.3296,-5.3193,-5.2654,-5.2909,-5.2807,-5.1826,-5.142,-5.0727,-4.9441,-4.8646,-4.8511,-4.9238,-4.8748,-4.912,-5.0794,-4.9813,-4.9357,-4.9779,-4.8402,-4.7446,-4.7024,-4.3307,-4.105,0.0,0.0,0.0,0.0,0.0,0.0,0.0,0.0,0.0,0.0,0.0,0.0,0.0,0.0,0.0,0.0,0.0,0.0,0.0,0.0,0.0,0.0,-4.0386,-4.2123,-4.2202,-4.3189,-4.4079,-4.4547,-4.4886,-4.5043,-4.5043,-4.6667,-4.7902,-4.8342,-4.9916,-5.1322,-5.2355,-5.2574,-5.3197,-5.4268,-5.4536,-5.4917,-5.5415,-5.5863,-5.6096,-5.6123,-5.6587,-5.6865,-5.6979,-5.6897,-5.6618,-5.6126,-5.5674,-5.5141,-5.4578,-5.4539,-5.4482,-5.423,0.0,0.0,0.0,0.0,-5.2516,-5.2862,-5.3019,-5.3069,-5.3078,-5.2962,-5.3154,-5.3363,-5.3219,-5.3454,-5.3804,-5.3823,-5.383,-5.3865,-5.4133,-5.384,-5.3579,-5.382,-5.3687,-5.3365,-5.2893,-5.3416,-5.3872,-5.3567,-5.4551,0.0,-5.4144,-5.4364,-5.4329,-5.3179,-5.3551,-5.3331,-5.1589,-5.1285,-5.0847,-5.0016,-4.9272,-4.9255,-5.0304,-4.9543,0.0,0.0,0.0,-4.9221,-4.8291,-4.7547,0.0,0.0,0.0,-4.2962,-4.3854,-4.1089,0.0,0.0,-3.6961,-3.6072,0.0,0.0,0.0,0.0,0.0,0.0,0.0,0.0,0.0,0.0,0.0,0.0,0.0,0.0,0.0,0.0,-4.2645,-4.4182,-4.4541,-4.4615,-4.4632,-4.4716,-4.5297,-4.5737,-4.5821,-4.7682,-4.8951,-4.912,-5.0782,-5.2193,-5.308,-5.3539,0.0,0.0,0.0,-5.5074,-5.5613,-5.5667,-5.5701,-5.5719,-5.6429,-5.6909,-5.7145,-5.6703,-5.6496,-5.6436,-5.5474,-5.5051,-5.4978,-5.4545,-5.4658,-5.5081,-5.4888,-5.441,-5.3824,-5.4056,-5.4225,-5.4378,-5.4389,0.0,0.0,-5.3618,-5.4079,-5.4469,-5.4198,-5.4813,-5.558,-5.5148,-5.4716,-5.4373,-5.4333,-5.3982,-5.3632,-5.3578,-5.3534,-5.3501,-5.3501,-5.4008,-5.4295,-5.3737,-5.4685,-5.5395,-5.482,-5.5621,-5.5501,-5.3043,-5.3771,-5.3585,-5.0828,-5.098,-5.1268,-5.1099,-5.049,0.0,-5.2063,-5.0388,-5.0168,-5.23,-5.0507,-4.846,-4.6413,-4.5686,-4.5171,-4.4758,-4.4414,-4.5349,-4.765,-4.7292,-4.7135,-4.6957,-3.9933,-3.8161,0.0,0.0,0.0,0.0,0.0,0.0,0.0,0.0,0.0,0.0,0.0,0.0,0.0,0.0,0.0,-4.1235,-4.3155,-4.4512,-4.4581,-4.4615,-4.4835,-4.5415,-4.5618,-4.594,-4.6532,-4.7513,-4.8612,-4.9796,-5.0805,-5.1939,-5.3363,-5.3497,-5.3827,-5.4457,-5.4411,-5.4582,-5.5044,-5.5467,-5.5709,-5.5709,-5.6447,0.0,-5.6871,-5.7,-5.7046,-5.7028,-5.6833,-5.661,-5.6431,-5.6533,-5.6508,-5.6323,-5.5286,-5.4639,-5.4276,-5.4317,-5.4231,-5.4126,-5.4394,-5.4396,-5.4398,-5.5021,-5.506,-5.4959,-5.5688,-5.5631,0.0,-5.5786,-5.5651,-5.5346,-5.5152,-5.4729,-5.4336,-5.4126,-5.3788,-5.3501,-5.3501,-5.3619,-5.3856,-5.4296,-5.4617,-5.4955,-5.5429,-5.5685,-5.5652,-5.5124,-5.4786,-5.416,-5.2993,-5.2401,-5.1623,-5.0439,-5.0185,-5.0456,-5.1352,-5.1031,-5.1505,-5.3162,-5.2266,-5.12,-5.0185,-5.0016,-4.9757,-4.942,-4.9011,-4.8925,-4.9173,-4.8787,-4.8609,-4.8544,-4.5688,-4.4934,0.0,0.0,0.0,0.0,0.0,0.0,0.0,0.0,0.0,0.0,0.0,-3.7028,-3.8404,0.0,-4.1835,-4.2932,-4.4109,-4.4967,-4.5122,-4.5145,-4.528,-4.5669,-4.6024,-4.6532,-4.7293,-4.8359,-4.9306,-5.0033,-5.0777,-5.1708,-5.2841,-5.2909,-5.3293,-5.4171,-5.3963,-5.4076,-5.4551,-5.4799,-5.4953,-5.4953,-5.5826,-5.6192,-5.6055,-5.6474,-5.6653,-5.6661,-5.6653,-5.6697,-5.6821,-5.7105,-5.7054,-5.6749,-5.6237,-5.5779,-5.5356,-5.4847,-5.4732,-5.4843,-5.4739,-5.4705,-5.477,-5.5191,-5.5119,-5.5113,-5.6245,-5.6177,-5.5849,-5.6791,-5.6582,-5.601,-5.591,-5.5482,-5.5008,-5.4533,-5.4211,-5.3957,-5.3585,-5.3501,-5.3619,-5.3974,-5.4346,-5.4718,-5.5091,-5.5463,-5.5581,-5.5209,-5.5463,-5.5294,-5.4194,-5.3704,-5.3162,-5.2418,-5.2012,-5.1944,-5.2334,-5.2367,-5.2689,-5.345,-5.2739,-5.2131,-5.1775,-5.142,-5.1038,-5.071,-5.0493,-5.0121,-4.9599,-4.9423,-4.9316,-4.9284,-4.8623,-4.8471,0.0,0.0,0.0,0.0,0.0,0.0,0.0,-3.2233,-3.339,-3.6124,-3.7959,-3.9586,-4.1323,-4.2508,-4.3577,-4.4654,-4.508,-4.5446,-4.5862,-4.5923,-4.5974,-4.6126,-4.665,-4.731,-4.8054,-4.9187,-4.9949,-5.0084,-5.0777,-5.1539,-5.2266,-5.2452,-5.3006,-5.4027,-5.3701,-5.3668,-5.4044,-5.4156,-5.4188,-5.422,-5.5104,-5.5414,-5.5243,-5.5676,-5.5865,-5.5876,-5.5996,-5.6292,-5.6742,-5.6951,-5.6925,-5.6742,-5.6977,-5.6768,-5.629,-5.5553,-5.5511,-5.5754,-5.5229,-5.5074,-5.5105,-5.5119,-5.5147,-5.539,-5.6517,-5.6485,-5.6306,-5.7406,-5.7014,-5.625,-5.6236,-5.5995,-5.5528,-5.4953,-5.4801,-5.4633,-5.4076,-5.394,-5.389,-5.3737,-5.4194,-5.4549,-5.4397,-5.5006,-5.5344,-5.4871,-5.57,-5.5936,-5.4735,-5.4465,-5.438,-5.438,-5.3856,-5.3501,-5.3501,-5.3501,-5.3501,-5.3501,-5.2892,-5.2536,-5.2536,-5.1961,-5.1526,-5.1245,-5.1179,-5.0825,-5.0255,-5.0096,-5.0044,-5.0115,-5.0397,-5.0404,-3.0581,-2.9431,-2.945,-3.1328,-3.1853,-3.3004,0.0,-3.7089,-3.7039,-3.9969,-4.1247,-4.2119,-4.2997,-4.3847,-4.4688,-4.5449,-4.5596,-4.5896,-4.6566,-4.6667,-4.6921,-4.7567,-4.775,-4.8088,-4.8815,-4.9035,-4.939,-5.0033,-5.0777,-5.1539,-5.2266,-5.2993,-5.3433,-5.3584,-5.3534,-5.3534,-5.3584,-5.3996,-5.4188,-5.422,-5.4738,-5.4966,-5.4966,-5.4996,-5.5026,-5.5056,-5.5537,-5.6003,-5.6455,-5.6482,-5.6465,-5.6455,-5.6482,-5.6437,-5.6428,-5.6546,-5.6465,-5.6263,-5.5775,-5.5733,-5.5872,-5.5878,-5.6045,-5.6336,-5.6953,-5.6794,-5.6379,-5.6549,-5.6186,-5.5791,-5.5789,-5.5759,-5.5694,-5.5614,-5.5563,-5.5546,-5.5462,-5.5463,-5.5277,-5.46,-5.4532,-5.438,-5.3737,-5.4228,-5.4921,-5.5497,-5.5158,-5.4786,-5.4617,-5.4025,-5.3619,-5.3619,-5.3551,-5.3501,-5.3501,-5.3501,-5.3501,-5.3501,-5.3416,-5.3365,-5.3365,-5.3298,-5.3213,-5.318,-5.2841,-5.2618,-5.2514,-5.1878,-5.1698,-5.1988,-5.2023,-5.1537,-3.4007,-3.3783,-3.3766,-3.4697,-3.5255,-3.6045,-3.7922,-3.7872,-3.8278,-4.1221,-4.2083,-4.2658,-4.3876,-4.4555,-4.5097,-4.5613,-4.5886,-4.6363,-4.7306,-4.7445,-4.7716,-4.846,-4.8787,-4.8967,-4.8998,-4.9001,-4.9306,-5.0033,-5.0388,-5.1065,-5.2232,-5.2621,-5.3027,-5.3501,-5.3501,-5.3501,-5.3501,-5.3701,-5.3783,-5.3783,-5.4252,-5.4348,-5.4093,-5.4379,-5.4488,-5.4551,-5.5361,-5.5815,-5.6003,-5.6273,-5.6401,-5.6401,-5.6401,-5.6401,-5.6383,-5.6227,-5.5883,-5.5531,-5.5475,-5.5327,-5.5246,-5.569,-5.591,-5.6159,-5.7133,-5.7069,-5.678,-5.7548,-5.7384,-5.699,-5.6961,-5.6981,-5.6964,-5.7002,-5.6985,-5.6985,-5.6985,-5.6985,-5.6884,-5.6562,-5.6173,-5.5784,-5.548,-5.4955,-5.4854,-5.5598,-5.5446,-5.5243,-5.5243,-5.4972,-5.472,-5.4548,-5.4171,-5.3915,-5.3915,-5.3915,-5.3783,-5.3534,-5.3501,-5.3501,-5.3501,-5.3501,-5.3501,-5.3501,-5.3314,-5.3345,-5.3539,-5.3204,-5.3349,-5.3909,-5.3909,-5.3805,-3.5779,-3.6299,-3.6552,-3.7015,-3.7804,-3.8514,-3.8514,-3.8667,-3.9478,-4.1813,-4.2455,-4.2997,-4.4361,-4.4831,-4.5248,-4.5913,-4.6249,-4.6857,-4.8034,-4.8193,-4.8409,-4.8951,-4.929,-4.9381,-4.9032,-4.9124,-4.946,-5.0065,-5.0287,-5.0963,-5.2232,-5.252,-5.2909,-5.3484,-5.3501,-5.3501,-5.3501,-5.3501,-5.3501,-5.3501,-5.3849,-5.3816,-5.3501,-5.3849,-5.4076,-5.4252,-5.4953,-5.5483,-5.5824,-5.6322,-5.6532,-5.6659,-5.6932,-5.696,-5.6819,-5.6613,-5.6077,-5.5462,-5.5712,-5.5651,-5.5484,-5.587,-5.6156,-5.6461,-5.7418,-5.7416,-5.7294,-5.823,-5.8191,-5.7881,-5.7881,-5.7881,-5.7881,-5.7881,-5.8051,-5.8203,-5.8203,-5.8355,-5.844,-5.8237,-5.778,-5.734,-5.7137,-5.6207,-5.575,-5.6511,-5.6275,-5.5869,-5.5463,-5.5226,-5.5025,-5.4801,-5.4434,-5.4156,-5.4028,-5.4141,-5.3996,-5.3534,-5.3501,-5.3501,-5.3501,-5.3501,-5.3501,-5.3501,-5.3704,-5.3905,-5.4168,-5.4263,-5.4632,-5.5257,-5.5132,-5.5329,-3.4561,-3.5098,-3.5988,-3.7499,-3.8954,-4.0028,-4.0028,-4.0578,-4.1339,-4.2117,-4.2878,-4.3639,-4.4462,-4.4598,-4.5089,-4.6515,-4.6781,-4.7306,-4.8765,-4.8968,-4.8984,-4.9001,-4.9001,-4.9001,-4.9001,-4.9411,-4.9808,-5.0065,-5.076,-5.1505,-5.2266,-5.3044,-5.3484,-5.3501,-5.3501,-5.3501,-5.3501,-5.3501,-5.3501,-5.3501,-5.3501,-5.3501,-5.3501,-5.3501,-5.3767,-5.4188,-5.422,-5.4903,-5.6032,-5.6568,-5.6952,-5.7279,-5.8255,-5.836,-5.8005,-5.8448,-5.7805,-5.6786,-5.7049,-5.7249,-5.7347,-5.6926,-5.7256,-5.7831,-5.7901,-5.7865,-5.7865,-5.7898,-5.7898,-5.7881,-5.7881,-5.7881,-5.7881,-5.7881,-5.8457,-5.8981,-5.8981,-5.9539,-5.9827,-5.9116,-5.8964,-5.8727,-5.7983,-5.7814,-5.8051,-5.8795,-5.7695,-5.6258,-5.4803,-5.4008,-5.3551,-5.3568,-5.3948,-5.4028,-5.3568,-5.3931,-5.3996,-5.3534,-5.3501,-5.3501,-5.3501,-5.3501,-5.3501,-5.3501,-5.4194,-5.4566,-5.4583,-5.4907,-5.5276,-5.5681,-5.5293,-5.5329,-3.5627,-3.6569,-3.7499,-3.8988,-3.974,-4.0231,-4.0713,-4.1018,-4.1559,-4.2794,-4.325,-4.3656,-4.4462,-4.4615,-4.5089,-4.6549,-4.6786,-4.731,-4.8798,-4.9001,-4.9001,-4.9001,-4.9702,-4.9896,-4.9083,-4.9138,-4.9695,-5.0744,-5.1065,-5.1758,-5.3044,-5.3348,-5.3501,-5.3501,-5.3501,-5.3501,-5.3501,-5.3501,-5.3501,-5.3501,-5.3501,-5.3501,-5.3518,-5.4008,-5.4313,-5.4516,-5.531,-5.5884,-5.6305,-5.6836,-5.7105,-5.7222,-5.7569,-5.7816,-5.8069,-5.8744,-5.847,-5.781,-5.7913,-5.7782,-5.7552,-5.7537,-5.7695,-5.7881,-5.7881,-5.7881,-5.7881,-5.7881,-5.7881,-5.7881,-5.7881,-5.7881,-5.8017,-5.8507,-5.9201,-5.9877,-6.0419,-6.1112,-6.1535,-6.1298,-6.0858,-6.0452,-6.0199,-5.9319,-5.8389,-5.7662,-5.712,-5.6275,-5.4786,-5.438,-5.4347,-5.4649,-5.5258,-5.5393,-5.4749,-5.483,-5.4526,-5.3568,-5.3501,-5.3501,-5.3501,-5.3974,-5.4228,-5.4228,-5.4955,-5.5581,-5.6055,-5.6149,-5.6556,-5.7154,-5.7029,-5.7029,-3.6569,-3.7533,-3.8261,-3.974,-4.0096,-4.0299,-4.1035,-4.1407,-4.1948,-4.3139,-4.3392,-4.3572,-4.4079,-4.4429,-4.5089,-4.6549,-4.7022,-4.7716,-4.9187,-4.9171,-4.9001,-4.9001,-4.9685,-4.9848,-4.9083,-4.9238,-4.9898,-5.11,-5.1185,-5.1877,-5.3416,-5.3501,-5.3501,-5.3501,-5.3501,-5.3501,-5.3501,-5.3501,-5.3636,-5.389,-5.389,-5.4025,-5.4313,-5.4786,-5.4989,-5.5058,-5.5792,-5.6321,-5.6577,-5.7133,-5.7405,-5.7513,-5.8087,-5.8279,-5.8331,-5.92,-5.9187,-5.8718,-5.8718,-5.8287,-5.772,-5.7874,-5.7881,-5.7881,-5.7881,-5.7881,-5.7881,-5.7881,-5.7881,-5.7881,-5.7881,-5.7881,-5.8017,-5.849,-5.937,-6.0233,-6.0757,-6.167,-6.2381,-6.2381,-6.2009,-6.1687,-6.1687,-6.0875,-5.9708,-5.8203,-5.7763,-5.6968,-5.5226,-5.4989,-5.5127,-5.5433,-5.6028,-5.6147,-5.5501,-5.56,-5.5279,-5.4364,-5.4296,-5.4296,-5.4296,-5.4482,-5.4718,-5.4989,-5.548,-5.6072,-5.6799,-5.7053,-5.7442,-5.7881,-5.7881,-5.7881,-3.7347,-3.799,-3.8362,-3.9808,-4.0163,-4.0367,-4.1085,-4.183,-4.254,-4.3189,-4.3325,-4.3308,-4.324,-4.3944,-4.5021,-4.6447,-4.7378,-4.8409,-4.983,-4.9441,-4.9001,-4.9001,-4.9035,-4.9069,-4.9069,-4.9712,-5.0456,-5.1185,-5.1268,-5.1928,-5.3416,-5.3501,-5.3501,-5.3501,-5.3501,-5.3501,-5.3501,-5.3551,-5.3907,-5.4583,-5.4634,-5.5023,-5.5681,-5.575,-5.5784,-5.5784,-5.5818,-5.6224,-5.6885,-5.7397,-5.772,-5.8063,-5.9582,-5.9582,-5.8806,-5.9844,-5.9908,-5.9466,-5.9466,-5.8789,-5.7918,-5.7918,-5.7881,-5.7881,-5.7881,-5.7881,-5.7881,-5.7881,-5.7881,-5.7881,-5.7881,-5.7881,-5.7881,-5.7881,-5.9032,-6.0097,-6.0097,-6.1298,-6.2381,-6.2381,-6.2381,-6.2381,-6.2381,-6.2381,-6.1873,-6.0385,-5.9573,-5.8321,-5.6072,-5.5784,-5.5784,-5.5784,-5.6201,-5.6286,-5.5802,-5.6184,-5.6235,-5.5716,-5.5716,-5.5716,-5.5681,-5.5057,-5.504,-5.575,-5.5801,-5.6173,-5.6867,-5.7543,-5.7881,-5.7881,-5.7881,-5.7881,-3.8261,-3.9106,-3.9749,-4.0679,-4.0916,-4.1102,-4.1847,-4.2591,-4.3031,-4.2658,-4.2574,-4.2236,-4.1136,-4.2455,-4.4028,-4.4993,-4.6701,-4.821,-4.9154,-4.912,-4.9001,-4.9001,-4.9492,-4.9813,-4.9813,-5.049,-5.1234,-5.1961,-5.2029,-5.2452,-5.345,-5.3501,-5.3501,-5.3501,-5.3501,-5.3501,-5.3501,-5.4042,-5.4397,-5.46,-5.5158,-5.553,-5.5733,-5.6275,-5.6528,-5.6562,-5.7103,-5.7442,-5.7647,-5.7774,-5.784,-5.7954,-5.8351,-5.8597,-5.8737,-5.9012,-5.9012,-5.8909,-5.8909,-5.8737,-5.8439,-5.8027,-5.7881,-5.7881,-5.7881,-5.7881,-5.7881,-5.7881,-5.7881,-5.7881,-5.7881,-5.7881,-5.7881,-5.7881,-5.9032,-6.0097,-6.0097,-6.1298,-6.2381,-6.2381,-6.2381,-6.2381,-6.2381,-6.2381,-6.2076,-6.1146,-6.0842,-5.9708,-5.6884,-5.6528,-5.6528,-5.6528,-5.7109,-5.723,-5.6579,-5.7004,-5.6833,-5.5785,-5.6064,-5.6133,-5.5716,-5.6055,-5.6325,-5.6528,-5.7053,-5.7425,-5.7611,-5.7797,-5.7881,-5.7881,-5.7881,-5.7735,-3.9097,-3.9791,-4.0197,-4.0595,-4.0967,-4.1136,-4.0899,-4.1677,-4.2049,-4.0646,-4.0629,-4.0493,-3.9343,-4.1474,-4.3673,-4.4479,-4.6989,-4.9018,-4.9424,-4.9475,-4.9357,-4.9035,-4.9373,-4.9729,-5.005,-5.0777,-5.1522,-5.2249,-5.23,-5.2655,-5.3467,-5.3501,-5.3501,-5.3501,-5.3501,-5.3501,-5.3501,-5.4228,-5.4752,-5.5091,-5.5835,-5.6359,-5.6681,-5.7087,-5.7273,-5.7306,-5.7712,-5.7881,-5.7881,-5.7881,-5.7881,-5.7918,-5.8154,-5.8297,-5.8368,-5.8597,-5.8545,-5.8332,-5.8332,-5.8332,-5.8297,-5.7991,-5.7881,-5.7881,-5.7881,-5.7881,-5.7881,-5.7881,-5.7881,-5.7881,-5.7881,-5.7881,-5.7881,-5.7881,-5.9032,-6.0097,-6.0097,-6.1298,-6.2381,-6.2381,-6.2381,-6.2381,-6.2381,-6.2381,-6.2144,-6.1417,-6.1298,-6.0554,-5.8507,-5.7983,-5.7645,-5.7323,-5.7645,-5.7729,-5.7306,-5.7577,-5.7426,-5.6733,-5.6965,-5.6983,-5.6664,-5.6748,-5.6951,-5.7273,-5.7357,-5.7577,-5.7881,-5.7881,-5.7881,-5.7881,-5.7881,-5.7698,-3.9851,-4.018,-4.0146,-4.035,-4.0865,-4.0984,-3.9614,-4.0273,-4.0544,-3.8227,-3.8176,-3.8311,-3.7584,-4.0392,-4.3149,-4.4141,-4.7323,-4.9729,-4.9915,-4.9949,-4.9712,-4.9086,-4.9086,-4.9441,-5.0168,-5.0913,-5.1674,-5.2401,-5.2469,-5.2756,-5.3467,-5.3501,-5.3551,-5.3653,-5.3653,-5.3687,-5.3788,-5.4515,-5.5209,-5.5869,-5.6596,-5.7273,-5.7881,-5.7881,-5.7881,-5.7881,-5.7881,-5.7954,-5.7991,-5.7918,-5.7954,-5.8063,-5.8439,-5.8297,-5.7954,-5.8439,-5.8297,-5.7881,-5.7881,-5.7881,-5.7881,-5.7881,-5.7881,-5.7881,-5.7881,-5.7881,-5.7881,-5.7881,-5.7949,-5.8034,-5.8034,-5.8101,-5.8186,-5.8186,-5.9252,-6.0266,-6.0266,-6.1383,-6.2381,-6.2381,-6.2381,-6.2381,-6.2381,-6.2381,-6.2178,-6.1535,-6.145,-6.1163,-6.0368,-5.9624,-5.8863,-5.8118,-5.8034,-5.8,-5.7898,-5.7954,-5.7991,-5.7881,-5.7954,-5.7954,-5.7881,-5.7289,-5.7239,-5.7881,-5.7273,-5.7256,-5.7881,-5.7881,-5.7881,-5.7881,-5.7881,-5.7662,-4.0764,-4.0544,-4.04,-4.1619,-4.1999,-4.188,-4.1018,-4.1018,-4.0409,-3.7574,-3.6569,-3.5955,-3.5233,-3.7652,-4.0409,-4.2371,-4.5314,-4.78,-4.9018,-4.9187,-4.9137,-4.9018,-4.9543,-5.0202,-5.0947,-5.1691,-5.2452,-5.323,-5.3298,-5.3348,-5.3501,-5.3501,-5.3788,-5.438,-5.4397,-5.4702,-5.5327,-5.6055,-5.6478,-5.663,-5.7357,-5.7763,-5.7881,-5.7881,-5.7881,-5.7881,-5.7881,-5.8171,-5.8545,-5.8099,-5.8154,-5.8545,-5.8171,-5.7991,-5.7918,-5.7991,-5.7991,-5.7881,-5.7881,-5.7881,-5.7881,-5.7881,-5.7881,-5.7881,-5.7881,-5.7881,-5.7881,-5.7881,-5.8338,-5.8829,-5.8829,-5.9268,-5.9708,-5.9708,-6.0419,-6.1095,-6.1095,-6.1772,-6.2381,-6.2381,-6.2381,-6.2381,-6.2381,-6.2381,-6.2347,-6.2229,-6.2195,-6.1941,-6.1197,-6.0402,-5.9641,-5.8896,-5.8829,-5.8558,-5.7932,-5.8297,-5.8368,-5.7918,-5.8297,-5.8368,-5.7918,-5.7763,-5.7763,-5.7881,-5.7763,-5.7763,-5.7881,-5.7881,-5.7881,-5.7881,-5.7881,-5.7514,-4.0536,-4.0646,-4.0832,-4.1542,-4.2303,-4.2185,-3.9512,-3.9495,-3.887,-3.4747,-3.4184,-3.4353,-3.3998,-3.6705,-3.9597,-4.1424,-4.4908,-4.7631,-4.8342,-4.9086,-4.9424,-4.9052,-4.9644,-5.0388,-5.115,-5.1877,-5.2638,-5.345,-5.3501,-5.3501,-5.3501,-5.3856,-5.4228,-5.4583,-5.4972,-5.5344,-5.5681,-5.6444,-5.6799,-5.6816,-5.7543,-5.7881,-5.7881,-5.7881,-5.7881,-5.7881,-5.7881,-5.8063,-5.8261,-5.7991,-5.8063,-5.8261,-5.7991,-5.7881,-5.7881,-5.7881,-5.7881,-5.7881,-5.7881,-5.7881,-5.7881,-5.7881,-5.7881,-5.7881,-5.7881,-5.8169,-5.8473,-5.8473,-5.9015,-5.9573,-5.9573,-5.9844,-6.0097,-6.0097,-6.0706,-6.1417,-6.1789,-6.2144,-6.2381,-6.2381,-6.2381,-6.2381,-6.2381,-6.2381,-6.2381,-6.2381,-6.2381,-6.2262,-6.1924,-6.1535,-6.0842,-5.9708,-5.9235,-5.8879,-5.8507,-5.8356,-5.8154,-5.7918,-5.8135,-5.8171,-5.7918,-5.7881,-5.7881,-5.7881,-5.7881,-5.7881,-5.7881,-5.7881,-5.7881,-5.7881,-5.7881,-5.7476,-4.0299,-4.0747,-4.1288,-4.1593,-4.2557,-4.2337,-3.8217,-3.8065,-3.7364,-3.2442,-3.2222,-3.3034,-3.3355,-3.5943,-3.8717,-4.0865,-4.4434,-4.7145,-4.7804,-4.9035,-4.9644,-4.9069,-4.9779,-5.0557,-5.115,-5.2029,-5.2824,-5.345,-5.3501,-5.3501,-5.3501,-5.4194,-5.4668,-5.482,-5.5564,-5.6021,-5.619,-5.6748,-5.7036,-5.7036,-5.7611,-5.7881,-5.7881,-5.7881,-5.7881,-5.7881,-5.7881,-5.7954,-5.8063,-5.7954,-5.7954,-5.8063,-5.7954,-5.7881,-5.7881,-5.7881,-5.7881,-5.7881,-5.7881,-5.7881,-5.7915,-5.8068,-5.8135,-5.8135,-5.8135,-5.866,-5.9252,-5.9252,-5.9793,-6.0368,-6.0368,-6.0469,-6.0588,-6.0588,-6.1078,-6.1687,-6.2262,-6.2381,-6.2381,-6.2381,-6.2381,-6.2381,-6.2381,-6.2381,-6.2381,-6.2381,-6.2381,-6.2381,-6.2381,-6.2381,-6.1924,-6.0723,-5.9945,-5.9438,-5.9268,-5.8558,-5.8135,-5.8135,-5.7983,-5.7881,-5.7881,-5.7881,-5.7881,-5.7881,-5.7881,-5.7881,-5.7881,-5.7881,-5.7881,-5.7881,-5.7881,-5.7476,-4.0916,-4.1153,-4.1525,-4.2851,-4.3291,-4.2608,-3.9495,-3.8379,-3.6907,-3.3004,-3.1765,-3.1799,-3.3152,-3.4235,-3.6282,-4.051,-4.2665,-4.4761,-4.75,-4.8595,-4.9086,-4.9018,-5.0253,-5.115,-5.1185,-5.2536,-5.3416,-5.3501,-5.3501,-5.3501,-5.3501,-5.4194,-5.4905,-5.5598,-5.6325,-5.7019,-5.7679,-5.7763,-5.778,-5.7797,-5.7865,-5.7881,-5.7881,-5.7881,-5.7881,-5.7881,-5.7881,-5.8171,-5.858,-5.8099,-5.8207,-5.858,-5.8099,-5.7881,-5.7881,-5.7881,-5.7881,-5.7881,-5.7881,-5.7881,-5.8,-5.8693,-5.8913,-5.8913,-5.8913,-5.9421,-5.9996,-5.9996,-6.0571,-6.1197,-6.1197,-6.1687,-6.2178,-6.2178,-6.2229,-6.2313,-6.2381,-6.2381,-6.2381,-6.2381,-6.2381,-6.2381,-6.2381,-6.2381,-6.2381,-6.2381,-6.2381,-6.2381,-6.2381,-6.2381,-6.233,-6.2195,-6.1535,-6.0791,-6.0063,-5.9336,-5.8913,-5.8913,-5.8271,-5.7881,-5.7881,-5.7881,-5.7881,-5.7881,-5.7881,-5.7881,-5.7881,-5.7881,-5.7881,-5.7881,-5.7881,-5.7476,-4.035,-4.1187,-4.1999,-4.2591,-4.3081,-4.2642,-3.9665,-3.8075,-3.6304,-3.2987,-3.1718,-3.1647,-3.3136,-3.3998,-3.5673,-3.9292,-4.1119,-4.2828,-4.488,-4.6244,-4.7344,-4.824,-4.9644,-5.0896,-5.1792,-5.2858,-5.3501,-5.3501,-5.3501,-5.3687,-5.4143,-5.4871,-5.5615,-5.6342,-5.707,-5.7594,-5.7881,-5.7881,-5.7881,-5.7881,-5.7881,-5.7881,-5.7881,-5.7881,-5.7881,-5.7881,-5.7881,-5.819,-5.865,-5.8135,-5.8243,-5.865,-5.8099,-5.7881,-5.7881,-5.7881,-5.7881,-5.7949,-5.8406,-5.8558,-5.8676,-5.9421,-5.9996,-6.03,-5.981,-6.0216,-6.0825,-6.0825,-6.1366,-6.1958,-6.1958,-6.2178,-6.2381,-6.2381,-6.2381,-6.2381,-6.2381,-6.2381,-6.2381,-6.2381,-6.2381,-6.2381,-6.2381,-6.2381,-6.2381,-6.2381,-6.2381,-6.2381,-6.2381,-6.2381,-6.2381,-6.2381,-6.1738,-6.118,-6.0858,-6.0114,-5.9674,-5.9674,-5.8981,-5.8558,-5.8558,-5.8135,-5.7881,-5.7881,-5.8338,-5.8558,-5.8558,-5.8998,-5.8998,-5.8558,-5.8558,-5.7913,-4.0434,-4.166,-4.2675,-4.2912,-4.32,-4.2642,-3.9665,-3.7879,-3.5949,-3.2919,-3.1718,-3.1647,-3.3136,-3.3829,-3.5233,-3.8464,-4.0037,-4.1542,-4.3487,-4.4891,-4.6177,-4.7445,-4.868,-5.0033,-5.1505,-5.2773,-5.3501,-5.3501,-5.3501,-5.3923,-5.4871,-5.5429,-5.6055,-5.6782,-5.7509,-5.7881,-5.7881,-5.7881,-5.7881,-5.7881,-5.7881,-5.7881,-5.7881,-5.7881,-5.7881,-5.7881,-5.7881,-5.819,-5.865,-5.8135,-5.8243,-5.865,-5.8099,-5.7881,-5.7881,-5.7881,-5.8034,-5.8287,-5.8829,-5.915,-5.9455,-6.0216,-6.0842,-6.1231,-6.0892,-6.118,-6.1637,-6.1637,-6.1992,-6.2381,-6.2381,-6.2381,-6.2381,-6.2381,-6.2381,-6.2381,-6.2381,-6.2381,-6.2381,-6.2381,-6.2381,-6.2381,-6.2381,-6.2381,-6.2381,-6.2381,-6.2381,-6.2381,-6.2381,-6.2381,-6.2381,-6.2381,-6.1941,-6.1637,-6.1637,-6.0909,-6.0452,-6.0452,-5.9742,-5.9336,-5.9336,-5.8626,-5.822,-5.822,-5.8744,-5.9015,-5.9015,-5.9522,-5.9522,-5.9015,-5.9015,-5.8396,-4.1677,-4.2828,-4.3589,-4.4395,-4.3978,-4.2642,-3.9665,-3.7879,-3.5949,-3.2919,-3.1718,-3.1647,-3.3136,-3.3406,-3.4641,-3.8379,-3.9639,-4.1162,-4.4175,-4.5229,-4.5974,-4.6718,-4.7479,-4.8511,-4.9965,-5.2164,-5.3501,-5.3501,-5.3501,-5.4143,-5.5597,-5.5681,-5.6055,-5.6782,-5.7509,-5.7881,-5.7881,-5.7881,-5.7881,-5.7881,-5.7881,-5.7881,-5.7881,-5.7881,-5.7881,-5.7881,-5.7881,-5.819,-5.865,-5.8135,-5.8243,-5.865,-5.8099,-5.7881,-5.7881,-5.7881,-5.8355,-5.8998,-5.9015,-5.9488,-6.0216,-6.1028,-6.1298,-6.1434,-6.2144,-6.2364,-6.2381,-6.2381,-6.2381,-6.2381,-6.2381,-6.2381,-6.2381,-6.2381,-6.2381,-6.2381,-6.2381,-6.2381,-6.2381,-6.2381,-6.2381,-6.2381,-6.2381,-6.2381,-6.2381,-6.2381,-6.2381,-6.2381,-6.2381,-6.2381,-6.2381,-6.2381,-6.2381,-6.2381,-6.2381,-6.1704,-6.1298,-6.1298,-6.0537,-6.008,-6.008,-5.9387,-5.8998,-5.8998,-5.9015,-5.9015,-5.9015,-5.9015,-5.9015,-5.9015,-5.9015,-5.895,-3.8971,-4.0189,-4.1068,-4.0815,-4.0578,-4.002,-3.8582,-3.7077,-3.5571,-3.41,-3.322,-3.3,-3.3964,-3.415,-3.5216,-3.8464,-3.9191,-4.0206,-4.2685,-4.457,-4.6177,-4.7411,-5.0033,-5.1911,-5.2384,-5.3078,-5.3501,-5.3501,-5.3501,-5.4143,-5.5632,-5.5681,-5.6275,-5.7509,-5.7763,-5.7881,-5.7881,-5.7881,-5.7881,-5.7881,-5.7881,-5.7881,-5.7881,-5.7881,-5.7881,-5.7881,-5.7881,-5.8422,-5.9165,-5.8261,-5.8422,-5.9165,-5.8261,-5.7881,-5.7949,-5.8473,-5.8812,-5.9167,-6.0216,-6.0723,-6.1044,-6.1806,-6.2042,-6.2093,-6.2313,-6.2381,-6.2381,-6.2381,-6.2381,-6.2381,-6.2381,-6.2381,-6.2381,-6.2381,-6.2381,-6.2381,-6.2381,-6.2381,-6.2381,-6.2381,-6.2381,-6.2381,-6.2381,-6.2381,-6.2381,-6.2381,-6.2381,-6.2381,-6.2381,-6.2381,-6.2381,-6.2381,-6.2381,-6.2381,-6.2381,-6.2178,-6.2042,-6.2042,-6.1332,-6.0926,-6.0926,-6.0182,-5.9759,-5.9759,-6.03,-6.0571,-6.0571,-6.0571,-6.0148,-5.9319,-5.9048,-5.8731,-3.7466,-3.8971,-3.9994,-3.9537,-3.9191,-3.8802,-3.8075,-3.6698,-3.538,-3.4641,-3.3914,-3.3626,-3.4353,-3.4489,-3.5323,-3.7753,-3.8396,-3.9445,-4.1948,-4.4012,-4.6041,-4.8088,-5.0879,-5.2638,-5.2638,-5.3162,-5.3501,-5.3501,-5.3501,-5.4143,-5.5632,-5.5681,-5.6393,-5.7831,-5.7881,-5.7881,-5.7881,-5.7881,-5.7881,-5.7881,-5.7881,-5.7881,-5.7881,-5.7881,-5.7881,-5.7881,-5.7881,-5.8386,0.0,-5.8261,-5.8422,-5.9097,-5.8226,-5.8068,-5.8372,-5.8846,-5.9387,-6.0013,-6.0977,-6.1484,-6.1789,-6.2245,-6.2381,-6.2381,-6.2381,-6.2381,-6.2381,-6.2381,-6.2381,-6.2381,-6.2381,-6.2381,-6.2381,-6.2381,-6.2381,-6.2381,-6.2381,-6.2381,-6.2381,-6.2381,-6.2381,-6.2381,-6.2381,-6.2381,-6.2381,-6.2381,-6.2381,-6.2381,-6.2381,-6.2381,-6.2381,-6.2381,-6.2381,-6.2381,-6.2381,-6.2381,-6.2381,-6.2381,-6.1958,-6.1721,-6.1721,-6.0977,-6.0554,-6.0554,-6.1044,-6.1298,-6.1298,-6.084,-6.0241,-5.9477,-5.8923,-5.8758,0.0,-3.8616,-3.9774,-3.9706,-3.9249,-3.8582,-3.7889,-3.6614,0.0,-3.4726,-3.4032,-3.3812,-3.459,-3.4692,-3.5182,-3.6846,-3.7686,-3.9157,-4.2085,-4.3965,-4.6116,-4.8984,-5.0541,-5.1369,-5.1369,-5.2672,-5.3501,-5.3501,-5.3551,-5.4211,-5.5632,-5.5732,-5.6444,-5.7848,-5.7881,-5.7881,-5.7881,-5.7881,-5.7881,-5.7881,-5.7881,-5.7881,-5.7881,-5.7881,-5.7881,-5.7881,-5.7954,-5.8226,-5.8667,-5.8154,-5.8261,-5.865,-5.815,-5.8406,-5.9032,-5.9133,-6.008,-6.1315,-6.1366,-6.1823,-6.2381,-6.2381,-6.2381,-6.2381,-6.2381,-6.2381,-6.2381,-6.2381,-6.2381,-6.2381,-6.2381,-6.2381,-6.2381,-6.2381,-6.2381,-6.2381,-6.2381,-6.2381,-6.2381,-6.2381,-6.2381,-6.2381,-6.2381,-6.2381,-6.2381,-6.2381,-6.2381,-6.2381,-6.2381,-6.2381,-6.2381,-6.2381,-6.2381,-6.2381,-6.2381,-6.2381,-6.2381,-6.2381,-6.2381,-6.2381,-6.2381,-6.1738,-6.1383,-6.1383,-6.1383,-6.1315,-6.1214,-6.0119,-5.9533,-5.9438,-5.8617,-5.9034,-3.3427,0.0,-3.6518,-3.5943,-3.6113,-3.6343,0.0,-3.5853,-3.5549,-3.538,-3.5194,-3.5498,-3.6857,-3.6637,-3.7134,-3.9732,-4.0307,-4.1384,-4.4135,-4.7284,-5.011,-5.2197,-5.2756,-5.2959,-5.2959,-5.3298,-5.3501,-5.3501,-5.4025,-5.4735,-5.5666,-5.6241,-5.6968,-5.7865,-5.7881,-5.7881,-5.7881,-5.7881,-5.7881,-5.7881,-5.7881,-5.7881,-5.7881,-5.7881,-5.7881,-5.7918,-5.8332,-5.858,-5.8684,-5.858,-5.858,-5.8701,-5.8727,-5.8863,-5.915,-6.0334,-6.0994,-6.1383,-6.1941,-6.2245,-6.2381,-6.2381,-6.2381,-6.2381,-6.2381,-6.2381,-6.2381,-6.2381,-6.2381,-6.2381,-6.2381,-6.2381,-6.2381,-6.2381,-6.2381,-6.2381,-6.2381,-6.2381,-6.2381,-6.2381,-6.2381,-6.2381,-6.2381,-6.2381,-6.2381,-6.2381,-6.2381,-6.2381,-6.2381,-6.2381,-6.2381,-6.2381,-6.2381,-6.2381,-6.2381,-6.2381,-6.2381,-6.2381,-6.2381,-6.2381,-6.2381,-6.2229,-6.2127,-6.2127,-6.2127,-6.1552,-6.0385,-6.0332,-5.9854,-5.8963,-5.9037,-5.9357,-3.1802,-3.3914,-3.6045,-3.5639,-3.6113,-3.6648,-3.6648,-3.6107,-3.56,-3.56,-3.56,-3.5955,-3.7178,-3.7889,-3.8836,-4.0443,-4.1863,-4.3831,-4.6859,-4.9411,-5.1685,-5.3595,-5.3618,-5.3501,-5.3501,-5.3501,-5.3501,-5.3501,-5.4177,-5.4921,-5.5683,-5.641,-5.7137,-5.7865,-5.7881,-5.7881,-5.7881,-5.7881,-5.7881,-5.7881,-5.7881,-5.7881,-5.7881,-5.7881,-5.7881,-5.7918,-5.8474,-5.858,-5.8368,-5.8615,-5.8527,-5.8382,-5.8821,-5.9218,-5.9658,-6.0858,-6.1518,-6.1856,-6.2245,-6.2381,-6.2381,-6.2381,-6.2381,-6.2381,-6.2381,-6.2381,-6.2381,-6.2381,-6.2381,-6.2381,-6.2381,-6.2381,-6.2381,-6.2381,-6.2381,-6.2381,-6.2381,-6.2381,-6.2381,-6.2381,-6.2381,-6.2381,-6.2381,-6.2381,-6.2381,-6.2381,-6.2381,-6.2381,-6.2381,-6.2381,-6.2381,-6.2381,-6.2381,-6.2381,-6.2381,-6.2381,-6.2381,-6.2381,-6.2381,-6.2381,-6.2381,-6.2381,-6.2381,-6.2381,-6.2381,-6.1823,-6.0655,-6.0443,-5.9987,-5.9282,-5.8772,-5.8775,-3.1613,-3.4375,-3.6998,-3.6423,-3.7094,-3.7872,-3.777,-3.6721,-3.5802,-3.5921,-3.5955,-3.6315,-3.7438,-3.9089,-4.0417,-4.0874,-4.3366,-4.6283,-4.9333,-5.0768,-5.2153,-5.3873,-5.3734,-5.3501,-5.3501,-5.3501,-5.3551,-5.367,-5.4346,-5.5091,-5.5852,-5.6579,-5.7256,-5.7865,-5.7881,-5.7881,-5.7881,-5.7881,-5.7881,-5.7881,-5.7881,-5.7881,-5.7881,-5.7881,-5.7881,-5.7918,-5.8474,-5.8403,-5.7954,-5.8474,-5.8436,-5.8135,-5.8879,-5.9624,-6.0385,-6.118,-6.1856,-6.2381,-6.2381,-6.2381,-6.2381,-6.2381,-6.2381,-6.2381,-6.2381,-6.2381,-6.2381,-6.2381,-6.2381,-6.2381,-6.2381,-6.2381,-6.2381,-6.2381,-6.2381,-6.2381,-6.2381,-6.2381,-6.2381,-6.2381,-6.2381,-6.2381,-6.2381,-6.2381,-6.2381,-6.2381,-6.2381,-6.2381,-6.2381,-6.2381,-6.2381,-6.2381,-6.2381,-6.2381,-6.2381,-6.2381,-6.2381,-6.2381,-6.2381,-6.2381,-6.2381,-6.2381,-6.2381,-6.2381,-6.2381,-6.2026,-6.1298,-6.0421,-5.9943,-5.9886,-5.8423,-5.8113,-3.3474,-3.6265,-3.7889,-3.4726,-3.5943,-3.7736,-3.7094,-3.6795,-3.6789,-3.7432,-3.7567,-3.8345,-4.0967,-4.1221,-4.188,-4.4434,-4.6607,-4.8458,-4.9865,-5.1597,-5.294,-5.355,-5.3534,-5.3501,-5.3501,-5.3501,-5.3754,-5.438,-5.5108,-5.5869,-5.6596,-5.7323,-5.7763,-5.7881,-5.7881,-5.7881,-5.7881,-5.7881,-5.7881,-5.7881,-5.7881,-5.7881,-5.7881,-5.7881,-5.7881,-5.7918,-5.8474,-5.8403,-5.7954,-5.8474,-5.8743,-5.8913,-5.9641,-6.0419,-6.1214,-6.1958,-6.2296,-6.2381,-6.2381,-6.2381,-6.2381,-6.2381,-6.2381,-6.2381,-6.2381,-6.2381,-6.2381,-6.2381,-6.2381,-6.2381,-6.2381,-6.2381,-6.2381,-6.2381,-6.2381,-6.2381,-6.2381,-6.2381,-6.2381,-6.2381,-6.2381,-6.2381,-6.2381,-6.2381,-6.2381,-6.2381,-6.2381,-6.2381,-6.2381,-6.2381,-6.2381,-6.2381,-6.2381,-6.2381,-6.2381,-6.2381,-6.2381,-6.2381,-6.2381,-6.2381,-6.2381,-6.2381,-6.2381,-6.2381,-6.2381,-6.2026,-6.1298,-6.0421,-5.9943,-5.9886,-5.8887,-5.8858,-3.2425,-3.4895,-3.6857,-3.5554,-3.8396,-4.1424,-4.1094,-4.0383,-3.9851,-4.0206,-4.0273,-4.095,-4.3159,-4.4231,-4.5805,-4.8781,-4.9678,-5.0424,-5.1546,-5.2247,-5.2931,-5.378,-5.3651,-5.3501,-5.3501,-5.3501,-5.3805,-5.4532,-5.5294,-5.6038,-5.6765,-5.7492,-5.7881,-5.7881,-5.7881,-5.7881,-5.7881,-5.7881,-5.7881,-5.7881,-5.7881,-5.7881,-5.7881,-5.7881,-5.7881,-5.7918,-5.8474,-5.8403,-5.7988,-5.8901,-5.9187,-5.9133,-6.03,-6.0977,-6.14,-6.2127,-6.2381,-6.2381,-6.2381,-6.2381,-6.2381,-6.2381,-6.2381,-6.2381,-6.2381,-6.2381,-6.2381,-6.2381,-6.2381,-6.2381,-6.2381,-6.2381,-6.2381,-6.2381,-6.2381,-6.2381,-6.2381,-6.2381,-6.2381,-6.2381,-6.2381,-6.2381,-6.2381,-6.2381,-6.2381,-6.2381,-6.2381,-6.2381,-6.2381,-6.2381,-6.2381,-6.2381,-6.2381,-6.2381,-6.2381,-6.2381,-6.2381,-6.2381,-6.2381,-6.2381,-6.2381,-6.2381,-6.2381,-6.2381,-6.2381,-6.2229,-6.189,-6.0989,-6.0506,-6.0448,-5.918,-5.8766,-3.2307,-3.4167,-3.6197,-3.7483,-4.0587,-4.3481,-4.4147,-4.3132,-4.2185,-4.2709,-4.2855,-4.3328,-4.4835,-4.6921,-4.9154,-5.142,-5.1606,-5.1804,-5.2782,-5.2731,-5.2956,-5.391,-5.3734,-5.3501,-5.3501,-5.3501,-5.3805,-5.4532,-5.5294,-5.6038,-5.6765,-5.7492,-5.7881,-5.7881,-5.7881,-5.7881,-5.7881,-5.7881,-5.7881,-5.7881,-5.7881,-5.7881,-5.7881,-5.7881,-5.7881,-5.7918,-5.8332,-5.8261,-5.7986,-5.9134,-5.947,-5.9404,-6.0774,-6.1417,-6.1637,-6.2178,-6.2381,-6.2381,-6.2381,-6.2381,-6.2381,-6.2381,-6.2381,-6.2381,-6.2381,-6.2381,-6.2381,-6.2381,-6.2381,-6.2381,-6.2381,-6.2381,-6.2381,-6.2381,-6.2381,-6.2381,-6.2381,-6.2381,-6.2381,-6.2381,-6.2381,-6.2381,-6.2381,-6.2381,-6.2381,-6.2381,-6.2381,-6.2381,-6.2381,-6.2381,-6.2381,-6.2381,-6.2381,-6.2381,-6.2381,-6.2381,-6.2381,-6.2381,-6.2381,-6.2381,-6.2381,-6.2381,-6.2381,-6.2381,-6.2381,-6.2358,-6.2223,-6.1391,-6.0961,-6.0836,-5.9506,-5.8847,-3.5644,-3.6558,-3.7388,-4.0189,-4.0138,-4.0121,-4.2878,-4.2354,-4.188,-4.4005,-4.4445,-4.4902,-4.6363,-4.8443,-4.9999,-5.0202,-5.1352,-5.2232,-5.2349,-5.2976,-5.345,-5.3517,-5.3534,-5.3501,-5.3501,-5.3501,-5.3805,-5.4532,-5.5294,-5.6038,-5.6765,-5.7492,-5.7881,-5.7881,-5.7881,-5.7881,-5.7881,-5.7881,-5.7881,-5.7881,-5.7881,-5.7881,-5.7881,-5.7881,-5.7881,-5.7881,-5.7954,-5.7918,-5.7949,-5.873,-5.9441,-6.0114,-6.0977,-6.1721,-6.2313,-6.2364,-6.2381,-6.2381,-6.2381,-6.2381,-6.2381,-6.2381,-6.2381,-6.2381,-6.2381,-6.2381,-6.2381,-6.2381,-6.2381,-6.2381,-6.2381,-6.2381,-6.2381,-6.2381,-6.2381,-6.2381,-6.2381,-6.2381,-6.2381,-6.2381,-6.2381,-6.2381,-6.2381,-6.2381,-6.2381,-6.2381,-6.2381,-6.2381,-6.2381,-6.2381,-6.2381,-6.2381,-6.2381,-6.2381,-6.2381,-6.2381,-6.2381,-6.2381,-6.2381,-6.2381,-6.2381,-6.2381,-6.2381,-6.2381,-6.2381,-6.2183,-6.175,-6.1268,-6.0811,-6.042,-5.987,-5.9636,-3.358,-3.5374,-3.7303,-3.9309,-4.0798,-4.2286,-4.4367,-4.5128,-4.5872,-4.7648,-4.8003,-4.8325,-4.9357,-5.0997,-5.2046,-5.1555,-5.2367,-5.3061,-5.3061,-5.3315,-5.3501,-5.3501,-5.3501,-5.3501,-5.3501,-5.3501,-5.4008,-5.5192,-5.5547,-5.6224,-5.7408,-5.7746,-5.7881,-5.7881,-5.7881,-5.7881,-5.7881,-5.7881,-5.7881,-5.7881,-5.7881,-5.7881,-5.7881,-5.7881,-5.7881,-5.7881,-5.7881,-5.8152,-5.8643,-5.9387,-6.0148,-6.0926,-6.1687,-6.2144,-6.2381,-6.2381,-6.2381,-6.2381,-6.2381,-6.2381,-6.2381,-6.2381,-6.2381,-6.2381,-6.2381,-6.2381,-6.2381,-6.2381,-6.2381,-6.2381,-6.2381,-6.2381,-6.2381,-6.2381,-6.2381,-6.2381,-6.2381,-6.2381,-6.2381,-6.2381,-6.2381,-6.2381,-6.2381,-6.2381,-6.2381,-6.2381,-6.2381,-6.2381,-6.2381,-6.2381,-6.2381,-6.2381,-6.2381,-6.2381,-6.2381,-6.2381,-6.2381,-6.2381,-6.2381,-6.2381,-6.2381,-6.2381,-6.2381,-6.2381,-6.2381,-6.2183,-6.1709,-6.121,-6.0811,-6.0394,-5.9935,-5.9716,-3.3884,-3.5763,-3.7912,-3.9614,-4.1559,-4.3538,-4.5314,-4.6667,-4.8054,-4.9746,-5.0084,-5.0321,-5.1065,-5.208,-5.2672,-5.235,-5.2976,-5.3501,-5.3501,-5.3501,-5.3501,-5.3501,-5.3501,-5.3501,-5.3501,-5.3501,-5.4025,-5.526,-5.5581,-5.6258,-5.7476,-5.7763,-5.7881,-5.7881,-5.7881,-5.7881,-5.7881,-5.7881,-5.7881,-5.7881,-5.7881,-5.7881,-5.7881,-5.7881,-5.7881,-5.7881,-5.7881,-5.8321,-5.9066,-5.981,-6.0706,-6.1704,-6.2195,-6.2381,-6.2381,-6.2381,-6.2381,-6.2381,-6.2381,-6.2381,-6.2381,-6.2381,-6.2381,-6.2381,-6.2381,-6.2381,-6.2381,-6.2381,-6.2381,-6.2381,-6.2381,-6.2381,-6.2381,-6.2381,-6.2381,-6.2381,-6.2381,-6.2381,-6.2381,-6.2381,-6.2381,-6.2381,-6.2381,-6.2381,-6.2381,-6.2381,-6.2381,-6.2381,-6.2381,-6.2381,-6.2381,-6.2381,-6.2381,-6.2381,-6.2381,-6.2381,-6.2381,-6.2381,-6.2381,-6.2381,-6.2381,-6.2381,-6.2381,-6.2381,-6.2263,-6.1967,-6.1489,-6.102,-6.0616,-6.0179,-5.9832,-5.9716,-3.7669,-3.8413,-3.9529,-4.1728,-4.2303,-4.2946,-4.5213,-4.6295,-4.7445,-4.9644,-5.0118,-5.0338,-5.1099,-5.1202,-5.1471,-5.2181,-5.2976,-5.3501,-5.3501,-5.3501,-5.3501,-5.3501,-5.3501,-5.3501,-5.3501,-5.3501,-5.3805,-5.4549,-5.5294,-5.6038,-5.6765,-5.7492,-5.7881,-5.7881,-5.7881,-5.7881,-5.7881,-5.7881,-5.7881,-5.7881,-5.7881,-5.7881,-5.7881,-5.7881,-5.7881,-5.7881,-5.7898,-5.8321,-5.9082,-5.981,-6.1011,-6.2381,-6.2381,-6.2381,-6.2381,-6.2381,-6.2381,-6.2381,-6.2381,-6.2381,-6.2381,-6.2381,-6.2381,-6.2381,-6.2381,-6.2381,-6.2381,-6.2381,-6.2381,-6.2381,-6.2381,-6.2381,-6.2381,-6.2381,-6.2381,-6.2381,-6.2381,-6.2381,-6.2381,-6.2381,-6.2381,-6.2381,-6.2381,-6.2381,-6.2381,-6.2381,-6.2381,-6.2381,-6.2381,-6.2381,-6.2381,-6.2381,-6.2381,-6.2381,-6.2381,-6.2381,-6.2381,-6.2381,-6.2381,-6.2381,-6.2381,-6.2381,-6.2381,-6.2381,-6.1927,-6.1489,-6.0986,-6.0574,-6.0179,-5.9716,-5.9716,-5.9716,-3.4539,-3.7212,-3.9935,-4.0595,-4.391,-4.7056,-4.7225,-4.7834,-4.8984,-5.1183,-5.2097,-5.2384,-5.2046,-5.2452,-5.2706,-5.2367,-5.2976,-5.3501,-5.3501,-5.3501,-5.3501,-5.3501,-5.3501,-5.3501,-5.3501,-5.3501,-5.4025,-5.5294,-5.5598,-5.6258,-5.7509,-5.7763,-5.7881,-5.7881,-5.7881,-5.7881,-5.7881,-5.7881,-5.7881,-5.7881,-5.7881,-5.7881,-5.7881,-5.7881,-5.7881,-5.7915,-5.8457,-5.9099,-5.9877,-6.118,-6.1975,-6.2381,-6.2381,-6.2381,-6.2381,-6.2381,-6.2381,-6.2381,-6.2381,-6.2381,-6.2381,-6.2381,-6.2381,-6.2381,-6.2381,-6.2381,-6.2381,-6.2381,-6.2381,-6.2381,-6.2381,-6.2381,-6.2381,-6.2381,-6.2381,-6.2381,-6.2381,-6.2381,-6.2381,-6.2381,-6.2381,-6.2381,-6.2381,-6.2381,-6.2381,-6.2381,-6.2381,-6.2381,-6.2381,-6.2381,-6.2381,-6.2381,-6.2381,-6.2381,-6.2381,-6.2381,-6.2381,-6.2381,-6.2381,-6.2381,-6.2381,-6.2381,-6.2263,-6.1911,-6.175,-6.1342,-6.0574,-6.0463,-6.0179,-5.9716,-5.9716,-5.9716,-3.6941,-4.002,-4.2912,-4.3504,-4.5906,-4.8325,-4.9069,-4.956,-5.0355,-5.1961,-5.2689,-5.2976,-5.2807,-5.2909,-5.2976,-5.2807,-5.3179,-5.3501,-5.3501,-5.3501,-5.3501,-5.3501,-5.3501,-5.3501,-5.3501,-5.3501,-5.4126,-5.5598,-5.5681,-5.6342,-5.7814,-5.7881,-5.7881,-5.7881,-5.7881,-5.7881,-5.7881,-5.7881,-5.7881,-5.7881,-5.7881,-5.7881,-5.7881,-5.7881,-5.7881,-5.7949,-5.8998,-5.9877,-6.0672,-6.189,-6.2381,-6.2381,-6.2381,-6.2381,-6.2381,-6.2381,-6.2381,-6.2381,-6.2381,-6.2381,-6.2381,-6.2381,-6.2381,-6.2381,-6.2381,-6.2381,-6.2381,-6.2381,-6.2381,-6.2381,-6.2381,-6.2381,-6.2381,-6.2381,-6.2381,-6.2381,-6.2381,-6.2381,-6.2381,-6.2381,-6.2381,-6.2381,-6.2381,-6.2381,-6.2381,-6.2381,-6.2381,-6.2381,-6.2381,-6.2381,-6.2381,-6.2381,-6.2381,-6.2381,-6.2381,-6.2381,-6.2381,-6.2381,-6.2381,-6.2381,-6.2381,-6.2381,-6.2263,-6.1967,-6.163,-6.1161,-6.0659,-6.0292,-5.9979,-5.9716,-5.9716,-5.9716,-4.204,-4.4654,-4.6938,-4.8359,-4.7885,-4.7817,-5.0591,-5.1236,-5.1522,-5.2266,-5.2418,-5.2638,-5.3365,-5.2909,-5.2655,-5.3382,-5.3501,-5.3501,-5.3501,-5.3501,-5.3501,-5.3501,-5.3501,-5.3501,-5.3501,-5.3501,-5.4126,-5.5598,-5.5681,-5.6342,-5.7814,-5.7881,-5.7881,-5.7881,-5.7881,-5.7881,-5.7881,-5.7881,-5.7881,-5.7881,-5.7881,-5.7881,-5.7881,-5.7881,-5.7949,-5.8169,-5.9522,-6.0588,-6.145,-6.211,-6.2381,-6.2381,-6.2381,-6.2381,-6.2381,-6.2381,-6.2381,-6.2381,-6.2381,-6.2381,-6.2381,-6.2381,-6.2381,-6.2381,-6.2381,-6.2381,-6.2381,-6.2381,-6.2381,-6.2381,-6.2381,-6.2381,-6.2381,-6.2381,-6.2381,-6.2381,-6.2381,-6.2381,-6.2381,-6.2381,-6.2381,-6.2381,-6.2381,-6.2381,-6.2381,-6.2381,-6.2381,-6.2381,-6.2381,-6.2381,-6.2381,-6.2381,-6.2381,-6.2381,-6.2381,-6.2381,-6.2381,-6.2381,-6.2381,-6.2381,-6.2381,-6.2381,-6.2381,-6.2347,-6.1451,-6.0992,-6.0953,-6.0093,-5.9716,-5.9716,-5.9716,-5.9716,-3.7848,-4.1585,-4.5309,-4.6194,-4.7902,-4.9712,-5.093,-5.1657,-5.23,-5.3078,-5.3247,-5.3298,-5.3467,-5.3365,-5.3298,-5.3467,-5.3501,-5.3501,-5.3501,-5.3501,-5.3501,-5.3501,-5.3501,-5.3501,-5.3501,-5.3501,-5.4126,-5.5598,-5.5681,-5.6342,-5.7814,-5.7881,-5.7881,-5.7881,-5.7881,-5.7881,-5.7881,-5.7881,-5.7881,-5.7881,-5.7881,-5.7881,-5.7881,-5.7881,-5.8524,-5.9641,-5.9962,-6.0875,-6.2178,-6.2313,-6.2381,-6.2381,-6.2381,-6.2381,-6.2381,-6.2381,-6.2381,-6.2381,-6.2381,-6.2381,-6.2381,-6.2381,-6.2381,-6.2381,-6.2381,-6.2381,-6.2381,-6.2381,-6.2381,-6.2381,-6.2381,-6.2381,-6.2381,-6.2381,-6.2381,-6.2381,-6.2381,-6.2381,-6.2381,-6.2381,-6.2381,-6.2381,-6.2381,-6.2381,-6.2381,-6.2381,-6.2381,-6.2381,-6.2381,-6.2381,-6.2381,-6.2381,-6.2381,-6.2381,-6.2381,-6.2381,-6.2381,-6.2381,-6.2381,-6.2381,-6.2381,-6.2381,-6.2223,-6.1874,-6.1303,-6.0853,-6.0511,-5.9962,-5.9716,-5.9716,-5.9716,-5.9716,-3.8507,-4.1974,-4.5038,-4.6836,-4.8697,-5.0287,-5.1048,-5.1775,-5.2536,-5.3331,-5.3501,-5.3501,-5.3501,-5.3501,-5.3501,-5.3501,-5.3501,-5.3501,-5.3501,-5.3501,-5.3501,-5.3501,-5.3501,-5.3501,-5.3501,-5.3501,-5.4126,-5.5598,-5.5681,-5.6342,-5.7814,-5.7881,-5.7881,-5.7881,-5.7881,-5.7881,-5.7881,-5.7881,-5.7881,-5.7881,-5.7881,-5.7881,-5.7881,-5.7881,-5.8693,-6.0097,-6.0097,-6.096,-6.2381,-6.2381,-6.2381,-6.2381,-6.2381,-6.2381,-6.2381,-6.2381,-6.2381,-6.2381,-6.2381,-6.2381,-6.2381,-6.2381,-6.2381,-6.2381,-6.2381,-6.2381,-6.2381,-6.2381,-6.2381,-6.2381,-6.2381,-6.2381,-6.2381,-6.2381,-6.2381,-6.2381,-6.2381,-6.2381,-6.2381,-6.2381,-6.2381,-6.2381,-6.2381,-6.2381,-6.2381,-6.2381,-6.2381,-6.2381,-6.2381,-6.2381,-6.2381,-6.2381,-6.2381,-6.2381,-6.2381,-6.2381,-6.2381,-6.2381,-6.2381,-6.2381,-6.2381,-6.2381,-6.2296,-6.2032,-6.1333,-6.0878,-6.0709,-6.0044,-5.9716,-5.9716,-5.9716,-5.9716,-3.9377,-4.2523,-4.5111,-4.824,-4.9543,-5.0287,-5.1048,-5.1775,-5.2536,-5.3331,-5.3501,-5.3501,-5.3501,-5.3501,-5.3501,-5.3501,-5.3501,-5.3501,-5.3501,-5.3501,-5.3501,-5.3501,-5.3501,-5.3501,-5.3501,-5.3501,-5.4126,-5.5598,-5.5681,-5.6342,-5.7814,-5.7881,-5.7881,-5.7881,-5.7881,-5.7881,-5.7881,-5.7881,-5.7881,-5.7881,-5.7881,-5.7881,-5.7881,-5.8017,-5.8829,-6.0097,-6.0097,-6.096,-6.2381,-6.2381,-6.2381,-6.2381,-6.2381,-6.2381,-6.2381,-6.2381,-6.2381,-6.2381,-6.2381,-6.2381,-6.2381,-6.2381,-6.2381,-6.2381,-6.2381,-6.2381,-6.2381,-6.2381,-6.2381,-6.2381,-6.2381,-6.2381,-6.2381,-6.2381,-6.2381,-6.2381,-6.2381,-6.2381,-6.2381,-6.2381,-6.2381,-6.2381,-6.2381,-6.2381,-6.2381,-6.2381,-6.2381,-6.2381,-6.2381,-6.2381,-6.2381,-6.2381,-6.2381,-6.2381,-6.2381,-6.2381,-6.2381,-6.2381,-6.2381,-6.2381,-6.2381,-6.2381,-6.2381,-6.2381,-6.147,-6.0993,-6.1001,-6.0125,-5.9716,-5.9716,-5.9716,-5.9716,-3.4158,-3.8988,-4.4451,-4.8105,-4.9543,-5.0287,-5.1048,-5.1775,-5.2536,-5.3331,-5.3501,-5.3501,-5.3501,-5.3501,-5.3501,-5.3501,-5.3501,-5.3501,-5.3501,-5.3501,-5.3501,-5.3501,-5.3501,-5.3501,-5.3501,-5.3501,-5.4126,-5.5598,-5.5681,-5.6342,-5.7814,-5.7881,-5.7881,-5.7881,-5.7881,-5.7881,-5.7881,-5.7881,-5.7881,-5.7881,-5.7881,-5.7881,-5.7898,-5.8558,-5.9319,-6.0097,-6.0097,-6.096,-6.2381,-6.2381,-6.2381,-6.2381,-6.2381,-6.2381,-6.2381,-6.2381,-6.2381,-6.2381,-6.2381,-6.2381,-6.2381,-6.2381,-6.2381,-6.2381,-6.2381,-6.2381,-6.2381,-6.2381,-6.2381,-6.2381,-6.2381,-6.2381,-6.2381,-6.2381,-6.2381,-6.2381,-6.2381,-6.2381,-6.2381,-6.2381,-6.2381,-6.2381,-6.2381,-6.2381,-6.2381,-6.2381,-6.2381,-6.2381,-6.2381,-6.2381,-6.2381,-6.2381,-6.2381,-6.2381,-6.2381,-6.2381,-6.2381,-6.2381,-6.2381,-6.2381,-6.2381,-6.2381,-6.2381,-6.2381,-6.147,-6.1008,-6.1006,-6.0135,-5.9716,-5.9716,-5.9716,-5.9716,-3.5278,-4.0223,-4.4874,-4.8173,-4.9238,-4.9796,-5.0947,-5.1471,-5.2046,-5.3264,-5.3145,-5.2841,-5.2841,-5.2841,-5.2841,-5.2841,-5.3213,-5.3501,-5.3501,-5.3501,-5.3501,-5.3501,-5.3501,-5.3501,-5.3501,-5.3501,-5.394,-5.5006,-5.548,-5.6173,-5.7222,-5.7679,-5.7881,-5.7881,-5.7881,-5.7881,-5.7881,-5.7881,-5.7881,-5.7881,-5.7881,-5.8118,-5.8541,-5.8863,-5.9404,-6.0131,-6.0588,-6.1383,-6.2381,-6.2381,-6.2381,-6.2381,-6.2381,-6.2381,-6.2381,-6.2381,-6.2381,-6.2381,-6.2381,-6.2381,-6.2381,-6.2381,-6.2381,-6.2381,-6.2381,-6.2381,-6.2381,-6.2381,-6.2381,-6.2381,-6.2381,-6.2381,-6.2381,-6.2381,-6.2381,-6.2381,-6.2381,-6.2381,-6.2381,-6.2381,-6.2381,-6.2381,-6.2381,-6.2381,-6.2381,-6.2381,-6.2381,-6.2381,-6.2381,-6.2381,-6.2381,-6.2381,-6.2381,-6.2381,-6.2381,-6.2381,-6.2381,-6.2381,-6.2381,-6.2381,-6.2381,-6.2155,-6.2015,-6.2015,-6.1329,-6.1017,-6.1005,-6.014,-5.9716,-5.9716,-5.9716,-5.9716,-3.5757,-3.9749,-4.2963,-4.6904,-4.802,-4.8697,-5.076,-5.1185,-5.1657,-5.3179,-5.2723,-5.2029,-5.2029,-5.2029,-5.208,-5.2266,-5.2807,-5.3264,-5.3467,-5.3501,-5.3501,-5.3501,-5.3501,-5.3501,-5.3501,-5.3501,-5.3805,-5.4532,-5.5294,-5.6038,-5.6765,-5.7492,-5.7881,-5.7881,-5.7881,-5.7881,-5.7881,-5.7881,-5.7881,-5.7881,-5.8084,-5.8473,-5.9032,-5.9421,-5.9894,-6.0436,-6.1044,-6.1721,-6.2381,-6.2381,-6.2381,-6.2381,-6.2381,-6.2381,-6.2381,-6.2381,-6.2381,-6.2381,-6.2381,-6.2381,-6.2381,-6.2381,-6.2381,-6.2381,-6.2381,-6.2381,-6.2381,-6.2381,-6.2381,-6.2381,-6.2381,-6.2381,-6.2381,-6.2381,-6.2381,-6.2381,-6.2381,-6.2381,-6.2381,-6.2381,-6.2381,-6.2381,-6.2381,-6.2381,-6.2381,-6.2381,-6.2381,-6.2381,-6.2381,-6.2381,-6.2381,-6.2381,-6.2381,-6.2381,-6.2381,-6.2381,-6.2381,-6.2381,-6.2381,-6.2381,-6.2381,-6.1942,-6.1694,-6.1709,-6.1129,-6.0862,-6.0864,-6.0064,-5.9716,-5.9716,-5.9716,-5.9716,-3.2425,-3.4336,-3.6586,-4.3193,-4.5348,-4.6819,-5.0373,-5.1185,-5.1657,-5.3179,-5.2317,-5.1268,-5.1268,-5.1268,-5.1505,-5.2198,-5.2334,-5.2638,-5.3399,-5.3501,-5.3501,-5.3501,-5.3501,-5.3501,-5.3501,-5.3501,-5.3805,-5.4532,-5.5294,-5.6038,-5.6765,-5.7492,-5.7881,-5.7881,-5.7881,-5.7881,-5.7881,-5.7881,-5.7881,-5.7898,-5.8609,-5.8981,-5.9066,-6.052,-6.1197,-6.1247,-6.1281,-6.1721,-6.2381,-6.2381,-6.2381,-6.2381,-6.2381,-6.2381,-6.2381,-6.2381,-6.2381,-6.2381,-6.2381,-6.2381,-6.2381,-6.2381,-6.2381,-6.2381,-6.2381,-6.2381,-6.2381,-6.2381,-6.2381,-6.2381,-6.2381,-6.2381,-6.2381,-6.2381,-6.2381,-6.2381,-6.2381,-6.2381,-6.2381,-6.2381,-6.2381,-6.2381,-6.2381,-6.2381,-6.2381,-6.2381,-6.2381,-6.2381,-6.2381,-6.2381,-6.2381,-6.2381,-6.2381,-6.2381,-6.2381,-6.2381,-6.2381,-6.2381,-6.2381,-6.2381,-6.2381,-6.1942,-6.1712,-6.1715,-6.0854,-6.0418,-6.0439,-5.9922,-5.9716,-5.9716,-5.9716,-5.9716,-3.2577,-3.3931,-3.5537,-3.9901,-4.2625,-4.484,-4.7158,-4.9509,-5.1505,-5.252,-5.23,-5.1775,-5.1269,-5.0811,-5.0574,-5.0845,-5.1674,-5.2401,-5.2689,-5.3179,-5.3501,-5.3501,-5.3501,-5.3501,-5.3501,-5.3501,-5.3619,-5.3873,-5.5023,-5.5835,-5.6089,-5.7239,-5.7881,-5.7881,-5.7881,-5.7881,-5.7881,-5.7881,-5.7881,-5.7898,-5.866,-5.9268,-5.9742,-6.0808,-6.1552,-6.2009,-6.2009,-6.2144,-6.2381,-6.2381,-6.2381,-6.2381,-6.2381,-6.2381,-6.2381,-6.2381,-6.2381,-6.2381,-6.2381,-6.2381,-6.2381,-6.2381,-6.2381,-6.2381,-6.2381,-6.2381,-6.2381,-6.2381,-6.2381,-6.2381,-6.2381,-6.2381,-6.2381,-6.2381,-6.2381,-6.2381,-6.2381,-6.2381,-6.2381,-6.2381,-6.2381,-6.2381,-6.2381,-6.2381,-6.2381,-6.2381,-6.2381,-6.2381,-6.2381,-6.2381,-6.2381,-6.2381,-6.2381,-6.2381,-6.2381,-6.2381,-6.2381,-6.2381,-6.2381,-6.224,-6.1942,-6.1526,-6.1124,-6.0891,-6.0281,-6.008,-6.0423,-5.9922,-5.9716,-5.9716,-5.9716,-5.9451,-3.1833,-3.2662,-3.3931,-3.7686,-3.9732,-4.1769,-4.5585,-4.8156,-5.0152,-5.164,-5.1944,-5.1725,-5.098,-5.0236,-4.9796,-5.005,-5.0913,-5.1725,-5.2232,-5.2756,-5.3196,-5.3467,-5.3501,-5.3501,-5.3501,-5.3501,-5.3501,-5.3501,-5.4651,-5.5446,-5.57,-5.6867,-5.7628,-5.7881,-5.7881,-5.7881,-5.7881,-5.7881,-5.8017,-5.8271,-5.9032,-5.9776,-6.0537,-6.1315,-6.1941,-6.2381,-6.2381,-6.2381,-6.2381,-6.2381,-6.2381,-6.2381,-6.2381,-6.2381,-6.2381,-6.2381,-6.2381,-6.2381,-6.2381,-6.2381,-6.2381,-6.2381,-6.2381,-6.2381,-6.2381,-6.2381,-6.2381,-6.2381,-6.2381,-6.2381,-6.2381,-6.2381,-6.2381,-6.2381,-6.2381,-6.2381,-6.2381,-6.2381,-6.2381,-6.2381,-6.2381,-6.2381,-6.2381,-6.2381,-6.2381,-6.2381,-6.2381,-6.2381,-6.2381,-6.2381,-6.2381,-6.2381,-6.2381,-6.2381,-6.2381,-6.2381,-6.2381,-6.2381,-6.224,-6.2032,-6.1717,-6.1127,-6.0662,-6.0407,-5.9922,-5.9858,-6.0156,-5.9858,-5.9716,-5.9716,-5.9716,-5.9152,0.0,0.0,0.0,-3.6383,-3.6563,-3.7645,-4.5691,-4.7056,-4.7462,-5.049,-5.1099,-5.0896,-5.0253,-4.9526,-4.9255,-4.9949,-5.0084,-5.0591,-5.2029,-5.2249,-5.257,-5.3365,-5.3467,-5.3467,-5.3501,-5.3501,-5.3501,-5.3501,-5.4194,-5.4938,-5.5647,-5.6427,-5.7154,-5.7865,-5.7881,-5.7881,-5.7881,-5.7898,-5.8287,-5.9032,-5.9776,-6.0537,-6.1332,-6.2059,-6.2381,-6.2381,-6.2381,-6.2381,-6.2381,-6.2381,-6.2381,-6.2381,-6.2381,-6.2381,-6.2381,-6.2381,-6.2381,-6.2381,-6.2381,-6.2381,-6.2381,-6.2381,-6.2381,-6.2381,-6.2381,-6.2381,-6.2381,-6.2381,-6.2381,-6.2381,-6.2381,-6.2381,-6.2381,-6.2381,-6.2381,-6.2381,-6.2381,-6.2381,-6.2381,-6.2381,-6.2381,-6.2381,-6.2381,-6.2381,-6.2381,-6.2381,-6.2381,-6.2381,-6.2381,-6.2381,-6.2381,-6.2381,-6.2381,-6.2381,-6.2381,-6.2381,-6.2381,-6.2381,-6.1981,-6.1694,-6.1672,-6.0882,-6.0423,-6.0363,-5.9922,-5.9716,-5.9716,-5.9716,-5.9716,-5.9716,-5.964,-5.884,-3.0328,0.0,0.0,0.0,0.0,0.0,-3.8237,-4.0519,-4.324,-4.7855,-4.8392,-4.8612,-5.0541,-5.0287,-4.9678,-4.9357,-4.9746,-5.0236,-5.0642,-5.1166,-5.1792,-5.2536,-5.2638,-5.2858,-5.345,-5.3501,-5.3501,-5.3501,-5.4685,-5.5497,-5.57,-5.6917,-5.7679,-5.7881,-5.7881,-5.7881,-5.7881,-5.844,-5.8812,-5.9032,-6.0351,-6.1078,-6.1332,-6.2059,-6.2381,-6.2381,-6.2381,-6.2381,-6.2381,-6.2381,-6.2381,-6.2381,-6.2381,-6.2381,-6.2381,-6.2381,-6.2381,-6.2381,-6.2381,-6.2381,-6.2381,-6.2381,-6.2381,-6.2381,-6.2381,-6.2381,-6.2381,-6.2381,-6.2381,-6.2381,-6.2381,-6.2381,-6.2381,-6.2381,-6.2381,-6.2381,-6.2381,-6.2381,-6.2381,-6.2381,-6.2381,-6.2381,-6.2381,-6.2381,-6.2381,-6.2381,-6.2381,-6.2381,-6.2381,-6.2381,-6.2381,-6.2381,-6.2381,-6.2381,-6.2381,-6.2381,-6.2381,-6.2381,-6.2296,-6.1914,-6.1228,-6.0968,-6.0564,-5.9906,-5.9765,-5.9716,-5.9716,-5.9716,-5.9716,-5.9656,-5.8546,-5.7791,-3.2171,-3.1799,-3.1684,-3.1732,0.0,0.0,-3.7499,-3.9529,-4.2023,-4.7293,-4.8257,-4.8595,-5.0033,-4.9932,-4.9492,-4.9069,-4.9357,-4.9746,-5.005,-5.0473,-5.1133,-5.2181,-5.23,-5.2621,-5.3416,-5.3501,-5.3501,-5.3501,-5.4313,-5.5074,-5.5683,-5.7103,-5.7881,-5.7881,-5.7881,-5.7881,-5.7881,-5.8643,-5.9167,-5.9488,-6.0706,-6.1467,-6.1772,-6.2195,-6.2381,-6.2381,-6.2381,-6.2381,-6.2381,-6.2381,-6.2381,-6.2381,-6.2381,-6.2381,-6.2381,-6.2381,-6.2381,-6.2381,-6.2381,-6.2381,-6.2381,-6.2381,-6.2381,-6.2381,-6.2381,-6.2381,-6.2381,-6.2381,-6.2381,-6.2381,-6.2381,-6.2381,-6.2381,-6.2381,-6.2381,-6.2381,-6.2381,-6.2381,-6.2381,-6.2381,-6.2381,-6.2381,-6.2381,-6.2381,-6.2381,-6.2381,-6.2381,-6.2381,-6.2381,-6.2381,-6.2381,-6.2381,-6.2381,-6.2381,-6.2381,-6.2381,-6.2381,-6.2381,-6.2206,-6.177,-6.1043,-6.0815,-6.0423,-5.9716,-5.9716,-5.9716,-5.9716,-5.9716,-5.9716,-5.964,-5.8109,-5.74,-3.4573,-3.3732,-3.3305,-3.494,-3.3575,0.0,-3.9749,-4.0747,-4.1762,-4.6752,-4.8156,-4.8409,-4.8189,-4.8139,-4.8105,-4.8037,-4.8359,-4.8951,-4.9847,-4.9965,-5.0524,-5.1995,-5.2181,-5.2536,-5.3416,-5.3501,-5.3501,-5.3501,-5.3653,-5.4363,-5.5767,-5.7137,-5.7881,-5.7881,-5.7881,-5.7881,-5.7881,-5.871,-5.9455,-6.0114,-6.0994,-6.1772,-6.2381,-6.2381,-6.2381,-6.2381,-6.2381,-6.2381,-6.2381,-6.2381,-6.2381,-6.2381,-6.2381,-6.2381,-6.2381,-6.2381,-6.2381,-6.2381,-6.2381,-6.2381,-6.2381,-6.2381,-6.2381,-6.2381,-6.2381,-6.2381,-6.2381,-6.2381,-6.2381,-6.2381,-6.2381,-6.2381,-6.2381,-6.2381,-6.2381,-6.2381,-6.2381,-6.2381,-6.2381,-6.2381,-6.2381,-6.2381,-6.2381,-6.2381,-6.2381,-6.2381,-6.2381,-6.2381,-6.2381,-6.2381,-6.2381,-6.2381,-6.2381,-6.2381,-6.2381,-6.2381,-6.2381,-6.2381,-6.1942,-6.147,-6.0998,-6.06,-6.0173,-5.9716,-5.9716,-5.9716,-5.9716,-5.9716,-5.9716,-5.964,-5.8109,-5.74,-3.5148,-3.5622,-3.6332,-3.4336,-3.4776,0.0,-3.4477,-3.459,-3.591,-3.936,-3.9208,-3.9326,-4.2202,-4.2726,-4.2523,-4.1914,-4.4367,-4.7022,-4.8934,-4.9221,-4.9763,-5.1251,-5.1388,-5.1978,-5.3365,-5.3501,-5.3501,-5.3501,-5.4617,-5.5666,-5.6545,-5.7408,-5.7881,-5.7881,-5.7881,-5.7881,-5.7881,-5.9218,-5.9962,-6.0114,-6.1518,-6.2245,-6.2381,-6.2381,-6.2381,-6.2381,-6.2381,-6.2381,-6.2381,-6.2381,-6.2381,-6.2381,-6.2381,-6.2381,-6.2381,-6.2381,-6.2381,-6.2381,-6.2381,-6.2381,-6.2381,-6.2381,-6.2381,-6.2381,-6.2381,-6.2381,-6.2381,-6.2381,-6.2381,-6.2381,-6.2381,-6.2381,-6.2381,-6.2381,-6.2381,-6.2381,-6.2381,-6.2381,-6.2381,-6.2381,-6.2381,-6.2381,-6.2381,-6.2381,-6.2381,-6.2381,-6.2381,-6.2381,-6.2381,-6.2381,-6.2381,-6.2381,-6.2381,-6.2381,-6.2381,-6.2381,-6.2381,-6.2381,-6.1942,-6.147,-6.0998,-6.06,-6.0173,-5.9716,-5.9716,-5.9716,-5.9716,-5.9716,-5.9716,-5.964,-5.8109,-5.74,-3.7009,-3.7043,-3.7635,-3.6485,-3.6197,0.0,0.0,-3.5627,-3.6045,-3.9394,-3.8886,-3.8531,-4.0798,-4.0916,-4.0663,-4.0646,-4.3166,-4.5128,-4.5111,-4.7361,-4.9407,-5.0524,-5.0659,-5.1099,-5.2249,-5.2689,-5.3078,-5.3467,-5.4532,-5.548,-5.6224,-5.6951,-5.7509,-5.7881,-5.7881,-5.7881,-5.7881,-5.9353,-6.0097,-6.0114,-6.1653,-6.2381,-6.2381,-6.2381,-6.2381,-6.2381,-6.2381,-6.2381,-6.2381,-6.2381,-6.2381,-6.2381,-6.2381,-6.2381,-6.2381,-6.2381,-6.2381,-6.2381,-6.2381,-6.2381,-6.2381,-6.2381,-6.2381,-6.2381,-6.2381,-6.2381,-6.2381,-6.2381,-6.2381,-6.2381,-6.2381,-6.2381,-6.2381,-6.2381,-6.2381,-6.2381,-6.2381,-6.2381,-6.2381,-6.2381,-6.2381,-6.2381,-6.2381,-6.2381,-6.2381,-6.2381,-6.2381,-6.2381,-6.2381,-6.2381,-6.2381,-6.2381,-6.2381,-6.2381,-6.2381,-6.2381,-6.2381,-6.2381,-6.1942,-6.1478,-6.1003,-6.0603,-6.0173,-5.9716,-5.9716,-5.9716,-5.9716,-5.9716,-5.9716,-5.9656,-5.8514,-5.7775,-3.9208,-3.8751,-3.9157,-3.9022,-3.8041,-3.7425,0.0,0.0,0.0,-3.9868,-3.9436,-3.8742,-3.9191,-3.8903,-3.8768,-3.9208,-4.1424,-4.2388,-4.0409,-4.4265,-4.7614,-4.8477,-4.9475,-5.0219,-5.0541,-5.098,-5.1809,-5.3179,-5.3433,-5.416,-5.5632,-5.641,-5.7137,-5.7865,-5.7881,-5.7881,-5.7881,-5.9353,-6.0097,-6.0114,-6.1653,-6.2381,-6.2381,-6.2381,-6.2381,-6.2381,-6.2381,-6.2381,-6.2381,-6.2381,-6.2381,-6.2381,-6.2381,-6.2381,-6.2381,-6.2381,-6.2381,-6.2381,-6.2381,-6.2381,-6.2381,-6.2381,-6.2381,-6.2381,-6.2381,-6.2381,-6.2381,-6.2381,-6.2381,-6.2381,-6.2381,-6.2381,-6.2381,-6.2381,-6.2381,-6.2381,-6.2381,-6.2381,-6.2381,-6.2381,-6.2381,-6.2381,-6.2381,-6.2381,-6.2381,-6.2381,-6.2381,-6.2381,-6.2381,-6.2381,-6.2381,-6.2381,-6.2381,-6.2381,-6.2381,-6.2223,-6.2172,-6.2206,-6.1734,-6.1289,-6.0891,-6.0472,-6.0064,-5.9716,-5.9716,-5.9716,-5.9716,-5.9716,-5.9716,-5.97,-5.8936,-5.8161,-4.1027,-4.1805,-4.3075,-3.98,-4.0781,-4.1212,-3.6248,0.0,-3.6169,-3.3901,0.0,-3.3021,-3.2425,0.0,0.0,-3.2425,-3.5357,-3.7347,-3.636,-3.9056,-4.1636,-4.3014,-4.7276,-4.961,-4.8379,-4.7767,-4.8815,-5.2181,-5.071,-5.142,-5.5497,-5.641,-5.7137,-5.7865,-5.7881,-5.7881,-5.7881,-5.9353,-6.0097,-6.0114,-6.1653,-6.2381,-6.2381,-6.2381,-6.2381,-6.2381,-6.2381,-6.2381,-6.2381,-6.2381,-6.2381,-6.2381,-6.2381,-6.2381,-6.2381,-6.2381,-6.2381,-6.2381,-6.2381,-6.2381,-6.2381,-6.2381,-6.2381,-6.2381,-6.2381,-6.2381,-6.2381,-6.2381,-6.2381,-6.2381,-6.2381,-6.2381,-6.2381,-6.2381,-6.2381,-6.2381,-6.2381,-6.2381,-6.2381,-6.2381,-6.2381,-6.2381,-6.2381,-6.2381,-6.2381,-6.2381,-6.2381,-6.2381,-6.2381,-6.2381,-6.2381,-6.2381,-6.2381,-6.2381,-6.2381,-6.1627,-6.1279,-6.1576,-6.0948,-6.0536,-6.045,-6.0015,-5.9749,-5.9716,-5.9716,-5.9716,-5.9716,-5.9716,-5.9716,-5.97,-5.8936,-5.8165,-4.161,-4.2634,-4.3904,-4.1001,-4.1221,-4.1136,-3.7347,-3.5943,-3.5216,-3.4387,0.0,0.0,0.0,0.0,0.0,0.0,-3.4235,-3.5385,-3.3339,-3.711,-4.0333,-4.0959,-4.2963,-4.4925,-4.6481,-4.6346,-4.7699,-5.1386,-4.9627,-5.0338,-5.482,-5.5767,-5.6697,-5.7848,-5.7881,-5.7881,-5.7881,-5.9353,-6.0097,-6.0114,-6.1653,-6.2381,-6.2381,-6.2381,-6.2381,-6.2381,-6.2381,-6.2381,-6.2381,-6.2381,-6.2381,-6.2381,-6.2381,-6.2381,-6.2381,-6.2381,-6.2381,-6.2381,-6.2381,-6.2381,-6.2381,-6.2381,-6.2381,-6.2381,-6.2381,-6.2381,-6.2381,-6.2381,-6.2381,-6.2381,-6.2381,-6.2381,-6.2381,-6.2381,-6.2381,-6.233,-6.2049,-6.1998,-6.1908,-6.1627,-6.1593,-6.1593,-6.1593,-6.1824,-6.1998,-6.1998,-6.1925,-6.2015,-6.2347,-6.2381,-6.2381,-6.2381,-6.1465,-6.0844,-6.0844,-5.8856,-5.8416,-6.0353,-6.0421,-6.0273,-5.9999,-5.9781,-5.9716,-5.9716,-5.9716,-5.9716,-5.9716,-5.9716,-5.9716,-5.97,-5.8936,-5.8185,-4.3453,-4.4231,-4.501,-4.1728,-4.1052,-4.051,-3.7889,-3.6468,-3.5639,-3.5368,-3.4523,0.0,0.0,0.0,-3.1901,-3.2242,0.0,-3.388,-3.1529,-3.4934,-3.7658,-3.7658,-3.8565,-4.051,-4.3859,-4.3436,-4.4823,-4.9342,-4.7648,-4.8781,-5.4296,-5.531,-5.6393,-5.7831,-5.7881,-5.7881,-5.7881,-5.9353,-6.0097,-6.0114,-6.1653,-6.2381,-6.2381,-6.2381,-6.2381,-6.2381,-6.2381,-6.2381,-6.2381,-6.2381,-6.2381,-6.2381,-6.2381,-6.2381,-6.2381,-6.2381,-6.2381,-6.2381,-6.2381,-6.2381,-6.2381,-6.2381,-6.2381,-6.2381,-6.2381,-6.2381,-6.2381,-6.2381,-6.2381,-6.2381,-6.2381,-6.2313,-6.2206,-6.2206,-6.2099,-6.1908,-6.1576,-6.1518,-6.142,-6.1089,-6.0998,-6.0998,-6.0998,-6.126,-6.1526,-6.1518,-6.142,-6.1528,-6.1984,-6.2018,-6.191,-6.1702,-5.9751,-5.8487,-5.8487,-5.6473,-5.6396,-5.9133,-5.9467,-5.9434,-5.9076,-5.906,-5.9153,-5.931,-5.931,-5.9434,-5.9716,-5.9716,-5.9716,-5.97,-5.8936,-5.8115,-4.7597,-4.7716,-4.7462,-4.16,-4.0679,-4.024,-3.6512,-3.733,-3.8024,-3.5131,-3.6231,-3.684,-3.3931,-3.3372,-3.3102,-3.2412,-3.2361,0.0,0.0,-3.136,-3.1478,-3.1478,-3.4697,-3.7787,-4.0045,-3.7645,-3.8676,-4.5382,-4.3758,-4.6024,-5.416,-5.531,-5.6393,-5.7831,-5.7881,-5.7881,-5.7881,-5.9353,-6.0097,-6.0114,-6.1653,-6.2381,-6.2381,-6.2381,-6.2381,-6.2381,-6.2381,-6.2381,-6.2381,-6.2381,-6.2381,-6.2381,-6.2381,-6.2381,-6.2381,-6.2381,-6.2381,-6.2381,-6.2381,-6.2381,-6.2381,-6.2381,-6.2381,-6.2381,-6.2381,-6.2381,-6.2381,-6.2381,-6.2381,-6.2381,-6.2381,-6.2049,-6.1717,-6.1717,-6.1385,-6.1054,-6.1015,-6.1011,-6.1,-6.0984,-6.0984,-6.0984,-6.0984,-6.1011,-6.1019,-6.1022,-6.1,-6.1,-6.1061,-6.1061,-6.0701,-5.9869,-5.7116,-5.533,-5.533,-5.5244,-5.6066,-5.8133,-5.7797,-5.7517,-5.7457,-5.7457,-5.7704,-5.8233,-5.8249,-5.8747,-5.9716,-5.9716,-5.9716,-5.97,-5.8936,-5.7931,-4.9932,-5.0828,-5.0777,-4.5788,-4.435,-4.3081,-3.8819,-3.8447,-3.843,-3.644,-3.7026,-3.728,-3.5228,-3.4044,-3.3169,-3.2429,-3.2293,-3.1701,0.0,-2.9738,-3.011,-3.1072,-3.4049,-3.6315,-3.7053,-3.8007,-4.0358,-4.4637,-4.4705,-4.7276,-5.3534,-5.4566,-5.5869,-5.7831,-5.7881,-5.7881,-5.7881,-5.9353,-6.0097,-6.0114,-6.1653,-6.2381,-6.2381,-6.2381,-6.2381,-6.2381,-6.2381,-6.2381,-6.2381,-6.2381,-6.2381,-6.2381,-6.2381,-6.2381,-6.2381,-6.2381,-6.2381,-6.2381,-6.2381,-6.2381,-6.2381,-6.2381,-6.2381,-6.2381,-6.2381,-6.2381,-6.2381,-6.2381,-6.2189,-6.1925,-6.1925,-6.1593,-6.1226,-6.1259,-6.1122,-6.0948,-6.0666,-6.0592,-6.0488,-6.0189,-6.0156,-6.0156,-6.0156,-6.013,-6.0237,-6.0543,-6.033,-6.0156,-6.0156,-6.0156,-5.9271,-5.6956,-5.58,-5.5194,-5.5194,-5.5194,-5.5475,-5.6166,-5.695,-5.7281,-5.6935,-5.6935,-5.717,-5.7673,-5.8013,-5.8374,-5.8731,-5.8731,-5.9044,-5.9673,-5.7903,-5.6948,-5.3129,-5.3923,-5.367,-4.9424,-4.78,-4.616,-4.1914,-4.1373,-4.1255,-3.9512,-3.9309,-3.9411,-3.9217,-3.6468,-3.4218,-3.4269,-3.3173,-3.1701,0.0,-2.9788,-3.0144,-3.1089,-3.2882,-3.4433,-3.5498,-3.618,-3.8792,-4.4192,-4.4282,-4.6735,-5.2756,-5.4296,-5.575,-5.7459,-5.7746,-5.7881,-5.7881,-5.9353,-6.0097,-6.0114,-6.1653,-6.2381,-6.2381,-6.2381,-6.2381,-6.2381,-6.2381,-6.2381,-6.2381,-6.2381,-6.2381,-6.2381,-6.2381,-6.2381,-6.2381,-6.2381,-6.2381,-6.2381,-6.2381,-6.2381,-6.2381,-6.2381,-6.2381,-6.2381,-6.2381,-6.2279,-6.2144,-6.2167,-6.1824,-6.1475,-6.143,-6.1109,-6.0804,-6.0794,-6.0646,-6.0472,-6.0205,-6.0156,-6.0047,-5.9749,-5.9716,-5.9716,-5.9716,-5.9716,-5.9781,-6.0124,-5.989,-5.9716,-5.9716,-5.9717,-5.8546,-5.5541,-5.5194,-5.5194,-5.5194,-5.5194,-5.5194,-5.5194,-5.6073,-5.6501,-5.6169,-5.6169,-5.631,-5.6627,-5.6976,-5.7119,-5.7119,-5.7119,-5.7478,-5.8072,-5.6583,-5.6013]},{"header":{"parameterUnit":"m.s-1","parameterCategory":1,"la1":30.6,"la2":29.2853,"lo1":-89.7004,"lo2":-87.6739,"dx":0.0162,"dy":0.0183,"nx":112,"ny":82,"refTime":"2022-11-05T18:00:00:Z","depth":0,"parameterNumber":3,"parameterNumberName":"V-component_of_WINDS"},"data":[0.0,0.0,0.0,0.0,0.0,0.0,0.0,0.0,0.0,0.0,0.0,0.0,0.0,0.0,0.0,0.0,0.0,0.0,0.0,0.0,0.0,0.0,0.0,0.0,0.0,0.0,0.0,0.0,0.0,0.0,0.0,0.0,0.0,0.0,0.0,0.0,0.0,0.0,0.0,0.0,0.0,0.0,0.0,0.0,0.0,0.0,0.0,0.0,0.0,0.0,0.0,0.0,0.0,0.0,0.0,0.0,0.0,0.0,0.0,0.0,0.0,0.0,0.0,0.0,0.0,0.0,0.0,0.0,0.0,0.0,0.0,0.0,0.0,0.0,0.0,0.0,0.0,0.0,0.0,0.0,0.0,0.0,0.0,0.0,0.0,0.0,0.0,0.0,0.0,0.0,1.8474,2.1685,2.3908,2.5688,2.6922,2.7001,2.5707,2.2639,0.0,0.0,0.0,0.0,0.0,0.0,0.0,0.0,0.0,0.0,0.0,0.0,0.0,0.0,0.0,0.0,0.0,0.0,0.0,0.0,0.0,0.0,0.0,0.0,0.0,0.0,0.0,0.0,0.0,0.0,0.0,0.0,0.0,0.0,0.0,0.0,0.0,0.0,0.0,0.0,0.0,0.0,0.0,0.0,0.0,0.0,0.0,0.0,0.0,0.0,0.0,0.0,0.0,0.0,0.0,0.0,0.0,0.0,0.0,0.0,0.0,0.0,0.0,0.0,0.0,0.0,0.0,0.0,0.0,0.0,0.0,0.0,0.0,0.0,0.0,0.0,0.0,0.0,0.0,0.0,0.0,0.0,0.0,0.0,0.0,0.0,0.0,0.0,0.0,0.0,0.0,0.0,0.0,0.0,0.0,0.0,0.0,0.0,0.0,0.0,0.0,0.0,0.0,0.0,2.0118,2.473,2.5181,2.5806,2.7366,2.7198,2.5356,2.1497,0.0,0.0,0.0,0.0,0.0,0.0,0.0,0.0,0.0,0.0,0.0,0.0,0.0,0.0,0.0,0.0,0.0,0.0,0.0,0.0,0.0,0.0,0.0,0.0,0.0,0.0,0.0,0.0,0.0,0.0,0.0,0.0,0.0,0.0,0.0,0.0,0.0,0.0,0.0,0.0,0.0,0.0,0.0,0.0,0.0,0.0,0.0,0.0,0.0,0.0,0.0,0.0,0.0,0.0,0.0,0.0,0.0,0.0,0.0,0.0,0.0,0.0,0.0,0.0,0.0,0.0,0.0,0.0,0.0,0.0,0.0,0.0,0.0,0.0,0.0,0.0,0.0,0.0,0.0,0.0,0.0,0.0,0.0,0.0,0.0,0.0,0.0,0.0,0.0,0.0,0.0,0.0,0.0,0.0,0.0,0.0,0.0,0.0,0.0,0.0,0.0,0.0,0.0,1.9912,2.238,2.5575,2.6146,2.6661,2.7544,2.7742,2.6027,2.1844,2.0761,0.0,0.0,0.0,0.0,0.0,0.0,0.0,0.0,0.0,0.0,0.0,0.0,0.0,0.0,0.0,0.0,0.0,0.0,0.0,0.0,0.0,0.0,0.0,0.0,0.0,0.0,0.0,0.0,0.0,0.0,0.0,0.0,0.0,0.0,0.0,0.0,0.0,0.0,0.0,0.0,0.0,0.0,0.0,0.0,0.0,0.0,0.0,0.0,0.0,0.0,0.0,0.0,0.0,0.0,0.0,0.0,0.0,0.0,0.0,0.0,0.0,0.0,0.0,0.0,0.0,0.0,0.0,0.0,0.0,0.0,0.0,0.0,0.0,0.0,0.0,0.0,0.0,0.0,0.0,0.0,0.0,0.0,0.0,0.0,0.0,0.0,0.0,0.0,0.0,0.0,0.0,0.0,0.0,0.0,0.0,0.0,0.0,0.0,0.0,0.0,0.0,0.0,2.2544,2.4454,2.6041,2.6873,2.7425,2.7691,2.7973,2.6311,2.2048,2.0848,0.0,0.0,0.0,0.0,0.0,0.0,0.0,0.0,0.0,0.0,0.0,0.0,0.0,0.0,0.0,0.0,0.0,0.0,0.0,0.0,0.0,0.0,0.0,0.0,0.0,0.0,0.0,0.0,0.0,0.0,0.0,0.0,0.0,0.0,0.0,0.0,0.0,0.0,0.0,0.0,0.0,0.0,0.0,0.0,0.0,0.0,0.0,0.0,0.0,0.0,0.0,0.0,0.0,0.0,0.0,0.0,0.0,0.0,0.0,0.0,0.0,0.0,0.0,0.0,0.0,0.0,0.0,0.0,0.0,0.0,0.0,0.0,0.0,0.0,0.0,0.0,0.0,0.0,0.0,0.0,0.0,0.0,0.0,0.0,0.0,0.0,0.0,0.0,0.0,0.0,0.0,0.0,0.0,0.0,0.0,0.0,0.0,0.0,0.0,0.0,0.0,0.0,2.3544,2.6026,2.6981,2.7241,2.7492,2.7938,2.7381,2.5209,2.1066,1.9747,0.0,0.0,0.0,0.0,0.0,0.0,0.0,0.0,0.0,0.0,0.0,0.0,0.0,0.0,0.0,0.0,0.0,0.0,0.0,0.0,0.0,0.0,0.0,0.0,0.0,0.0,0.0,0.0,0.0,0.0,0.0,0.0,0.0,0.0,0.0,0.0,0.0,0.0,0.0,0.0,0.0,0.0,0.0,0.0,0.0,0.0,0.0,0.0,0.0,0.0,0.0,0.0,0.0,0.0,0.0,0.0,0.0,0.0,0.0,0.0,0.0,0.0,0.0,0.0,0.0,0.0,0.0,0.0,0.0,0.0,0.0,0.0,0.0,0.0,0.0,0.0,0.0,0.0,0.0,0.0,0.0,0.0,0.0,0.0,0.0,0.0,0.0,0.0,0.0,0.0,0.0,0.0,0.0,0.0,0.0,0.0,0.0,0.0,0.0,0.0,0.0,0.0,2.3554,2.5711,2.7424,2.7941,2.8075,2.8,2.8553,2.6569,2.1043,0.0,0.0,0.0,0.0,0.0,0.0,0.0,0.0,0.0,0.0,0.0,0.0,0.0,0.0,0.0,0.0,0.0,0.0,0.0,0.0,0.0,0.0,0.0,0.0,0.0,0.0,0.0,0.0,0.0,0.0,0.0,0.0,0.0,0.0,0.0,0.0,0.0,0.0,0.0,0.0,0.0,0.0,0.0,0.0,0.0,0.0,0.0,0.0,0.0,0.0,0.0,0.0,0.0,0.0,0.0,0.0,0.0,0.0,0.0,0.0,0.0,0.0,0.0,0.0,0.0,0.0,0.0,0.0,0.0,0.0,0.0,0.0,0.0,0.0,0.0,0.0,0.0,0.0,0.0,0.0,0.0,0.0,0.0,0.0,0.0,0.0,0.0,0.0,0.0,0.0,0.0,0.0,0.0,0.0,0.0,0.0,0.0,0.0,0.0,0.0,0.0,0.0,2.1624,2.4082,2.6202,2.7713,2.8474,2.8689,2.8225,2.9184,2.7265,2.1343,0.0,0.0,0.0,0.0,0.0,0.0,0.0,0.0,0.0,0.0,0.0,0.0,0.0,0.0,0.0,0.0,0.0,0.0,0.0,0.0,0.0,0.0,0.0,0.0,0.0,0.0,0.0,0.0,0.0,0.0,0.0,0.0,0.0,0.0,0.0,0.0,0.0,0.0,0.0,0.0,0.0,0.0,0.0,0.0,0.0,0.0,0.0,0.0,0.0,0.0,0.0,0.0,0.0,0.0,0.0,0.0,0.0,0.0,0.0,0.0,0.0,0.0,0.0,0.0,0.0,0.0,0.0,0.0,0.0,0.0,0.0,0.0,0.0,0.0,0.0,0.0,0.0,0.0,0.0,0.0,0.0,0.0,0.0,0.0,0.0,0.0,0.0,0.0,0.0,0.0,0.0,0.0,0.0,0.0,0.0,0.0,0.0,0.0,0.0,0.0,0.0,0.0,2.1728,2.5361,2.7824,2.7824,2.8767,2.9172,2.8625,2.8972,2.6998,0.0,0.0,0.0,0.0,0.0,0.0,0.0,0.0,0.0,0.0,0.0,0.0,0.0,0.0,0.0,0.0,0.0,0.0,0.0,0.0,0.0,0.0,0.0,0.0,0.0,0.0,0.0,0.0,0.0,0.0,0.0,0.0,0.0,0.0,0.0,0.0,0.0,0.0,0.0,0.0,0.0,0.0,0.0,0.0,0.0,0.0,0.0,0.0,0.0,0.0,0.0,0.0,0.0,0.0,0.0,0.0,0.0,0.0,0.0,0.0,0.0,0.0,0.0,0.0,0.0,0.0,0.0,0.0,0.0,0.0,0.0,0.0,0.0,0.0,0.0,0.0,0.0,0.0,0.0,0.0,0.0,0.0,0.0,0.0,0.0,0.0,0.0,0.0,0.0,0.0,0.0,0.0,0.0,0.0,0.0,0.0,0.0,0.0,0.0,0.0,0.0,0.0,0.0,2.2183,2.5421,2.7875,2.8164,2.8523,2.8796,2.9133,2.9404,2.7547,2.2906,0.0,0.0,0.0,0.0,0.0,0.0,0.0,0.0,0.0,0.0,0.0,0.0,0.0,0.0,0.0,0.0,0.0,0.0,0.0,0.0,0.0,0.0,0.0,0.0,0.0,0.0,0.0,0.0,0.0,0.0,0.0,0.0,0.0,0.0,0.0,0.0,0.0,0.0,0.0,0.0,0.0,0.0,0.0,0.0,0.0,0.0,0.0,0.0,0.0,0.0,0.0,0.0,0.0,0.0,0.0,0.0,0.0,0.0,0.0,0.0,0.0,0.0,0.0,0.0,0.0,0.0,0.0,0.0,0.0,0.0,0.0,0.0,0.0,0.0,0.0,0.0,0.0,0.0,0.0,0.0,0.0,0.0,0.0,0.0,0.0,0.0,0.0,0.0,0.0,0.0,0.0,0.0,0.0,0.0,0.0,0.0,0.0,0.0,0.0,0.0,0.0,0.0,2.2364,2.5584,2.8068,2.8311,2.8573,2.8755,2.8968,2.9602,2.8328,2.4384,0.0,0.0,0.0,0.0,0.0,0.0,0.0,0.0,0.0,0.0,0.0,0.0,0.0,0.0,0.0,0.0,0.0,0.0,0.0,0.0,0.0,0.0,0.0,0.0,0.0,0.0,0.0,0.0,0.0,0.0,0.0,0.0,0.0,0.0,0.0,0.0,0.0,0.0,0.0,0.0,0.0,0.0,0.0,0.0,0.0,0.0,0.0,0.0,0.0,0.0,0.0,0.0,0.0,0.0,0.0,0.0,0.0,0.0,0.0,0.0,0.0,0.0,0.0,0.0,0.0,0.0,0.0,0.0,0.0,0.0,0.0,0.0,0.0,0.0,0.0,0.0,0.0,0.0,0.0,0.0,0.0,0.0,0.0,0.0,0.0,0.0,0.0,0.0,0.0,0.0,0.0,0.0,0.0,0.0,0.0,0.0,0.0,0.0,0.0,0.0,0.0,0.0,2.2252,2.5796,2.8291,2.8291,2.8771,2.8856,2.8507,2.9589,2.9011,2.5964,0.0,0.0,0.0,0.0,0.0,0.0,0.0,0.0,0.0,0.0,0.0,0.0,0.0,0.0,0.0,0.0,0.0,0.0,0.0,0.0,0.0,0.0,0.0,0.0,0.0,0.0,0.0,0.0,0.0,0.0,0.0,0.0,0.0,0.0,0.0,0.0,0.0,0.0,0.0,0.0,0.0,0.0,0.0,0.0,0.0,0.0,0.0,0.0,0.0,0.0,0.0,0.0,0.0,0.0,0.0,0.0,0.0,0.0,0.0,0.0,1.5209,1.4,0.0,0.0,0.0,0.0,0.0,0.0,0.0,0.0,0.0,0.0,0.0,0.0,0.0,0.0,0.0,0.0,0.0,0.0,0.0,0.0,0.0,0.0,0.0,0.0,0.0,0.0,0.0,0.0,0.0,0.0,0.0,0.0,0.0,0.0,0.0,0.0,0.0,0.0,0.0,0.0,2.1752,2.5557,2.8291,2.8291,2.8398,2.8625,2.8938,2.9302,2.8549,2.6293,2.5365,0.0,0.0,0.0,0.0,0.0,0.0,0.0,0.0,0.0,0.0,0.0,0.0,0.0,0.0,0.0,0.0,0.0,0.0,0.0,0.0,0.0,0.0,0.0,0.0,0.0,0.0,0.0,0.0,0.0,0.0,0.0,0.0,0.0,0.0,0.0,0.0,0.0,0.0,0.0,0.0,0.0,0.0,0.0,0.0,0.0,0.0,0.0,0.0,0.0,0.0,0.0,0.0,0.0,0.0,0.0,0.0,0.0,0.0,0.0,1.7203,1.6523,0.0,0.0,0.0,0.0,0.0,0.0,0.0,0.0,0.0,0.0,0.0,0.0,0.0,0.0,0.0,0.0,0.0,0.0,0.0,0.0,0.0,0.0,0.0,0.0,0.0,0.0,0.0,0.0,0.0,0.0,0.0,0.0,0.0,0.0,0.0,0.0,0.0,0.0,0.0,0.0,2.1487,2.5457,2.8291,2.8291,2.8291,2.8398,2.8717,2.8834,2.8669,2.8258,2.6431,0.0,0.0,0.0,0.0,0.0,0.0,0.0,0.0,0.0,0.0,0.0,0.0,0.0,0.0,0.0,0.0,0.0,0.0,0.0,0.0,0.0,0.0,0.0,0.0,0.0,0.0,0.0,0.0,0.0,0.0,0.0,0.0,0.0,0.0,0.0,0.0,0.0,0.0,0.0,0.0,0.0,0.0,0.0,0.0,0.0,0.0,0.0,0.0,0.0,0.0,0.0,0.0,0.0,2.0297,1.9382,1.9115,1.9115,1.9911,2.1169,1.9419,1.9775,2.1355,1.8422,0.0,0.0,0.0,0.0,0.0,0.0,0.0,0.0,0.0,0.0,0.0,0.0,0.0,0.0,0.0,0.0,0.0,0.0,0.0,0.0,0.0,0.0,2.8281,2.8305,2.8278,2.6326,1.9183,0.0,0.0,0.0,0.0,0.0,0.0,0.0,0.0,0.0,0.0,0.0,2.1699,2.5638,2.8291,2.8291,2.8291,2.8291,2.8291,2.8423,2.8941,2.991,2.7441,2.6063,0.0,0.0,0.0,0.0,0.0,0.0,0.0,0.0,0.0,0.0,0.0,0.0,0.0,0.0,0.0,0.0,0.0,0.0,0.0,0.0,0.0,0.0,0.0,0.0,0.0,0.0,0.0,0.0,0.0,0.0,0.0,0.0,1.6136,1.6954,0.0,0.0,0.0,0.0,0.0,0.0,0.0,0.0,0.0,0.0,0.0,0.0,0.0,2.3535,2.3173,2.5912,2.5051,2.077,2.2702,2.3605,2.3588,2.3588,2.3675,2.391,2.4408,0.0,2.4982,2.4527,0.0,0.0,0.0,0.0,0.0,0.0,0.0,0.0,0.0,0.0,0.0,0.0,0.0,0.0,0.0,0.0,0.0,0.0,0.0,0.0,0.0,0.0,2.8309,2.8283,2.8316,2.7999,2.6865,2.6586,2.6394,2.5621,2.3058,2.0048,0.0,0.0,0.0,0.0,0.0,0.0,2.3053,2.6257,2.8291,2.8291,2.8291,2.8291,2.8291,2.8711,2.8923,2.8684,2.9714,2.9162,2.6515,2.6318,0.0,0.0,0.0,0.0,0.0,0.0,0.0,0.0,0.0,0.0,0.0,0.0,0.0,0.0,0.0,0.0,0.0,0.0,0.0,0.0,0.0,0.0,0.0,0.0,0.0,0.0,0.0,0.0,0.0,1.4523,1.5653,1.7031,1.6318,1.577,0.0,0.0,0.0,0.0,0.0,0.0,0.0,0.0,0.0,2.1365,2.3243,2.4379,2.4625,2.5093,2.4657,2.3423,2.3557,2.3618,2.3618,2.3618,2.3618,2.3681,2.4844,2.6582,2.8574,2.7557,2.5098,2.1547,0.0,0.0,0.0,0.0,1.4413,2.0778,2.1924,2.4463,2.7159,2.7151,0.0,0.0,0.0,0.0,0.0,0.0,0.0,2.168,2.3336,2.6024,2.831,2.8298,2.8291,2.8305,2.8274,2.8573,2.8121,2.5774,2.3606,2.1157,1.8176,1.8742,0.0,0.0,0.0,2.3047,2.4174,2.6649,2.8291,2.8291,2.8291,2.8291,2.8291,2.8504,2.8681,2.8798,2.9312,2.948,2.9099,2.7614,2.5692,0.0,0.0,0.0,0.0,0.0,0.0,0.0,0.0,0.0,0.0,0.0,0.0,0.0,0.0,0.0,0.0,0.0,0.0,0.0,0.0,0.0,0.0,0.0,0.0,0.0,0.0,0.0,0.0,1.5083,1.5981,1.7356,1.737,1.7363,0.0,0.0,0.0,0.0,0.0,0.0,2.168,2.1712,2.2019,2.2737,2.3403,2.4387,2.5703,2.3918,2.3671,2.4974,2.3626,2.2998,2.2991,2.3367,2.3169,2.2604,2.4367,2.6663,2.9149,2.8564,2.7944,2.6898,2.2378,1.9826,1.8403,1.6028,1.9331,2.4985,2.5008,2.6441,2.8312,2.8294,2.7426,2.6368,2.6355,0.0,0.0,0.0,0.0,2.8294,2.8291,2.8297,2.8289,2.8278,2.8291,2.8291,2.8291,2.8584,2.8133,2.5712,2.465,2.3274,2.0424,2.1206,0.0,1.9798,2.246,2.4932,2.5673,2.7357,2.8447,2.8447,2.8359,2.8291,2.8291,2.8291,2.8451,2.8867,2.8715,2.9137,3.0446,2.8783,2.7671,2.7378,0.0,0.0,0.0,0.0,0.0,0.0,0.0,0.0,0.0,0.0,0.0,0.0,0.0,0.0,0.0,0.0,0.0,0.0,0.0,0.0,0.0,0.0,0.0,0.0,0.0,0.0,0.0,0.0,0.0,1.8912,2.081,0.0,0.0,0.0,0.0,2.0961,2.0996,2.1771,2.3547,2.326,2.3567,2.4783,2.5324,2.5597,2.5716,2.3883,2.303,2.3155,2.304,2.3007,2.3043,2.4375,2.3577,2.1322,2.3932,2.4845,2.4662,2.7215,2.8252,2.8188,2.7894,2.7744,2.7633,2.749,2.5595,2.3157,2.3129,2.5378,2.8282,2.8305,2.8257,2.8173,2.8177,2.7986,0.0,0.0,2.7916,2.83,2.8325,2.831,2.8319,2.8271,2.8291,2.8291,2.8291,2.7998,2.792,2.8564,2.8984,2.8373,2.5578,0.0,2.4942,2.4007,2.4757,2.6097,2.7884,2.8586,2.8887,2.8887,2.8535,2.8291,2.8291,2.8291,2.8291,2.8344,2.8794,2.89,2.8581,3.0124,2.9891,2.7549,2.696,0.0,0.0,0.0,0.0,0.0,0.0,0.0,0.0,0.0,0.0,0.0,0.0,0.0,0.0,0.0,0.0,0.0,0.0,0.0,0.0,0.0,0.0,0.0,0.0,0.0,0.0,0.0,0.0,2.0117,2.1121,0.0,2.1228,2.2418,2.3185,2.322,2.4498,2.5343,2.5419,2.4992,2.4701,2.4547,2.4188,2.3942,2.3943,2.332,2.2983,2.3029,2.3938,2.4338,2.4388,2.4875,2.4097,2.24,2.3959,2.4789,2.5077,2.5239,2.6809,2.9086,2.8532,2.8301,2.8309,2.8311,2.6026,2.2978,2.3018,2.3838,2.5293,2.7568,2.8278,2.8283,2.8297,2.8309,2.8299,2.8316,2.8319,2.8325,2.8315,2.8279,2.842,2.8978,2.9121,2.9108,2.8908,2.9088,2.9372,2.9561,2.9153,2.8276,2.6746,2.7424,2.7665,2.6218,2.7233,2.8365,2.9072,2.9024,2.8916,2.8916,2.8545,2.8291,2.8291,2.8291,2.8291,2.8291,2.8504,2.8638,2.8848,2.9671,2.9831,2.9336,2.9307,2.6857,0.0,0.0,0.0,0.0,0.0,0.0,0.0,0.0,0.0,0.0,0.0,0.0,0.0,0.0,0.0,0.0,0.0,0.0,0.0,0.0,0.0,0.0,0.0,0.0,0.0,1.8456,2.0096,2.0837,2.2005,2.2723,2.2584,2.4209,2.5293,2.5293,2.6385,2.6805,2.628,2.5447,2.4755,2.4251,2.3588,2.3301,2.3441,2.3653,2.3685,2.3727,2.3766,2.3751,2.3734,2.3984,2.3392,2.2243,2.3293,2.3952,2.4256,2.4177,2.5561,2.7718,2.7075,2.6763,2.6907,2.7944,2.6056,2.2998,2.3007,2.2975,2.337,2.5729,2.7302,2.8295,2.83,2.8313,2.8276,2.8308,2.8288,2.8282,2.8275,2.8768,2.9349,2.9869,3.0013,2.9925,2.9423,2.9748,3.0139,3.0015,2.9296,2.8542,2.816,2.8758,2.8964,2.7818,2.8867,2.9678,2.9385,2.9228,2.9082,2.8935,2.8545,2.835,2.8496,2.8115,2.8047,2.8476,2.8096,2.8147,2.8804,2.8656,2.8794,2.9426,3.0049,2.7805,2.2524,0.0,0.0,0.0,0.0,0.0,0.0,0.0,0.0,0.0,0.0,0.0,0.0,0.0,0.0,0.0,0.0,0.0,0.0,0.0,0.0,0.0,0.0,0.0,1.8704,2.0528,2.178,2.1122,2.3821,2.5244,2.3975,2.5771,2.7021,2.7031,2.6275,2.592,2.6229,2.4621,2.3821,2.4156,2.3897,2.3913,2.4413,2.4856,2.5111,2.5097,2.2425,2.1162,2.1156,2.1849,2.1587,2.0637,2.1917,2.2179,2.184,2.3925,2.4639,2.4256,2.398,2.3857,2.4152,2.71,2.5896,2.2909,2.2999,2.2983,2.3033,2.3152,2.5498,2.8273,2.8201,2.8293,2.8399,2.8351,2.8351,2.836,2.836,2.9609,3.0888,3.0898,3.0888,3.065,2.9806,2.9823,3.0055,3.0072,2.9726,2.9604,3.0121,2.9479,2.8917,2.8936,2.9687,0.0,2.9072,2.9316,2.9404,2.8945,2.8525,2.8437,2.8867,2.7764,2.7598,2.8857,2.7764,2.7441,2.8281,2.7242,2.7017,2.7715,2.9027,2.8482,2.6082,0.0,0.0,0.0,0.0,0.0,0.0,0.0,0.0,0.0,0.0,0.0,0.0,0.0,0.0,0.0,0.0,0.0,0.0,0.0,0.0,0.0,1.9925,2.1388,2.1296,2.3005,2.4273,2.4382,2.5169,2.5547,2.5187,2.6299,2.7148,2.7461,2.7833,2.7927,2.7723,2.7232,2.643,2.5144,2.4496,2.4277,2.4428,2.4903,2.5088,2.5106,2.3342,2.2008,2.1101,2.1928,2.1968,2.1394,2.2194,2.2616,2.2719,2.2845,2.338,2.4227,2.4932,2.4565,2.3764,2.4616,2.2975,2.0641,2.2418,2.3028,2.3431,2.6014,2.7486,2.8002,2.6438,2.7936,3.0205,3.0178,3.0208,3.019,3.0219,3.0519,3.0886,3.0917,3.0897,3.0815,3.0613,3.0623,3.0772,3.1179,3.0495,3.0106,3.0597,3.0461,3.0325,3.0323,3.0547,3.0488,2.9922,2.9687,2.9287,2.8545,2.8086,2.8008,2.8428,2.8144,2.8359,2.9326,2.876,2.8496,2.874,2.8157,2.8088,2.8676,2.7259,2.6404,0.0,0.0,0.0,0.0,0.0,0.0,0.0,0.0,0.0,0.0,0.0,0.0,0.0,0.0,0.0,0.0,0.0,0.0,0.0,0.0,0.0,0.0,2.1644,2.299,2.3694,2.4685,2.5449,2.5654,2.5849,2.6006,2.6006,2.6943,2.7656,2.791,2.8385,2.8595,2.85,2.8175,2.7325,2.5957,2.5939,2.5681,2.5254,2.5164,2.5122,2.5061,2.3947,2.2759,2.1659,2.1983,2.1946,2.1756,2.2212,2.2489,2.2677,2.287,2.3056,2.3299,0.0,0.0,0.0,0.0,2.1887,2.109,2.2505,2.4465,2.6391,2.684,2.6937,2.7043,2.741,2.7975,2.8233,2.7129,2.6765,2.6783,2.6769,2.7655,2.8864,3.0527,3.0918,3.0888,3.0924,3.1073,3.126,3.1318,3.1178,0.0,3.1103,3.0993,3.0738,3.0626,3.0918,3.0791,2.9785,2.9609,2.943,2.8877,2.8447,2.8437,2.9043,2.8603,0.0,0.0,0.0,2.8418,2.7881,2.7451,0.0,0.0,0.0,2.678,2.8073,2.6811,0.0,0.0,2.4872,2.3989,0.0,0.0,0.0,0.0,0.0,0.0,0.0,0.0,0.0,0.0,0.0,0.0,0.0,0.0,0.0,0.0,2.3215,2.4554,2.5586,2.5693,2.5703,2.5752,2.6152,2.6406,2.6455,2.7529,2.8262,2.8359,2.8439,2.8634,2.9046,2.8317,0.0,0.0,0.0,2.7684,2.6675,2.5736,2.5238,2.5246,2.4317,2.3427,2.2582,2.2051,2.1828,2.1876,2.2132,2.2242,2.2422,2.3505,2.3342,2.2324,2.2176,2.3026,2.4175,2.2253,2.2253,2.3152,2.3227,0.0,0.0,2.6224,2.5074,2.5762,2.9198,2.7853,2.4601,2.2211,2.1553,2.1624,2.209,2.3964,2.6594,3.0082,3.0908,3.0889,3.0889,3.126,3.1505,3.1025,3.1572,3.1982,3.165,3.115,3.0765,3.047,3.1045,3.0937,2.9346,2.9434,2.96,2.9502,2.915,0.0,3.0059,2.9092,2.8965,3.0195,2.916,2.7978,2.6797,2.6377,2.6409,2.7026,2.7551,2.889,3.0944,3.1525,3.1793,3.1673,2.6683,2.5079,0.0,0.0,0.0,0.0,0.0,0.0,0.0,0.0,0.0,0.0,0.0,0.0,0.0,0.0,0.0,2.274,2.423,2.5441,2.5674,2.5693,2.582,2.6221,2.6338,2.6523,2.6865,2.7432,2.8066,2.875,2.9111,2.9686,3.0422,3.0344,2.9837,2.8879,2.9007,2.8641,2.7744,2.6754,2.62,2.62,2.4764,0.0,2.3775,2.3102,2.2831,2.2824,2.289,2.3232,2.3663,2.3417,2.3479,2.3618,2.2548,2.2632,2.3389,2.3688,2.3933,2.4169,2.4574,2.5365,2.6092,2.5365,2.5092,2.5264,2.5968,2.572,0.0,2.4474,2.4342,2.5077,2.8177,2.9407,2.9964,3.0701,3.0898,3.0889,3.0889,3.0957,3.1094,3.1348,3.1533,3.1728,3.2002,3.1988,3.1888,3.1826,3.1631,3.1269,3.0596,3.0254,2.9805,2.9121,2.8975,2.9131,2.9648,2.9463,2.9736,3.0693,3.0176,2.956,2.8975,2.8877,2.909,2.9621,3.0255,3.1019,3.1934,3.2521,3.2787,3.2743,3.1108,3.0166,0.0,0.0,0.0,0.0,0.0,0.0,0.0,0.0,0.0,0.0,0.0,2.0419,2.1562,0.0,2.3429,2.4228,2.4765,2.5312,2.5986,2.6064,2.6143,2.6367,2.6572,2.6865,2.7305,2.792,2.8467,2.8887,2.9316,2.9853,3.0508,3.0547,3.0229,2.9412,2.9912,2.9667,2.8701,2.8224,2.7924,2.7924,2.6181,2.5386,2.5546,2.4702,2.434,2.427,2.434,2.4286,2.4046,2.3362,2.3487,2.4015,2.3007,2.3247,2.4285,2.6014,2.6253,2.5793,2.6329,2.6534,2.6713,2.7668,2.7331,2.6362,2.541,2.5085,2.5526,2.7469,2.8597,2.9703,3.1632,3.1871,3.1519,3.1326,3.1299,3.1231,3.0937,3.0889,3.0957,3.1162,3.1377,3.1592,3.1807,3.2021,3.209,3.1875,3.2021,3.1924,3.1289,3.1006,3.0693,3.0264,3.0029,2.999,3.0215,3.0234,3.042,3.0859,3.0449,3.0098,2.9893,2.9687,2.9839,3.0394,3.0715,3.1319,3.221,3.248,3.2642,3.262,3.1955,3.1402,0.0,0.0,0.0,0.0,0.0,0.0,0.0,1.819,1.8604,2.0751,2.1476,2.2169,2.3738,2.3867,2.4155,2.5586,2.531,2.5256,2.6345,2.6514,2.6543,2.6631,2.6934,2.7314,2.7744,2.8398,2.8838,2.8916,2.9316,2.9756,3.0176,3.0283,3.0142,2.9717,3.046,3.0518,2.9726,2.9481,2.9422,2.9362,2.7624,2.6952,2.7168,2.6407,2.605,2.5981,2.5815,2.521,2.4232,2.3736,2.3798,2.4232,2.3673,2.417,2.5357,2.7245,2.7375,2.6743,2.7461,2.7986,2.861,3.0161,2.9865,2.8528,2.6957,2.6339,2.6856,3.0363,3.2339,3.3382,3.3291,3.2737,3.2221,3.1887,3.1799,3.1701,3.1221,3.1143,3.1113,3.1025,3.1289,3.1494,3.1406,3.1758,3.1953,3.168,3.2158,3.2295,3.1601,3.1445,3.1396,3.1396,3.1094,3.0889,3.0889,3.0889,3.0889,3.0889,3.0537,3.0332,3.0332,3.0,3.0049,3.0488,3.06,3.1146,3.2093,3.2378,3.2422,3.2312,3.1798,3.1419,1.7302,1.6992,1.696,1.8042,1.8344,1.9007,0.0,2.1306,2.1277,2.3076,2.3754,2.4195,2.4824,2.5188,2.5606,2.624,2.6259,2.6365,2.6885,2.6943,2.709,2.7532,2.7568,2.7764,2.8184,2.831,2.8516,2.8887,2.9316,2.9756,3.0176,3.0596,3.0772,3.0704,3.083,3.083,3.0704,2.9853,2.9422,2.9362,2.8343,2.7855,2.7855,2.7796,2.7735,2.7675,2.6788,2.5892,2.4988,2.4926,2.4919,2.4988,2.4926,2.498,2.505,2.4734,2.4919,2.5418,2.638,2.7939,2.9629,2.9867,3.0748,3.1712,3.1488,3.0597,3.0214,3.2484,3.3261,3.3275,3.278,3.2599,3.248,3.219,3.216,3.215,3.2101,3.2021,3.1914,3.1523,3.1484,3.1396,3.1025,3.1309,3.1709,3.2041,3.1846,3.1631,3.1533,3.1191,3.0957,3.0957,3.0918,3.0889,3.0889,3.0889,3.0889,3.0889,3.084,3.081,3.081,3.0771,3.08,3.0858,3.1359,3.1694,3.1866,3.2891,3.3173,3.2643,3.2587,3.1815,1.9338,1.9455,1.9446,1.9982,2.0303,2.081,2.1894,2.1865,2.21,2.3799,2.4297,2.4629,2.5332,2.5208,2.532,2.6269,2.6027,2.6097,2.7243,2.7393,2.7549,2.7978,2.7603,2.7563,2.8218,2.8291,2.8467,2.8887,2.9092,2.9482,3.0156,3.0381,3.0615,3.0889,3.0889,3.0889,3.0889,3.046,3.0274,3.0274,2.9303,2.9126,2.9677,2.9066,2.882,2.8701,2.7151,2.625,2.5892,2.5349,2.5111,2.5111,2.5111,2.5111,2.5103,2.5402,2.6059,2.6935,2.819,2.9573,3.086,3.1108,3.1632,3.226,3.2406,3.2042,3.188,3.3058,3.3381,3.3319,3.3136,3.3064,3.3054,3.291,3.29,3.29,3.29,3.29,3.2842,3.2656,3.2432,3.2207,3.2031,3.1728,3.167,3.21,3.2012,3.1894,3.1894,3.1738,3.1354,3.0548,3.0182,3.0039,3.0039,3.0039,3.0274,3.083,3.0889,3.0889,3.0889,3.0889,3.0889,3.0889,3.117,3.158,3.217,3.2684,3.2933,3.2954,3.2954,3.2409,2.0449,2.0957,2.1103,2.1317,2.1826,2.2236,2.2236,2.2324,2.2793,2.4141,2.4512,2.4824,2.5547,2.5235,2.521,2.6374,2.61,2.6174,2.7662,2.7894,2.7949,2.8262,2.7745,2.7584,2.8237,2.8077,2.8197,2.8832,2.9033,2.9424,3.0156,3.0322,3.0547,3.0879,3.0889,3.0889,3.0889,3.0889,3.0889,3.0889,3.0157,3.0216,3.0889,3.0157,2.9667,2.9303,2.7924,2.7211,2.7002,2.604,2.5912,2.6195,2.5646,2.5584,2.5894,2.6249,2.6973,2.7955,2.9389,3.0531,3.1552,3.2175,3.2422,3.2598,3.2734,3.2816,3.2912,3.3281,3.3428,3.3418,3.3418,3.3418,3.3418,3.3418,3.3516,3.3603,3.3603,3.3691,3.374,3.3623,3.3359,3.3105,3.2988,3.2451,3.2187,3.2627,3.249,3.2256,3.2021,3.1885,3.145,3.0455,2.9786,2.9481,2.9795,2.9549,2.9853,3.083,3.0889,3.0889,3.0889,3.0889,3.0889,3.0889,3.1006,3.1437,3.2146,3.2444,3.2664,3.2874,3.3045,3.2754,1.9904,2.0264,2.083,2.165,2.249,2.3052,2.3052,2.3428,2.3867,2.4316,2.4756,2.5195,2.5606,2.5684,2.5966,2.6855,2.6941,2.7243,2.8154,2.8271,2.8281,2.8291,2.8291,2.8291,2.8291,2.753,2.7538,2.8832,2.9307,2.9736,3.0176,3.0625,3.0879,3.0889,3.0889,3.0889,3.0889,3.0889,3.0889,3.0889,3.0889,3.0889,3.0889,3.0889,3.0343,2.9422,2.9362,2.9039,2.8473,2.7437,2.7854,2.895,2.6933,2.675,2.7512,2.6559,2.6649,2.739,2.8755,3.02,3.1543,3.2454,3.3057,3.3389,3.3345,3.3408,3.3408,3.3428,3.3428,3.3418,3.3418,3.3418,3.3418,3.3418,3.375,3.4053,3.4053,3.4375,3.4541,3.4131,3.4043,3.3906,3.3476,3.3379,3.3516,3.3945,3.331,3.248,3.1641,3.1182,3.0918,3.085,2.9981,2.9795,3.0772,2.9971,2.9853,3.083,3.0889,3.0889,3.0889,3.0889,3.0889,3.0889,3.1289,3.1504,3.1514,3.2585,3.2804,3.2229,3.2814,3.2754,2.0518,2.1113,2.165,2.251,2.2886,2.3169,2.3506,2.3682,2.3994,2.4707,2.4971,2.5205,2.5606,2.5693,2.5966,2.6875,2.7012,2.7314,2.8174,2.8291,2.8291,2.8291,2.8049,2.7943,2.8267,2.8014,2.8259,2.9297,2.9482,2.9883,3.0625,3.0801,3.0889,3.0889,3.0889,3.0889,3.0889,3.0889,3.0889,3.0889,3.0889,3.0889,3.0898,3.1182,3.1121,3.0765,3.0423,3.0185,2.9938,2.896,2.8862,2.9235,2.8546,2.8043,2.7697,2.7549,2.8124,2.8981,2.9428,3.032,3.1493,3.2802,3.331,3.3418,3.3418,3.3418,3.3418,3.3418,3.3418,3.3418,3.3418,3.3418,3.3496,3.3779,3.418,3.457,3.4883,3.5283,3.5527,3.5391,3.5137,3.4902,3.4756,3.4248,3.3711,3.3291,3.2978,3.249,3.1631,3.1396,3.1062,3.0448,3.0315,3.0311,3.0348,3.0081,3.0146,3.085,3.0889,3.0889,3.0889,3.1162,3.1309,3.1309,3.1728,3.209,3.2363,3.2745,3.29,3.2998,3.3175,3.3175,2.1113,2.167,2.209,2.2886,2.3091,2.3208,2.3691,2.3906,2.4219,2.4969,2.5116,2.5156,2.5449,2.5586,2.5966,2.6875,2.7148,2.7549,2.8398,2.8389,2.8291,2.8291,2.8039,2.7988,2.8267,2.8428,2.8809,2.9577,2.9626,2.9951,3.084,3.0889,3.0889,3.0889,3.0889,3.0889,3.0889,3.0889,3.0967,3.1113,3.1113,3.1191,3.1357,3.1631,3.1748,3.1707,3.1405,3.1299,3.1361,3.0378,3.0282,3.0661,2.9517,2.9136,2.9162,2.8634,2.9107,2.9999,2.9999,3.0829,3.2159,3.3078,3.3418,3.3418,3.3418,3.3418,3.3418,3.3418,3.3418,3.3418,3.3418,3.3418,3.3496,3.3769,3.4277,3.4775,3.5078,3.5605,3.6016,3.6016,3.5801,3.5615,3.5615,3.5146,3.4473,3.3603,3.335,3.2891,3.1885,3.1748,3.1508,3.0886,3.0738,3.0724,3.0844,3.0503,3.0641,3.1308,3.1348,3.1348,3.1348,3.1455,3.1592,3.1748,3.2031,3.2373,3.2793,3.2939,3.3164,3.3418,3.3418,3.3418,2.1562,2.1934,2.2148,2.2925,2.313,2.3247,2.3721,2.415,2.456,2.4998,2.5077,2.5067,2.5028,2.5371,2.5927,2.6816,2.7353,2.7949,2.8769,2.8545,2.8291,2.8291,2.831,2.833,2.833,2.8701,2.9131,2.9626,2.96,2.998,3.084,3.0889,3.0889,3.0889,3.0889,3.0889,3.0889,3.0918,3.1123,3.1514,3.1543,3.1768,3.2229,3.2187,3.2207,3.2207,3.2226,3.2461,3.276,3.1734,3.2159,3.3102,3.0195,3.0195,3.168,2.9674,2.9543,3.0381,3.0381,3.1671,3.3355,3.3355,3.3418,3.3418,3.3418,3.3418,3.3418,3.3418,3.3418,3.3418,3.3418,3.3418,3.3418,3.3418,3.4082,3.4697,3.4697,3.5391,3.6016,3.6016,3.6016,3.6016,3.6016,3.6016,3.5723,3.4863,3.4394,3.3672,3.2373,3.2207,3.2207,3.2207,3.1394,3.12,3.2136,3.1304,3.1172,3.2168,3.2168,3.2168,3.2229,3.1787,3.1777,3.2187,3.2217,3.2432,3.2832,3.3223,3.3418,3.3418,3.3418,3.3418,2.209,2.2578,2.2949,2.3486,2.3623,2.373,2.416,2.459,2.4844,2.4629,2.458,2.4385,2.375,2.4512,2.542,2.5977,2.6963,2.7904,2.8379,2.8359,2.8291,2.8291,2.8574,2.876,2.876,2.915,2.958,3.0,3.0039,3.0283,3.0859,3.0889,3.0889,3.0889,3.0889,3.0889,3.0889,3.1201,3.1406,3.1523,3.1846,3.206,3.2178,3.249,3.2637,3.2656,3.2969,3.3164,3.3199,3.2937,3.3058,3.3292,3.2511,3.2065,3.1809,3.1295,3.1295,3.1488,3.1488,3.1809,3.2393,3.3165,3.3418,3.3418,3.3418,3.3418,3.3418,3.3418,3.3418,3.3418,3.3418,3.3418,3.3418,3.3418,3.4082,3.4697,3.4697,3.5391,3.6016,3.6016,3.6016,3.6016,3.6016,3.6016,3.584,3.5303,3.5127,3.4473,3.2842,3.2637,3.2637,3.2637,3.2723,3.271,3.2666,3.1679,3.1422,3.2127,3.1478,3.1356,3.2168,3.2363,3.2519,3.2637,3.2939,3.3154,3.3262,3.3369,3.3418,3.3418,3.3418,3.367,2.2516,2.2916,2.3149,2.3437,2.3652,2.375,2.3613,2.4062,2.4277,2.3467,2.3457,2.3379,2.2715,2.3945,2.5215,2.5615,2.7129,2.8301,2.8535,2.8564,2.8496,2.831,2.8506,2.8711,2.8896,2.9316,2.9746,3.0166,3.0195,3.04,3.0869,3.0889,3.0889,3.0889,3.0889,3.0889,3.0889,3.1309,3.1611,3.1807,3.2236,3.2539,3.2725,3.2959,3.3066,3.3086,3.332,3.3418,3.3418,3.3418,3.3418,3.3355,3.2902,3.2648,3.2521,3.2065,3.2202,3.2584,3.2584,3.2584,3.2648,3.3228,3.3418,3.3418,3.3418,3.3418,3.3418,3.3418,3.3418,3.3418,3.3418,3.3418,3.3418,3.3418,3.4082,3.4697,3.4697,3.5391,3.6016,3.6016,3.6016,3.6016,3.6016,3.6016,3.5879,3.5459,3.5391,3.4961,3.3779,3.3476,3.3281,3.3096,3.3281,3.333,3.3086,3.2493,3.2325,3.2672,3.2147,3.2076,3.2715,3.2764,3.2881,3.3066,3.3115,3.3242,3.3418,3.3418,3.3418,3.3418,3.3418,3.3733,2.3008,2.314,2.312,2.3237,2.3594,2.3662,2.2871,2.3252,2.3408,2.207,2.2041,2.2119,2.1699,2.332,2.4912,2.5421,2.7253,2.8711,2.8818,2.8838,2.8701,2.834,2.834,2.8545,2.8965,2.9394,2.9834,3.0254,3.0293,3.0459,3.0869,3.0889,3.0918,3.0976,3.0976,3.0996,3.1055,3.1475,3.1875,3.2256,3.2676,3.3066,3.3418,3.3418,3.3418,3.3418,3.3418,3.3292,3.3228,3.3355,3.3292,3.3102,3.2393,3.2648,3.3292,3.2393,3.2648,3.3418,3.3418,3.3418,3.3418,3.3418,3.3418,3.3418,3.3418,3.3418,3.3418,3.3418,3.3457,3.3506,3.3506,3.3545,3.3594,3.3594,3.4209,3.4795,3.4795,3.5439,3.6016,3.6016,3.6016,3.6016,3.6016,3.6016,3.5898,3.5527,3.5478,3.5312,3.4853,3.4424,3.3984,3.3555,3.3506,3.3486,3.3428,3.3292,3.3228,3.3418,3.3292,3.3292,3.3418,3.3076,3.3047,3.3418,3.3066,3.3057,3.3418,3.3418,3.3418,3.3418,3.3418,3.3796,2.3535,2.3408,2.3266,2.3968,2.4248,2.418,2.3682,2.3682,2.333,2.1639,2.1113,2.0811,2.0342,2.1738,2.333,2.4463,2.6162,2.7598,2.8301,2.8398,2.8369,2.8301,2.8603,2.8984,2.9414,2.9844,3.0283,3.0732,3.0771,3.0801,3.0889,3.0889,3.1055,3.1396,3.1406,3.1582,3.1943,3.2363,3.2607,3.2695,3.3115,3.335,3.3418,3.3418,3.3418,3.3418,3.3418,3.2912,3.2202,3.3038,3.2902,3.2202,3.2912,3.3228,3.3355,3.3228,3.3228,3.3418,3.3418,3.3418,3.3418,3.3418,3.3418,3.3418,3.3418,3.3418,3.3418,3.3418,3.3682,3.3965,3.3965,3.4219,3.4473,3.4473,3.4883,3.5273,3.5273,3.5664,3.6016,3.6016,3.6016,3.6016,3.6016,3.6016,3.5996,3.5928,3.5908,3.5762,3.5332,3.4873,3.4434,3.4004,3.3965,3.3809,3.3447,3.2648,3.2521,3.3355,3.2648,3.2521,3.3355,3.335,3.335,3.3418,3.335,3.335,3.3418,3.3418,3.3418,3.3418,3.3418,3.4047,2.3344,2.3467,2.3574,2.3984,2.4424,2.4355,2.2812,2.2803,2.2441,2.0011,1.9736,1.9834,1.9629,2.1191,2.2861,2.3916,2.5928,2.75,2.791,2.834,2.8535,2.832,2.8662,2.9092,2.9531,2.9951,3.0391,3.0859,3.0889,3.0889,3.0889,3.1094,3.1309,3.1514,3.1738,3.1953,3.2229,3.2588,3.2793,3.2803,3.3223,3.3418,3.3418,3.3418,3.3418,3.3418,3.3418,3.3102,3.2711,3.3228,3.3102,3.2711,3.3228,3.3418,3.3418,3.3418,3.3418,3.3418,3.3418,3.3418,3.3418,3.3418,3.3418,3.3418,3.3418,3.3584,3.376,3.376,3.4072,3.4394,3.4394,3.4551,3.4697,3.4697,3.5049,3.5459,3.5674,3.5879,3.6016,3.6016,3.6016,3.6016,3.6016,3.6016,3.6016,3.6016,3.6016,3.5947,3.5752,3.5527,3.5127,3.4473,3.4199,3.3994,3.3779,3.31,3.2902,3.3355,3.2975,3.2912,3.3355,3.3418,3.3418,3.3418,3.3418,3.3418,3.3418,3.3418,3.3418,3.3418,3.3418,3.411,2.3208,2.3525,2.3838,2.4014,2.457,2.4443,2.2009,2.1921,2.1572,1.873,1.8603,1.9072,1.9258,2.0752,2.2353,2.3594,2.5654,2.7288,2.7669,2.831,2.8662,2.833,2.874,2.9189,2.9531,3.0039,3.0498,3.0859,3.0889,3.0889,3.0889,3.1289,3.1562,3.165,3.208,3.2344,3.2441,3.2764,3.293,3.293,3.3262,3.3418,3.3418,3.3418,3.3418,3.3418,3.3418,3.3292,3.3102,3.3292,3.3292,3.3102,3.3292,3.3418,3.3418,3.3418,3.3418,3.3418,3.3418,3.3418,3.3437,3.3525,3.3564,3.3564,3.3564,3.3867,3.4209,3.4209,3.4521,3.4853,3.4853,3.4912,3.498,3.498,3.5264,3.5615,3.5947,3.6016,3.6016,3.6016,3.6016,3.6016,3.6016,3.6016,3.6016,3.6016,3.6016,3.6016,3.6016,3.6016,3.5752,3.5059,3.4609,3.4316,3.4219,3.3809,3.3564,3.3564,3.3476,3.3418,3.3418,3.3418,3.3418,3.3418,3.3418,3.3418,3.3418,3.3418,3.3418,3.3418,3.3418,3.411,2.3623,2.376,2.3975,2.4803,2.5057,2.46,2.2803,2.2158,2.1309,1.9007,1.834,1.8359,1.9141,1.9766,2.0947,2.3389,2.4695,2.5908,2.7493,2.8057,2.834,2.8301,2.9014,2.9531,2.9626,3.0332,3.084,3.0889,3.0889,3.0889,3.0889,3.1289,3.1699,3.21,3.2519,3.292,3.3301,3.335,3.3359,3.3369,3.3408,3.3418,3.3418,3.3418,3.3418,3.3418,3.3418,3.2912,3.2138,3.3038,3.2848,3.2138,3.3038,3.3418,3.3418,3.3418,3.3418,3.3418,3.3418,3.3418,3.3486,3.3887,3.4014,3.4014,3.4014,3.4307,3.4639,3.4639,3.4971,3.5332,3.5332,3.5615,3.5898,3.5898,3.5928,3.5976,3.6016,3.6016,3.6016,3.6016,3.6016,3.6016,3.6016,3.6016,3.6016,3.6016,3.6016,3.6016,3.6016,3.6016,3.5986,3.5908,3.5527,3.5098,3.4678,3.4258,3.4014,3.4014,3.3643,3.3418,3.3418,3.3418,3.3418,3.3418,3.3418,3.3418,3.3418,3.3418,3.3418,3.3418,3.3418,3.411,2.3237,2.3779,2.4248,2.459,2.4873,2.4619,2.29,2.1982,2.0908,1.8997,1.8266,1.8271,1.9131,1.9629,2.0596,2.2685,2.374,2.4727,2.5977,2.6699,2.7334,2.7851,2.8662,2.9385,2.9902,3.0518,3.0889,3.0889,3.0889,3.0996,3.126,3.168,3.2109,3.2529,3.2949,3.3252,3.3418,3.3418,3.3418,3.3418,3.3418,3.3418,3.3418,3.3418,3.3418,3.3418,3.3418,3.2838,3.201,3.2975,3.2785,3.201,3.3038,3.3418,3.3418,3.3418,3.3418,3.3457,3.3721,3.3809,3.3877,3.4307,3.4639,3.4814,3.4531,3.4766,3.5117,3.5117,3.543,3.5771,3.5771,3.5898,3.6016,3.6016,3.6016,3.6016,3.6016,3.6016,3.6016,3.6016,3.6016,3.6016,3.6016,3.6016,3.6016,3.6016,3.6016,3.6016,3.6016,3.6016,3.6016,3.6016,3.5644,3.5322,3.5137,3.4707,3.4453,3.4453,3.4053,3.3809,3.3809,3.3564,3.3418,3.3418,3.3682,3.3809,3.3809,3.4062,3.4062,3.3809,3.3809,3.4369,2.3286,2.4053,2.4639,2.4775,2.4941,2.4619,2.29,2.1814,2.0703,1.8958,1.8266,1.8271,1.9131,1.9531,2.0342,2.2207,2.3115,2.3984,2.5107,2.5918,2.666,2.7393,2.8105,2.8887,2.9736,3.0469,3.0889,3.0889,3.0889,3.1133,3.168,3.2002,3.2363,3.2783,3.3203,3.3418,3.3418,3.3418,3.3418,3.3418,3.3418,3.3418,3.3418,3.3418,3.3418,3.3418,3.3418,3.2838,3.201,3.2975,3.2785,3.201,3.3038,3.3418,3.3418,3.3418,3.3506,3.3652,3.3965,3.415,3.4326,3.4766,3.5127,3.5351,3.5156,3.5322,3.5586,3.5586,3.5791,3.6016,3.6016,3.6016,3.6016,3.6016,3.6016,3.6016,3.6016,3.6016,3.6016,3.6016,3.6016,3.6016,3.6016,3.6016,3.6016,3.6016,3.6016,3.6016,3.6016,3.6016,3.6016,3.6016,3.5762,3.5586,3.5586,3.5166,3.4902,3.4902,3.4492,3.4258,3.4258,3.3848,3.3613,3.3613,3.3916,3.4072,3.4072,3.4365,3.4365,3.4072,3.4072,3.4742,2.4062,2.4727,2.5166,2.5567,2.5391,2.4619,2.29,2.1814,2.0703,1.8958,1.8266,1.8271,1.9131,1.9287,2.0,2.2158,2.2828,2.3705,2.544,2.6113,2.6543,2.6973,2.7412,2.8008,2.8848,3.0117,3.0889,3.0889,3.0889,3.126,3.218,3.2229,3.2363,3.2783,3.3203,3.3418,3.3418,3.3418,3.3418,3.3418,3.3418,3.3418,3.3418,3.3418,3.3418,3.3418,3.3418,3.2838,3.201,3.2975,3.2785,3.201,3.3038,3.3418,3.3418,3.3418,3.3691,3.4062,3.4072,3.4346,3.4766,3.5234,3.5391,3.5469,3.5879,3.6006,3.6016,3.6016,3.6016,3.6016,3.6016,3.6016,3.6016,3.6016,3.6016,3.6016,3.6016,3.6016,3.6016,3.6016,3.6016,3.6016,3.6016,3.6016,3.6016,3.6016,3.6016,3.6016,3.6016,3.6016,3.6016,3.6016,3.6016,3.6016,3.6016,3.5625,3.5391,3.5391,3.4951,3.4687,3.4687,3.4287,3.4062,3.4062,3.4072,3.4072,3.4072,3.4072,3.4072,3.4072,3.4072,3.5071,2.25,2.3203,2.3711,2.3564,2.3428,2.3105,2.2275,2.1406,2.0537,1.9687,1.918,1.9053,1.9609,1.9717,2.0332,2.2207,2.2627,2.3213,2.4582,2.5732,2.666,2.7373,2.8887,2.9971,3.0244,3.0644,3.0889,3.0889,3.0889,3.126,3.2119,3.2229,3.249,3.3203,3.335,3.3418,3.3418,3.3418,3.3418,3.3418,3.3418,3.3418,3.3418,3.3418,3.3418,3.3418,3.3418,3.2384,3.0963,3.2711,3.2384,3.0963,3.2711,3.3418,3.3457,3.376,3.3955,3.416,3.4766,3.5059,3.5244,3.5684,3.582,3.585,3.5976,3.6016,3.6016,3.6016,3.6016,3.6016,3.6016,3.6016,3.6016,3.6016,3.6016,3.6016,3.6016,3.6016,3.6016,3.6016,3.6016,3.6016,3.6016,3.6016,3.6016,3.6016,3.6016,3.6016,3.6016,3.6016,3.6016,3.6016,3.6016,3.6016,3.6016,3.5898,3.582,3.582,3.541,3.5176,3.5176,3.4746,3.4502,3.4502,3.4814,3.4971,3.4971,3.4971,3.5077,3.5291,3.5743,3.6521,2.1631,2.25,2.3033,2.2769,2.2627,2.2402,2.1982,2.1241,2.0478,2.0,1.958,1.9414,1.9834,1.9912,2.0342,2.1797,2.2168,2.2773,2.4219,2.541,2.6582,2.7764,2.9375,3.0391,3.0391,3.0693,3.0889,3.0889,3.0889,3.126,3.2119,3.2229,3.2559,3.3389,3.3418,3.3418,3.3418,3.3418,3.3418,3.3418,3.3418,3.3418,3.3418,3.3418,3.3418,3.3418,3.3418,3.2447,0.0,3.2711,3.2384,3.1092,3.2775,3.3525,3.3701,3.3975,3.4287,3.4648,3.5205,3.5498,3.5674,3.5937,3.6016,3.6016,3.6016,3.6016,3.6016,3.6016,3.6016,3.6016,3.6016,3.6016,3.6016,3.6016,3.6016,3.6016,3.6016,3.6016,3.6016,3.6016,3.6016,3.6016,3.6016,3.6016,3.6016,3.6016,3.6016,3.6016,3.6016,3.6016,3.6016,3.6016,3.6016,3.6016,3.6016,3.6016,3.6016,3.6016,3.5771,3.5635,3.5635,3.5205,3.4961,3.4961,3.5244,3.5391,3.5391,3.5481,3.5574,3.5826,3.673,3.7613,0.0,2.2295,2.2906,2.2867,2.2604,2.2275,2.1875,2.1192,0.0,2.0049,1.9648,1.9521,1.9971,2.0029,2.0312,2.122,2.1758,2.2607,2.4176,2.5256,2.6491,2.8281,2.918,2.9658,2.9658,3.041,3.0889,3.0889,3.0918,3.1299,3.2119,3.2258,3.2588,3.3398,3.3418,3.3418,3.3418,3.3418,3.3418,3.3418,3.3418,3.3418,3.3418,3.3418,3.3418,3.3418,3.3292,3.2775,3.1937,3.2902,3.2711,3.201,3.3067,3.3721,3.4082,3.4141,3.4687,3.54,3.543,3.5693,3.6016,3.6016,3.6016,3.6016,3.6016,3.6016,3.6016,3.6016,3.6016,3.6016,3.6016,3.6016,3.6016,3.6016,3.6016,3.6016,3.6016,3.6016,3.6016,3.6016,3.6016,3.6016,3.6016,3.6016,3.6016,3.6016,3.6016,3.6016,3.6016,3.6016,3.6016,3.6016,3.6016,3.6016,3.6016,3.6016,3.6016,3.6016,3.6016,3.6016,3.6016,3.5644,3.5439,3.5439,3.5439,3.54,3.5342,3.5589,3.5771,3.5891,3.7253,3.8337,1.9251,0.0,2.1084,2.0752,2.085,2.1036,0.0,2.0752,2.0576,2.0478,2.037,2.0546,2.1279,2.1152,2.1385,2.2939,2.3271,2.3593,2.4276,2.6008,2.792,3.006,3.0459,3.0576,3.0576,3.0771,3.0889,3.0889,3.1191,3.1601,3.2139,3.2471,3.2891,3.3408,3.3418,3.3418,3.3418,3.3418,3.3418,3.3418,3.3418,3.3418,3.3418,3.3418,3.3418,3.3355,3.2584,3.2138,3.1946,3.2138,3.2138,3.2038,3.3396,3.3984,3.415,3.4834,3.5215,3.5439,3.5762,3.5937,3.6016,3.6016,3.6016,3.6016,3.6016,3.6016,3.6016,3.6016,3.6016,3.6016,3.6016,3.6016,3.6016,3.6016,3.6016,3.6016,3.6016,3.6016,3.6016,3.6016,3.6016,3.6016,3.6016,3.6016,3.6016,3.6016,3.6016,3.6016,3.6016,3.6016,3.6016,3.6016,3.6016,3.6016,3.6016,3.6016,3.6016,3.6016,3.6016,3.6016,3.6016,3.5928,3.5869,3.5869,3.5869,3.5537,3.4863,3.5805,3.641,3.6666,3.7792,3.8916,1.8315,1.958,2.081,2.0576,2.085,2.1212,2.1212,2.0899,2.0605,2.0605,2.0605,2.0811,2.1465,2.1875,2.2422,2.335,2.417,2.4861,2.5442,2.7248,2.8945,3.0091,3.0645,3.0889,3.0889,3.0889,3.0889,3.0889,3.1279,3.1709,3.2148,3.2568,3.2988,3.3408,3.3418,3.3418,3.3418,3.3418,3.3418,3.3418,3.3418,3.3418,3.3418,3.3418,3.3418,3.3355,3.2329,3.2138,3.2521,3.2074,3.2192,3.2696,3.3704,3.4189,3.4443,3.5137,3.5517,3.5713,3.5937,3.6016,3.6016,3.6016,3.6016,3.6016,3.6016,3.6016,3.6016,3.6016,3.6016,3.6016,3.6016,3.6016,3.6016,3.6016,3.6016,3.6016,3.6016,3.6016,3.6016,3.6016,3.6016,3.6016,3.6016,3.6016,3.6016,3.6016,3.6016,3.6016,3.6016,3.6016,3.6016,3.6016,3.6016,3.6016,3.6016,3.6016,3.6016,3.6016,3.6016,3.6016,3.6016,3.6016,3.6016,3.6016,3.6016,3.5693,3.5019,3.6228,3.694,3.7224,3.8167,3.9087,1.8252,1.9796,2.1307,2.0976,2.1416,2.1865,2.1807,2.1201,2.0723,2.0791,2.0811,2.0967,2.1561,2.2568,2.3394,2.3658,2.4848,2.6119,2.7065,2.8504,2.9507,2.9632,3.0401,3.0889,3.0889,3.0889,3.0918,3.0986,3.1377,3.1807,3.2246,3.2666,3.3057,3.3408,3.3418,3.3418,3.3418,3.3418,3.3418,3.3418,3.3418,3.3418,3.3418,3.3418,3.3418,3.3355,3.2329,3.2457,3.3292,3.2329,3.2559,3.3564,3.3994,3.4424,3.4863,3.5322,3.5713,3.6016,3.6016,3.6016,3.6016,3.6016,3.6016,3.6016,3.6016,3.6016,3.6016,3.6016,3.6016,3.6016,3.6016,3.6016,3.6016,3.6016,3.6016,3.6016,3.6016,3.6016,3.6016,3.6016,3.6016,3.6016,3.6016,3.6016,3.6016,3.6016,3.6016,3.6016,3.6016,3.6016,3.6016,3.6016,3.6016,3.6016,3.6016,3.6016,3.6016,3.6016,3.6016,3.6016,3.6016,3.6016,3.6016,3.6016,3.6016,3.581,3.5391,3.6755,3.7457,3.7512,3.8487,3.9198,1.9326,2.0937,2.1875,2.0049,2.0752,2.1787,2.1416,2.119,2.124,2.1611,2.1689,2.2139,2.3652,2.3799,2.418,2.5654,2.6101,2.6792,2.8356,2.8822,2.9421,3.0529,3.083,3.0889,3.0889,3.0889,3.1035,3.1396,3.1816,3.2256,3.2676,3.3096,3.335,3.3418,3.3418,3.3418,3.3418,3.3418,3.3418,3.3418,3.3418,3.3418,3.3418,3.3418,3.3418,3.3355,3.2329,3.2457,3.3292,3.2329,3.273,3.4014,3.4434,3.4883,3.5342,3.5771,3.5967,3.6016,3.6016,3.6016,3.6016,3.6016,3.6016,3.6016,3.6016,3.6016,3.6016,3.6016,3.6016,3.6016,3.6016,3.6016,3.6016,3.6016,3.6016,3.6016,3.6016,3.6016,3.6016,3.6016,3.6016,3.6016,3.6016,3.6016,3.6016,3.6016,3.6016,3.6016,3.6016,3.6016,3.6016,3.6016,3.6016,3.6016,3.6016,3.6016,3.6016,3.6016,3.6016,3.6016,3.6016,3.6016,3.6016,3.6016,3.6016,3.581,3.5391,3.6755,3.7457,3.7512,3.8884,3.97,1.8721,2.0146,2.1279,2.0527,2.2168,2.3916,2.3666,2.3257,2.3008,2.3213,2.3252,2.3643,2.4855,2.5537,2.6445,2.8164,2.825,2.8239,2.8793,2.926,2.9719,3.0041,3.0587,3.0889,3.0889,3.0889,3.1064,3.1484,3.1924,3.2353,3.2773,3.3193,3.3418,3.3418,3.3418,3.3418,3.3418,3.3418,3.3418,3.3418,3.3418,3.3418,3.3418,3.3418,3.3418,3.3355,3.2329,3.2457,3.3311,3.2566,3.2977,3.4141,3.4814,3.5205,3.5449,3.5869,3.6016,3.6016,3.6016,3.6016,3.6016,3.6016,3.6016,3.6016,3.6016,3.6016,3.6016,3.6016,3.6016,3.6016,3.6016,3.6016,3.6016,3.6016,3.6016,3.6016,3.6016,3.6016,3.6016,3.6016,3.6016,3.6016,3.6016,3.6016,3.6016,3.6016,3.6016,3.6016,3.6016,3.6016,3.6016,3.6016,3.6016,3.6016,3.6016,3.6016,3.6016,3.6016,3.6016,3.6016,3.6016,3.6016,3.6016,3.6016,3.6016,3.5928,3.5732,3.71,3.7808,3.7864,3.9078,3.9732,1.8652,1.9727,2.0898,2.1641,2.3374,2.504,2.5488,2.4902,2.4355,2.4658,2.468,2.4953,2.582,2.709,2.8379,2.9687,2.9795,2.9608,2.9182,2.9834,3.019,2.9806,3.0401,3.0889,3.0889,3.0889,3.1064,3.1484,3.1924,3.2353,3.2773,3.3193,3.3418,3.3418,3.3418,3.3418,3.3418,3.3418,3.3418,3.3418,3.3418,3.3418,3.3418,3.3418,3.3418,3.3355,3.2584,3.2711,3.3394,3.3032,3.339,3.4297,3.5088,3.5459,3.5586,3.5898,3.6016,3.6016,3.6016,3.6016,3.6016,3.6016,3.6016,3.6016,3.6016,3.6016,3.6016,3.6016,3.6016,3.6016,3.6016,3.6016,3.6016,3.6016,3.6016,3.6016,3.6016,3.6016,3.6016,3.6016,3.6016,3.6016,3.6016,3.6016,3.6016,3.6016,3.6016,3.6016,3.6016,3.6016,3.6016,3.6016,3.6016,3.6016,3.6016,3.6016,3.6016,3.6016,3.6016,3.6016,3.6016,3.6016,3.6016,3.6016,3.6016,3.6093,3.6287,3.7528,3.8185,3.8385,3.9293,3.9786,2.0527,2.1054,2.1531,2.3203,2.3174,2.3164,2.4756,2.4453,2.418,2.5343,2.5596,2.5859,2.6768,2.7969,2.8867,2.8984,2.9648,3.0156,3.0071,3.0509,3.0859,3.082,3.083,3.0889,3.0889,3.0889,3.1064,3.1484,3.1924,3.2353,3.2773,3.3193,3.3418,3.3418,3.3418,3.3418,3.3418,3.3418,3.3418,3.3418,3.3418,3.3418,3.3418,3.3418,3.3418,3.3418,3.3292,3.3355,3.3457,3.3823,3.4232,3.4707,3.5205,3.5635,3.5976,3.6006,3.6016,3.6016,3.6016,3.6016,3.6016,3.6016,3.6016,3.6016,3.6016,3.6016,3.6016,3.6016,3.6016,3.6016,3.6016,3.6016,3.6016,3.6016,3.6016,3.6016,3.6016,3.6016,3.6016,3.6016,3.6016,3.6016,3.6016,3.6016,3.6016,3.6016,3.6016,3.6016,3.6016,3.6016,3.6016,3.6016,3.6016,3.6016,3.6016,3.6016,3.6016,3.6016,3.6016,3.6016,3.6016,3.6016,3.6016,3.6016,3.6016,3.6355,3.7011,3.7729,3.8461,3.9144,3.991,4.0225,1.9338,2.0372,2.1483,2.2695,2.3555,2.4414,2.5615,2.6055,2.6484,2.751,2.7715,2.79,2.8496,2.9443,3.0049,2.9766,3.0234,3.0635,3.0635,3.0781,3.0889,3.0889,3.0889,3.0889,3.0889,3.0889,3.1182,3.1865,3.207,3.2461,3.3144,3.334,3.3418,3.3418,3.3418,3.3418,3.3418,3.3418,3.3418,3.3418,3.3418,3.3418,3.3418,3.3418,3.3418,3.3418,3.3418,3.3574,3.3857,3.4287,3.4726,3.5176,3.5615,3.5879,3.6016,3.6016,3.6016,3.6016,3.6016,3.6016,3.6016,3.6016,3.6016,3.6016,3.6016,3.6016,3.6016,3.6016,3.6016,3.6016,3.6016,3.6016,3.6016,3.6016,3.6016,3.6016,3.6016,3.6016,3.6016,3.6016,3.6016,3.6016,3.6016,3.6016,3.6016,3.6016,3.6016,3.6016,3.6016,3.6016,3.6016,3.6016,3.6016,3.6016,3.6016,3.6016,3.6016,3.6016,3.6016,3.6016,3.6016,3.6016,3.6016,3.6016,3.6016,3.6355,3.7079,3.7786,3.8461,3.922,3.9953,4.0279,1.9514,2.0596,2.1834,2.2871,2.3994,2.5137,2.6162,2.6943,2.7744,2.8721,2.8916,2.9053,2.9482,3.0068,3.041,3.0225,3.0586,3.0889,3.0889,3.0889,3.0889,3.0889,3.0889,3.0889,3.0889,3.0889,3.1191,3.1904,3.209,3.248,3.3184,3.335,3.3418,3.3418,3.3418,3.3418,3.3418,3.3418,3.3418,3.3418,3.3418,3.3418,3.3418,3.3418,3.3418,3.3418,3.3418,3.3672,3.4101,3.4531,3.5049,3.5625,3.5908,3.6016,3.6016,3.6016,3.6016,3.6016,3.6016,3.6016,3.6016,3.6016,3.6016,3.6016,3.6016,3.6016,3.6016,3.6016,3.6016,3.6016,3.6016,3.6016,3.6016,3.6016,3.6016,3.6016,3.6016,3.6016,3.6016,3.6016,3.6016,3.6016,3.6016,3.6016,3.6016,3.6016,3.6016,3.6016,3.6016,3.6016,3.6016,3.6016,3.6016,3.6016,3.6016,3.6016,3.6016,3.6016,3.6016,3.6016,3.6016,3.6016,3.6016,3.6016,3.6219,3.6684,3.7404,3.8129,3.8803,3.9549,4.0073,4.0279,2.1748,2.2178,2.2822,2.4092,2.4424,2.4795,2.6103,2.6728,2.7393,2.8662,2.8935,2.9062,2.9502,2.9636,2.9717,3.0127,3.0586,3.0889,3.0889,3.0889,3.0889,3.0889,3.0889,3.0889,3.0889,3.0889,3.1064,3.1494,3.1924,3.2353,3.2773,3.3193,3.3418,3.3418,3.3418,3.3418,3.3418,3.3418,3.3418,3.3418,3.3418,3.3418,3.3418,3.3418,3.3418,3.3418,3.3428,3.3672,3.4111,3.4531,3.5225,3.6016,3.6016,3.6016,3.6016,3.6016,3.6016,3.6016,3.6016,3.6016,3.6016,3.6016,3.6016,3.6016,3.6016,3.6016,3.6016,3.6016,3.6016,3.6016,3.6016,3.6016,3.6016,3.6016,3.6016,3.6016,3.6016,3.6016,3.6016,3.6016,3.6016,3.6016,3.6016,3.6016,3.6016,3.6016,3.6016,3.6016,3.6016,3.6016,3.6016,3.6016,3.6016,3.6016,3.6016,3.6016,3.6016,3.6016,3.6016,3.6016,3.6016,3.6016,3.6016,3.6016,3.6751,3.7404,3.8109,3.8869,3.9549,4.0279,4.0279,4.0279,1.9941,2.1484,2.3057,2.3437,2.5352,2.7168,2.7266,2.7617,2.8281,2.9551,3.0078,3.0244,3.0049,3.0283,3.043,3.0234,3.0586,3.0889,3.0889,3.0889,3.0889,3.0889,3.0889,3.0889,3.0889,3.0889,3.1191,3.1924,3.21,3.248,3.3203,3.335,3.3418,3.3418,3.3418,3.3418,3.3418,3.3418,3.3418,3.3418,3.3418,3.3418,3.3418,3.3418,3.3418,3.3437,3.375,3.4121,3.457,3.5322,3.5781,3.6016,3.6016,3.6016,3.6016,3.6016,3.6016,3.6016,3.6016,3.6016,3.6016,3.6016,3.6016,3.6016,3.6016,3.6016,3.6016,3.6016,3.6016,3.6016,3.6016,3.6016,3.6016,3.6016,3.6016,3.6016,3.6016,3.6016,3.6016,3.6016,3.6016,3.6016,3.6016,3.6016,3.6016,3.6016,3.6016,3.6016,3.6016,3.6016,3.6016,3.6016,3.6016,3.6016,3.6016,3.6016,3.6016,3.6016,3.6016,3.6016,3.6016,3.6016,3.6219,3.6742,3.7011,3.7683,3.8869,3.9078,3.9549,4.0279,4.0279,4.0279,2.1328,2.3105,2.4775,2.5117,2.6504,2.79,2.833,2.8613,2.9072,3.0,3.042,3.0586,3.0488,3.0547,3.0586,3.0488,3.0703,3.0889,3.0889,3.0889,3.0889,3.0889,3.0889,3.0889,3.0889,3.0889,3.125,3.21,3.2229,3.2529,3.3379,3.3418,3.3418,3.3418,3.3418,3.3418,3.3418,3.3418,3.3418,3.3418,3.3418,3.3418,3.3418,3.3418,3.3418,3.3457,3.4062,3.457,3.5029,3.5732,3.6016,3.6016,3.6016,3.6016,3.6016,3.6016,3.6016,3.6016,3.6016,3.6016,3.6016,3.6016,3.6016,3.6016,3.6016,3.6016,3.6016,3.6016,3.6016,3.6016,3.6016,3.6016,3.6016,3.6016,3.6016,3.6016,3.6016,3.6016,3.6016,3.6016,3.6016,3.6016,3.6016,3.6016,3.6016,3.6016,3.6016,3.6016,3.6016,3.6016,3.6016,3.6016,3.6016,3.6016,3.6016,3.6016,3.6016,3.6016,3.6016,3.6016,3.6016,3.6016,3.6219,3.6684,3.7398,3.8125,3.8737,3.9341,3.9888,4.0279,4.0279,4.0279,2.4333,2.5781,2.71,2.792,2.7646,2.7607,2.9209,2.9655,2.9746,3.0176,3.0264,3.0391,3.081,3.0547,3.04,3.082,3.0889,3.0889,3.0889,3.0889,3.0889,3.0889,3.0889,3.0889,3.0889,3.0889,3.125,3.21,3.2229,3.2529,3.3379,3.3418,3.3418,3.3418,3.3418,3.3418,3.3418,3.3418,3.3418,3.3418,3.3418,3.3418,3.3418,3.3418,3.3457,3.3584,3.4365,3.498,3.5478,3.5859,3.6016,3.6016,3.6016,3.6016,3.6016,3.6016,3.6016,3.6016,3.6016,3.6016,3.6016,3.6016,3.6016,3.6016,3.6016,3.6016,3.6016,3.6016,3.6016,3.6016,3.6016,3.6016,3.6016,3.6016,3.6016,3.6016,3.6016,3.6016,3.6016,3.6016,3.6016,3.6016,3.6016,3.6016,3.6016,3.6016,3.6016,3.6016,3.6016,3.6016,3.6016,3.6016,3.6016,3.6016,3.6016,3.6016,3.6016,3.6016,3.6016,3.6016,3.6016,3.6016,3.6016,3.5996,3.7842,3.8576,3.8273,3.968,4.0279,4.0279,4.0279,4.0279,2.1906,2.3949,2.6093,2.667,2.7656,2.8701,2.9404,2.9824,3.0195,3.0644,3.0742,3.0771,3.0869,3.081,3.0771,3.0869,3.0889,3.0889,3.0889,3.0889,3.0889,3.0889,3.0889,3.0889,3.0889,3.0889,3.125,3.21,3.2229,3.2529,3.3379,3.3418,3.3418,3.3418,3.3418,3.3418,3.3418,3.3418,3.3418,3.3418,3.3418,3.3418,3.3418,3.3418,3.3789,3.4434,3.4619,3.5146,3.5898,3.5976,3.6016,3.6016,3.6016,3.6016,3.6016,3.6016,3.6016,3.6016,3.6016,3.6016,3.6016,3.6016,3.6016,3.6016,3.6016,3.6016,3.6016,3.6016,3.6016,3.6016,3.6016,3.6016,3.6016,3.6016,3.6016,3.6016,3.6016,3.6016,3.6016,3.6016,3.6016,3.6016,3.6016,3.6016,3.6016,3.6016,3.6016,3.6016,3.6016,3.6016,3.6016,3.6016,3.6016,3.6016,3.6016,3.6016,3.6016,3.6016,3.6016,3.6016,3.6016,3.6016,3.6015,3.5994,3.7108,3.8395,3.9862,4.016,4.0279,4.0279,4.0279,4.0279,2.2288,2.4173,2.5937,2.7041,2.8115,2.9033,2.9473,2.9893,3.0332,3.0791,3.0889,3.0889,3.0889,3.0889,3.0889,3.0889,3.0889,3.0889,3.0889,3.0889,3.0889,3.0889,3.0889,3.0889,3.0889,3.0889,3.125,3.21,3.2229,3.2529,3.3379,3.3418,3.3418,3.3418,3.3418,3.3418,3.3418,3.3418,3.3418,3.3418,3.3418,3.3418,3.3418,3.3418,3.3887,3.4697,3.4697,3.5195,3.6016,3.6016,3.6016,3.6016,3.6016,3.6016,3.6016,3.6016,3.6016,3.6016,3.6016,3.6016,3.6016,3.6016,3.6016,3.6016,3.6016,3.6016,3.6016,3.6016,3.6016,3.6016,3.6016,3.6016,3.6016,3.6016,3.6016,3.6016,3.6016,3.6016,3.6016,3.6016,3.6016,3.6016,3.6016,3.6016,3.6016,3.6016,3.6016,3.6016,3.6016,3.6016,3.6016,3.6016,3.6016,3.6016,3.6016,3.6016,3.6016,3.6016,3.6016,3.6016,3.6016,3.6016,3.5967,3.5995,3.6489,3.758,3.9237,3.9931,4.0279,4.0279,4.0279,4.0279,2.2734,2.4551,2.6045,2.7851,2.8603,2.9033,2.9473,2.9893,3.0332,3.0791,3.0889,3.0889,3.0889,3.0889,3.0889,3.0889,3.0889,3.0889,3.0889,3.0889,3.0889,3.0889,3.0889,3.0889,3.0889,3.0889,3.125,3.21,3.2229,3.2529,3.3379,3.3418,3.3418,3.3418,3.3418,3.3418,3.3418,3.3418,3.3418,3.3418,3.3418,3.3418,3.3418,3.3496,3.3965,3.4697,3.4697,3.5195,3.6016,3.6016,3.6016,3.6016,3.6016,3.6016,3.6016,3.6016,3.6016,3.6016,3.6016,3.6016,3.6016,3.6016,3.6016,3.6016,3.6016,3.6016,3.6016,3.6016,3.6016,3.6016,3.6016,3.6016,3.6016,3.6016,3.6016,3.6016,3.6016,3.6016,3.6016,3.6016,3.6016,3.6016,3.6016,3.6016,3.6016,3.6016,3.6016,3.6016,3.6016,3.6016,3.6016,3.6016,3.6016,3.6016,3.6016,3.6016,3.6016,3.6016,3.6016,3.6016,3.6016,3.6016,3.6016,3.6016,3.6028,3.683,3.8489,3.9702,4.0279,4.0279,4.0279,4.0279,1.9821,2.251,2.5664,2.7773,2.8603,2.9033,2.9473,2.9893,3.0332,3.0791,3.0889,3.0889,3.0889,3.0889,3.0889,3.0889,3.0889,3.0889,3.0889,3.0889,3.0889,3.0889,3.0889,3.0889,3.0889,3.0889,3.125,3.21,3.2229,3.2529,3.3379,3.3418,3.3418,3.3418,3.3418,3.3418,3.3418,3.3418,3.3418,3.3418,3.3418,3.3418,3.3428,3.3809,3.4248,3.4697,3.4697,3.5195,3.6016,3.6016,3.6016,3.6016,3.6016,3.6016,3.6016,3.6016,3.6016,3.6016,3.6016,3.6016,3.6016,3.6016,3.6016,3.6016,3.6016,3.6016,3.6016,3.6016,3.6016,3.6016,3.6016,3.6016,3.6016,3.6016,3.6016,3.6016,3.6016,3.6016,3.6016,3.6016,3.6016,3.6016,3.6016,3.6016,3.6016,3.6016,3.6016,3.6016,3.6016,3.6016,3.6016,3.6016,3.6016,3.6016,3.6016,3.6016,3.6016,3.6016,3.6016,3.6016,3.6016,3.6016,3.6016,3.6016,3.6028,3.7294,3.9997,4.0181,4.0279,4.0279,4.0279,4.0279,2.0419,2.3223,2.5908,2.7812,2.8428,2.875,2.9414,2.9717,3.0049,3.0752,3.0684,3.0508,3.0508,3.0508,3.0508,3.0508,3.0723,3.0889,3.0889,3.0889,3.0889,3.0889,3.0889,3.0889,3.0889,3.0889,3.1143,3.1758,3.2031,3.2432,3.3037,3.3301,3.3418,3.3418,3.3418,3.3418,3.3418,3.3418,3.3418,3.3418,3.3418,3.3555,3.3799,3.3984,3.4297,3.4717,3.498,3.5439,3.6016,3.6016,3.6016,3.6016,3.6016,3.6016,3.6016,3.6016,3.6016,3.6016,3.6016,3.6016,3.6016,3.6016,3.6016,3.6016,3.6016,3.6016,3.6016,3.6016,3.6016,3.6016,3.6016,3.6016,3.6016,3.6016,3.6016,3.6016,3.6016,3.6016,3.6016,3.6016,3.6016,3.6016,3.6016,3.6016,3.6016,3.6016,3.6016,3.6016,3.6016,3.6016,3.6016,3.6016,3.6016,3.6016,3.6016,3.6016,3.6016,3.6016,3.6016,3.6016,3.6016,3.5976,3.5985,3.5985,3.6036,3.7391,4.0283,4.0279,4.0279,4.0279,4.0279,4.0279,2.0644,2.2949,2.4805,2.708,2.7725,2.8115,2.9307,2.9626,2.9824,3.0703,3.0439,3.0039,3.0039,3.0039,3.0068,3.0176,3.0488,3.0752,3.0869,3.0889,3.0889,3.0889,3.0889,3.0889,3.0889,3.0889,3.1064,3.1484,3.1924,3.2353,3.2773,3.3193,3.3418,3.3418,3.3418,3.3418,3.3418,3.3418,3.3418,3.3418,3.3535,3.376,3.4082,3.4307,3.458,3.4892,3.5244,3.5635,3.6016,3.6016,3.6016,3.6016,3.6016,3.6016,3.6016,3.6016,3.6016,3.6016,3.6016,3.6016,3.6016,3.6016,3.6016,3.6016,3.6016,3.6016,3.6016,3.6016,3.6016,3.6016,3.6016,3.6016,3.6016,3.6016,3.6016,3.6016,3.6016,3.6016,3.6016,3.6016,3.6016,3.6016,3.6016,3.6016,3.6016,3.6016,3.6016,3.6016,3.6016,3.6016,3.6016,3.6016,3.6016,3.6016,3.6016,3.6016,3.6016,3.6016,3.6016,3.6016,3.6016,3.6033,3.634,3.7079,3.7094,3.8123,4.0285,4.0323,4.0279,4.0279,4.0279,4.0279,1.8721,1.9824,2.1123,2.4875,2.6182,2.7031,2.9156,2.9626,2.9824,3.0703,3.0205,2.96,2.96,2.96,2.9736,3.0137,3.0215,3.0391,3.083,3.0889,3.0889,3.0889,3.0889,3.0889,3.0889,3.0889,3.1064,3.1484,3.1924,3.2353,3.2773,3.3193,3.3418,3.3418,3.3418,3.3418,3.3418,3.3418,3.3418,3.3428,3.3838,3.4053,3.4101,3.4941,3.5332,3.5361,3.5381,3.5635,3.6016,3.6016,3.6016,3.6016,3.6016,3.6016,3.6016,3.6016,3.6016,3.6016,3.6016,3.6016,3.6016,3.6016,3.6016,3.6016,3.6016,3.6016,3.6016,3.6016,3.6016,3.6016,3.6016,3.6016,3.6016,3.6016,3.6016,3.6016,3.6016,3.6016,3.6016,3.6016,3.6016,3.6016,3.6016,3.6016,3.6016,3.6016,3.6016,3.6016,3.6016,3.6016,3.6016,3.6016,3.6016,3.6016,3.6016,3.6016,3.6016,3.6016,3.6016,3.6016,3.6016,3.6033,3.7264,3.9983,4.0087,4.018,4.0289,4.0323,4.0279,4.0279,4.0279,4.0279,1.8809,1.959,2.0518,2.3037,2.4609,2.5889,2.7226,2.8584,2.9736,3.0322,3.0195,2.9893,2.9675,2.9336,2.9199,2.9355,2.9834,3.0254,3.042,3.0703,3.0889,3.0889,3.0889,3.0889,3.0889,3.0889,3.0957,3.1103,3.1768,3.2236,3.2383,3.3047,3.3418,3.3418,3.3418,3.3418,3.3418,3.3418,3.3418,3.3428,3.3867,3.4219,3.4492,3.5107,3.5537,3.5801,3.5801,3.5879,3.6016,3.6016,3.6016,3.6016,3.6016,3.6016,3.6016,3.6016,3.6016,3.6016,3.6016,3.6016,3.6016,3.6016,3.6016,3.6016,3.6016,3.6016,3.6016,3.6016,3.6016,3.6016,3.6016,3.6016,3.6016,3.6016,3.6016,3.6016,3.6016,3.6016,3.6016,3.6016,3.6016,3.6016,3.6016,3.6016,3.6016,3.6016,3.6016,3.6016,3.6016,3.6016,3.6016,3.6016,3.6016,3.6016,3.6016,3.6016,3.6016,3.6016,3.6016,3.6025,3.6033,3.5971,3.7365,4.0208,4.0279,4.0334,4.0278,4.0323,4.0279,4.0279,4.0279,4.0289,1.8379,1.8857,1.959,2.1758,2.2939,2.4176,2.6318,2.7803,2.8955,2.9814,2.999,2.9863,2.9434,2.9004,2.875,2.8896,2.9394,2.9863,3.0156,3.0459,3.0713,3.0869,3.0889,3.0889,3.0889,3.0889,3.0889,3.0889,3.1553,3.2012,3.2158,3.2832,3.3271,3.3418,3.3418,3.3418,3.3418,3.3418,3.3496,3.3643,3.4082,3.4512,3.4951,3.54,3.5762,3.6016,3.6016,3.6016,3.6016,3.6016,3.6016,3.6016,3.6016,3.6016,3.6016,3.6016,3.6016,3.6016,3.6016,3.6016,3.6016,3.6016,3.6016,3.6016,3.6016,3.6016,3.6016,3.6016,3.6016,3.6016,3.6016,3.6016,3.6016,3.6016,3.6016,3.6016,3.6016,3.6016,3.6016,3.6016,3.6016,3.6016,3.6016,3.6016,3.6016,3.6016,3.6016,3.6016,3.6016,3.6016,3.6016,3.6016,3.6016,3.6016,3.6016,3.6016,3.6016,3.6016,3.6025,3.5995,3.5992,3.691,3.8368,4.0267,4.0323,4.028,4.029,4.028,4.0279,4.0279,4.0279,4.1035,0.0,0.0,0.0,2.1006,2.1163,2.1789,2.6446,2.7168,2.7402,2.915,2.9502,2.9385,2.9014,2.8594,2.8437,2.8838,2.8916,2.9209,3.0039,3.0166,3.0351,3.081,3.0869,3.0869,3.0889,3.0889,3.0889,3.0889,3.1289,3.1719,3.2209,3.2578,3.2998,3.3408,3.3418,3.3418,3.3418,3.3428,3.3652,3.4082,3.4512,3.4951,3.541,3.583,3.6016,3.6016,3.6016,3.6016,3.6016,3.6016,3.6016,3.6016,3.6016,3.6016,3.6016,3.6016,3.6016,3.6016,3.6016,3.6016,3.6016,3.6016,3.6016,3.6016,3.6016,3.6016,3.6016,3.6016,3.6016,3.6016,3.6016,3.6016,3.6016,3.6016,3.6016,3.6016,3.6016,3.6016,3.6016,3.6016,3.6016,3.6016,3.6016,3.6016,3.6016,3.6016,3.6016,3.6016,3.6016,3.6016,3.6016,3.6016,3.6016,3.6016,3.6016,3.6016,3.6016,3.6016,3.5965,3.6069,3.6147,3.8786,4.0278,4.0333,4.0323,4.0279,4.0279,4.0279,4.0279,4.0279,4.0323,4.2456,1.751,0.0,0.0,0.0,0.0,0.0,2.2132,2.3452,2.5028,2.7699,2.7939,2.8066,2.918,2.9033,2.8682,2.8496,2.8721,2.9004,2.9238,2.9541,2.9902,3.0332,3.0391,3.0518,3.0859,3.0889,3.0889,3.0889,3.1572,3.2041,3.2158,3.2861,3.3301,3.3418,3.3418,3.3418,3.3418,3.374,3.3955,3.4082,3.4844,3.5264,3.541,3.583,3.6016,3.6016,3.6016,3.6016,3.6016,3.6016,3.6016,3.6016,3.6016,3.6016,3.6016,3.6016,3.6016,3.6016,3.6016,3.6016,3.6016,3.6016,3.6016,3.6016,3.6016,3.6016,3.6016,3.6016,3.6016,3.6016,3.6016,3.6016,3.6016,3.6016,3.6016,3.6016,3.6016,3.6016,3.6016,3.6016,3.6016,3.6016,3.6016,3.6016,3.6016,3.6016,3.6016,3.6016,3.6016,3.6016,3.6016,3.6016,3.6016,3.6016,3.6016,3.6016,3.6016,3.6016,3.5967,3.6927,3.9007,3.9877,4.0277,4.0312,4.0312,4.0279,4.0279,4.0279,4.0279,4.0333,4.0332,4.2471,1.8574,1.8359,1.8247,1.832,0.0,0.0,2.165,2.2822,2.4323,2.7305,2.7861,2.8057,2.8887,2.8828,2.8574,2.833,2.8496,2.8721,2.8896,2.9141,2.9521,3.0127,3.0195,3.0381,3.084,3.0889,3.0889,3.0889,3.1357,3.1797,3.2148,3.2969,3.3418,3.3418,3.3418,3.3418,3.3418,3.3857,3.416,3.4346,3.5049,3.5488,3.5664,3.5908,3.6016,3.6016,3.6016,3.6016,3.6016,3.6016,3.6016,3.6016,3.6016,3.6016,3.6016,3.6016,3.6016,3.6016,3.6016,3.6016,3.6016,3.6016,3.6016,3.6016,3.6016,3.6016,3.6016,3.6016,3.6016,3.6016,3.6016,3.6016,3.6016,3.6016,3.6016,3.6016,3.6016,3.6016,3.6016,3.6016,3.6016,3.6016,3.6016,3.6016,3.6016,3.6016,3.6016,3.6016,3.6016,3.6016,3.6016,3.6016,3.6016,3.6016,3.6016,3.6016,3.6016,3.6016,3.6005,3.6749,3.8422,3.9683,4.0278,4.0279,4.0279,4.0279,4.0279,4.0279,4.0279,4.0323,4.0312,4.2474,1.9961,1.9426,1.9228,2.0224,1.9385,0.0,2.2949,2.3525,2.4111,2.6992,2.7803,2.7949,2.7822,2.7793,2.7773,2.7734,2.792,2.8262,2.8779,2.8848,2.917,3.0019,3.0127,3.0332,3.084,3.0889,3.0889,3.0889,3.0976,3.1387,3.2197,3.2988,3.3418,3.3418,3.3418,3.3418,3.3418,3.3896,3.4326,3.4707,3.5215,3.5664,3.6016,3.6016,3.6016,3.6016,3.6016,3.6016,3.6016,3.6016,3.6016,3.6016,3.6016,3.6016,3.6016,3.6016,3.6016,3.6016,3.6016,3.6016,3.6016,3.6016,3.6016,3.6016,3.6016,3.6016,3.6016,3.6016,3.6016,3.6016,3.6016,3.6016,3.6016,3.6016,3.6016,3.6016,3.6016,3.6016,3.6016,3.6016,3.6016,3.6016,3.6016,3.6016,3.6016,3.6016,3.6016,3.6016,3.6016,3.6016,3.6016,3.6016,3.6016,3.6016,3.6016,3.6016,3.6016,3.6016,3.6033,3.6028,3.602,3.8793,4.0301,4.0279,4.0279,4.0279,4.0279,4.0279,4.0279,4.0323,4.0312,4.2474,2.0293,2.0566,2.0977,1.9824,2.0078,0.0,1.9855,1.9971,2.0732,2.2725,2.2637,2.2705,2.4365,2.4668,2.4551,2.4199,2.5615,2.7148,2.8252,2.8418,2.873,2.959,2.9744,3.001,3.081,3.0889,3.0889,3.0889,3.1533,3.2139,3.2646,3.3144,3.3418,3.3418,3.3418,3.3418,3.3418,3.4189,3.4619,3.4707,3.5517,3.5937,3.6016,3.6016,3.6016,3.6016,3.6016,3.6016,3.6016,3.6016,3.6016,3.6016,3.6016,3.6016,3.6016,3.6016,3.6016,3.6016,3.6016,3.6016,3.6016,3.6016,3.6016,3.6016,3.6016,3.6016,3.6016,3.6016,3.6016,3.6016,3.6016,3.6016,3.6016,3.6016,3.6016,3.6016,3.6016,3.6016,3.6016,3.6016,3.6016,3.6016,3.6016,3.6016,3.6016,3.6016,3.6016,3.6016,3.6016,3.6016,3.6016,3.6016,3.6016,3.6016,3.6016,3.6016,3.6016,3.6016,3.6033,3.6028,3.602,3.8793,4.0301,4.0279,4.0279,4.0279,4.0279,4.0279,4.0279,4.0323,4.0312,4.2474,2.1367,2.1387,2.1728,2.1064,2.0898,0.0,0.0,2.0518,2.081,2.2744,2.2451,2.2246,2.3555,2.3623,2.3477,2.3467,2.4922,2.6055,2.6045,2.7344,2.8525,2.917,2.9248,2.9502,3.0166,3.042,3.0644,3.0869,3.1484,3.2031,3.2461,3.2881,3.3203,3.3418,3.3418,3.3418,3.3418,3.4267,3.4697,3.4707,3.5596,3.6016,3.6016,3.6016,3.6016,3.6016,3.6016,3.6016,3.6016,3.6016,3.6016,3.6016,3.6016,3.6016,3.6016,3.6016,3.6016,3.6016,3.6016,3.6016,3.6016,3.6016,3.6016,3.6016,3.6016,3.6016,3.6016,3.6016,3.6016,3.6016,3.6016,3.6016,3.6016,3.6016,3.6016,3.6016,3.6016,3.6016,3.6016,3.6016,3.6016,3.6016,3.6016,3.6016,3.6016,3.6016,3.6016,3.6016,3.6016,3.6016,3.6016,3.6016,3.6016,3.6016,3.6016,3.6016,3.6016,3.6016,3.6033,3.6666,3.8119,3.9544,4.0301,4.0279,4.0279,4.0279,4.0279,4.0279,4.0279,4.0333,4.031,4.2459,2.2637,2.2373,2.2607,2.2529,2.1963,2.1662,0.0,0.0,0.0,2.3018,2.2711,2.2311,2.2627,2.2461,2.2383,2.2637,2.3916,2.4473,2.333,2.5557,2.749,2.7988,2.8564,2.8994,2.918,2.9434,2.9912,3.0703,3.085,3.1269,3.2119,3.2568,3.2988,3.3408,3.3418,3.3418,3.3418,3.4267,3.4697,3.4707,3.5596,3.6016,3.6016,3.6016,3.6016,3.6016,3.6016,3.6016,3.6016,3.6016,3.6016,3.6016,3.6016,3.6016,3.6016,3.6016,3.6016,3.6016,3.6016,3.6016,3.6016,3.6016,3.6016,3.6016,3.6016,3.6016,3.6016,3.6016,3.6016,3.6016,3.6016,3.6016,3.6016,3.6016,3.6016,3.6016,3.6016,3.6016,3.6016,3.6016,3.6016,3.6016,3.6016,3.6016,3.6016,3.6016,3.6016,3.6016,3.6016,3.6016,3.6016,3.6016,3.6016,3.6016,3.6016,3.6015,3.5986,3.6005,3.6002,3.7283,4.0208,4.031,4.0323,4.0279,4.0279,4.0279,4.0279,4.0279,4.0279,4.0268,4.0316,4.2063,2.3627,2.4075,2.4806,2.2978,2.3545,2.3854,2.0928,0.0,2.083,1.9524,0.0,1.9017,1.8721,0.0,0.0,1.8721,2.0362,2.1562,2.1045,2.2549,2.3978,2.4834,2.7295,2.8643,2.8002,2.7578,2.8184,3.0127,2.9277,2.9687,3.2041,3.2568,3.2988,3.3408,3.3418,3.3418,3.3418,3.4267,3.4697,3.4707,3.5596,3.6016,3.6016,3.6016,3.6016,3.6016,3.6016,3.6016,3.6016,3.6016,3.6016,3.6016,3.6016,3.6016,3.6016,3.6016,3.6016,3.6016,3.6016,3.6016,3.6016,3.6016,3.6016,3.6016,3.6016,3.6016,3.6016,3.6016,3.6016,3.6016,3.6016,3.6016,3.6016,3.6016,3.6016,3.6016,3.6016,3.6016,3.6016,3.6016,3.6016,3.6016,3.6016,3.6016,3.6016,3.6016,3.6016,3.6016,3.6016,3.6016,3.6016,3.6016,3.6016,3.6016,3.6016,3.603,3.6006,3.6,3.5991,3.7278,4.0201,4.029,4.0301,4.0279,4.0279,4.0279,4.0279,4.0279,4.0279,4.0268,4.0316,4.0539,2.4023,2.4553,2.5284,2.3672,2.3799,2.375,2.1562,2.0752,2.0332,1.9853,0.0,0.0,0.0,0.0,0.0,0.0,1.9766,2.043,1.9248,2.1426,2.3227,2.3588,2.4805,2.5937,2.6836,2.6758,2.7539,2.9668,2.8652,2.9062,3.165,3.2197,3.2734,3.3398,3.3418,3.3418,3.3418,3.4267,3.4697,3.4707,3.5596,3.6016,3.6016,3.6016,3.6016,3.6016,3.6016,3.6016,3.6016,3.6016,3.6016,3.6016,3.6016,3.6016,3.6016,3.6016,3.6016,3.6016,3.6016,3.6016,3.6016,3.6016,3.6016,3.6016,3.6016,3.6016,3.6016,3.6016,3.6016,3.6016,3.6016,3.6016,3.6016,3.6016,3.6016,3.5986,3.6005,3.5975,3.6013,3.603,3.601,3.601,3.601,3.5964,3.5975,3.5975,3.6023,3.5985,3.5996,3.6016,3.6016,3.6016,3.7482,3.8482,3.8482,4.064,4.0998,3.8635,3.8492,3.9048,4.028,4.0323,4.0279,4.0279,4.0279,4.0279,4.0279,4.0279,4.0279,4.0268,4.0316,4.027,2.5088,2.5537,2.5986,2.4092,2.3701,2.3389,2.1875,2.1055,2.0576,2.042,1.9932,0.0,0.0,0.0,1.8418,1.8568,0.0,1.9561,1.8203,2.0118,2.1687,2.1687,2.2266,2.3389,2.5322,2.5078,2.5879,2.856,2.751,2.8164,3.1348,3.1934,3.2559,3.3389,3.3418,3.3418,3.3418,3.4267,3.4697,3.4707,3.5596,3.6016,3.6016,3.6016,3.6016,3.6016,3.6016,3.6016,3.6016,3.6016,3.6016,3.6016,3.6016,3.6016,3.6016,3.6016,3.6016,3.6016,3.6016,3.6016,3.6016,3.6016,3.6016,3.6016,3.6016,3.6016,3.6016,3.6016,3.6016,3.6016,3.6016,3.5976,3.6005,3.6005,3.6034,3.6013,3.6,3.6599,3.7179,3.7161,3.7197,3.7197,3.7197,3.6536,3.6241,3.7055,3.7179,3.7153,3.7152,3.7172,3.7199,3.7166,4.0018,4.1911,4.1911,4.4619,4.4559,4.0546,4.03,4.0278,4.0318,4.0307,4.0276,4.0288,4.0288,4.0278,4.0279,4.0279,4.0279,4.0268,4.0316,4.0882,2.748,2.7549,2.7402,2.4079,2.3486,2.3232,2.1134,2.1553,2.1953,2.0283,2.0918,2.1269,1.959,1.9268,1.9111,1.8666,1.8637,0.0,0.0,1.8105,1.8174,1.8174,1.9982,2.1816,2.3178,2.1789,2.2386,2.6201,2.5264,2.6572,3.1269,3.1934,3.2559,3.3389,3.3418,3.3418,3.3418,3.4267,3.4697,3.4707,3.5596,3.6016,3.6016,3.6016,3.6016,3.6016,3.6016,3.6016,3.6016,3.6016,3.6016,3.6016,3.6016,3.6016,3.6016,3.6016,3.6016,3.6016,3.6016,3.6016,3.6016,3.6016,3.6016,3.6016,3.6016,3.6016,3.6016,3.6016,3.6016,3.6016,3.6016,3.6005,3.5992,3.5992,3.5979,3.5964,3.603,3.8217,4.0184,4.0173,4.0173,4.0173,4.0173,3.7847,3.6936,3.9723,4.0184,4.0184,4.0128,4.0128,4.0177,4.0192,4.3728,4.612,4.612,4.6253,4.4597,4.0516,4.0282,4.0273,4.0325,4.0325,4.0311,4.0304,4.0315,4.0281,4.0279,4.0279,4.0279,4.0268,4.0316,4.2379,2.8828,2.9346,2.9316,2.6435,2.5605,2.4873,2.2412,2.2197,2.2187,2.0986,2.1377,2.1523,2.039,1.9705,1.915,1.8676,1.8598,1.8256,0.0,1.7126,1.734,1.7939,1.9658,2.0967,2.1447,2.1943,2.3301,2.5771,2.581,2.7295,3.0908,3.1504,3.2256,3.3389,3.3418,3.3418,3.3418,3.4267,3.4697,3.4707,3.5596,3.6016,3.6016,3.6016,3.6016,3.6016,3.6016,3.6016,3.6016,3.6016,3.6016,3.6016,3.6016,3.6016,3.6016,3.6016,3.6016,3.6016,3.6016,3.6016,3.6016,3.6016,3.6016,3.6016,3.6016,3.6016,3.6016,3.6016,3.5996,3.6023,3.6023,3.601,3.6516,3.8372,3.8846,3.8828,3.8835,3.9632,4.0321,4.0312,4.029,4.029,4.029,3.9517,3.9212,4.0168,4.0311,4.029,4.029,4.029,4.1309,4.4001,4.5489,4.6313,4.6313,4.6313,4.573,4.4377,4.4295,4.4251,4.4283,4.4283,4.4266,4.4254,4.1667,4.0307,4.027,4.027,4.0296,4.0344,4.3042,4.4995,3.0674,3.1133,3.0986,2.8535,2.7598,2.665,2.4199,2.3887,2.3818,2.2812,2.2695,2.2754,2.2699,2.1055,1.9756,1.9785,1.9104,1.8256,0.0,1.7155,1.736,1.7949,1.8984,1.993,2.0546,2.0889,2.234,2.545,2.5566,2.6982,3.0459,3.1348,3.2187,3.3174,3.334,3.3418,3.3418,3.4267,3.4697,3.4707,3.5596,3.6016,3.6016,3.6016,3.6016,3.6016,3.6016,3.6016,3.6016,3.6016,3.6016,3.6016,3.6016,3.6016,3.6016,3.6016,3.6016,3.6016,3.6016,3.6016,3.6016,3.6016,3.6016,3.6016,3.6016,3.6229,3.6423,3.6073,3.5964,3.6212,3.7277,3.754,3.7995,3.9858,4.0331,4.031,4.0323,4.029,4.0312,4.0301,4.0279,4.0279,4.0279,4.0279,4.0323,4.0268,4.0301,4.0279,4.0279,4.1523,4.3421,4.5988,4.6313,4.6313,4.6313,4.6313,4.6313,4.6313,4.6326,4.6266,4.6302,4.6302,4.6315,4.6266,4.3719,4.2459,4.2459,4.2459,4.2435,4.2483,4.5109,4.6276]}]]